[[{"header":{"parameterUnit":"m.s-1","parameterCategory":1,"la1":31.0,"la2":29.5877,"lo1":-88.7671,"lo2":-86.6584,"dy":0.0162,"dx":0.0185,"nx":115,"ny":88,"refTime":"2023-09-05T12:00:00:Z","depth":0,"parameterNumber":2,"parameterNumberName":"U-component_of_WINDS"},"data":[0.0,0.0,0.0,0.0,0.0,0.0,0.0,0.0,0.0,0.0,0.0,0.0,0.0,0.0,0.0,0.0,0.0,0.0,0.0,0.0,0.0,0.0,0.0,0.0,0.0,0.0,0.0,0.0,0.0,0.0,0.0,0.0,0.0,0.0,0.0,0.0,0.0,0.0,0.0,0.0,0.0,0.0,0.0,0.0,0.0,0.0,0.0,0.0,0.0,0.0,0.0,0.0,0.0,0.0,0.0,0.0,0.0,0.0,0.0,0.0,0.0,0.0,0.0,0.0,0.0,0.0,0.0,0.0,0.0,0.0,0.0,0.0,0.0,0.0,0.0,0.0,0.0,0.0,0.0,0.0,0.0,0.0,0.0,0.0,0.0,0.0,0.0,0.0,0.0,0.0,0.0,0.0,0.0,0.0,0.0,0.0,0.0,0.0,0.0,0.0,0.0,0.0,0.0,0.0,0.0,0.0,0.0,0.0,0.0,0.0,0.0,0.0,0.0,0.0,0.0,0.0,0.0,0.0,0.0,0.0,0.0,0.0,0.0,0.0,0.0,0.0,0.0,0.0,0.0,0.0,0.0,0.0,0.0,0.0,0.0,0.0,0.0,0.0,0.0,0.0,0.0,0.0,0.0,0.0,0.0,0.0,0.0,0.0,0.0,0.0,0.0,0.0,0.0,0.0,0.0,0.0,0.0,0.0,0.0,0.0,0.0,0.0,0.0,0.0,0.0,0.0,0.0,0.0,0.0,0.0,0.0,0.0,0.0,0.0,0.0,0.0,0.0,0.0,0.0,0.0,0.0,0.0,0.0,0.0,0.0,0.0,0.0,0.0,0.0,0.0,0.0,0.0,0.0,0.0,0.0,0.0,0.0,0.0,0.0,0.0,0.0,0.0,0.0,0.0,0.0,0.0,0.0,0.0,0.0,0.0,0.0,0.0,0.0,0.0,0.0,0.0,0.0,0.0,0.0,0.0,0.0,0.0,0.0,0.0,0.0,0.0,0.0,0.0,0.0,0.0,0.0,0.0,0.0,0.0,0.0,0.0,0.0,0.0,0.0,0.0,0.0,0.0,0.0,0.0,0.0,0.0,0.0,0.0,0.0,0.0,0.0,0.0,0.0,0.0,0.0,0.0,0.0,0.0,0.0,0.0,0.0,0.0,0.0,0.0,0.0,0.0,0.0,0.0,0.0,0.0,0.0,0.0,0.0,0.0,0.0,0.0,0.0,0.0,0.0,0.0,0.0,0.0,0.0,0.0,0.0,0.0,0.0,0.0,0.0,0.0,0.0,0.0,0.0,0.0,0.0,0.0,0.0,0.0,0.0,0.0,0.0,0.0,0.0,0.0,0.0,0.0,0.0,0.0,0.0,0.0,0.0,0.0,0.0,0.0,0.0,0.0,0.0,0.0,0.0,0.0,0.0,0.0,0.0,0.0,0.0,0.0,0.0,0.0,0.0,0.0,0.0,0.0,0.0,0.0,0.0,0.0,0.0,0.0,0.0,0.0,0.0,0.0,0.0,0.0,0.0,0.0,0.0,0.0,0.0,0.0,0.0,0.0,0.0,0.0,0.0,0.0,0.0,0.0,0.0,0.0,0.0,0.0,0.0,0.0,0.0,0.0,0.0,0.0,0.0,0.0,0.0,0.0,0.0,0.0,0.0,0.0,0.0,0.0,0.0,0.0,0.0,0.0,0.0,0.0,0.0,0.0,0.0,0.0,0.0,0.0,0.0,0.0,0.0,0.0,0.0,0.0,0.0,0.0,0.0,0.0,0.0,0.0,0.0,0.0,0.0,0.0,0.0,0.0,0.0,0.0,0.0,0.0,0.0,0.0,0.0,0.0,0.0,0.0,0.0,0.0,0.0,0.0,0.0,0.0,0.0,0.0,0.0,0.0,0.0,0.0,0.0,0.0,0.0,0.0,0.0,0.0,0.0,0.0,0.0,0.0,0.0,0.0,0.0,0.0,0.0,0.0,0.0,0.0,0.0,0.0,0.0,0.0,0.0,0.0,0.0,0.0,0.0,0.0,0.0,0.0,0.0,0.0,0.0,0.0,0.0,0.0,0.0,0.0,0.0,0.0,0.0,0.0,0.0,0.0,0.0,0.0,0.0,0.0,0.0,0.0,0.0,0.0,0.0,0.0,0.0,0.0,0.0,0.0,0.0,0.0,0.0,0.0,0.0,0.0,0.0,0.0,0.0,0.0,0.0,0.0,0.0,0.0,0.0,0.0,0.0,0.0,0.0,0.0,0.0,0.0,0.0,0.0,0.0,0.0,0.0,0.0,0.0,0.0,0.0,0.0,0.0,0.0,0.0,0.0,0.0,0.0,0.0,0.0,0.0,0.0,0.0,0.0,0.0,0.0,0.0,0.0,0.0,0.0,0.0,0.0,0.0,0.0,0.0,0.0,0.0,0.0,0.0,0.0,0.0,0.0,0.0,0.0,0.0,0.0,0.0,0.0,0.0,0.0,0.0,0.0,0.0,0.0,0.0,0.0,0.0,0.0,0.0,0.0,0.0,0.0,0.0,0.0,0.0,0.0,0.0,0.0,0.0,0.0,0.0,0.0,0.0,0.0,0.0,0.0,0.0,0.0,0.0,0.0,0.0,0.0,0.0,0.0,0.0,0.0,0.0,0.0,0.0,0.0,0.0,0.0,0.0,0.0,0.0,0.0,0.0,0.0,0.0,0.0,0.0,0.0,0.0,0.0,0.0,0.0,0.0,0.0,0.0,0.0,0.0,0.0,0.0,0.0,0.0,0.0,0.0,0.0,0.0,0.0,0.0,0.0,0.0,0.0,0.0,0.0,0.0,0.0,0.0,0.0,0.0,0.0,0.0,0.0,0.0,0.0,0.0,0.0,0.0,0.0,0.0,0.0,0.0,0.0,0.0,0.0,0.0,0.0,0.0,0.0,0.0,0.0,0.0,0.0,0.0,0.0,0.0,0.0,0.0,0.0,0.0,0.0,0.0,0.0,0.0,0.0,0.0,0.0,0.0,0.0,0.0,0.0,0.0,0.0,0.0,0.0,0.0,0.0,0.0,0.0,0.0,0.0,0.0,0.0,0.0,0.0,0.0,0.0,0.0,0.0,0.0,0.0,0.0,0.0,0.0,0.0,0.0,0.0,0.0,0.0,0.0,0.0,0.0,0.0,0.0,0.0,0.0,0.0,0.0,0.0,0.0,0.0,0.0,0.0,0.0,0.0,0.0,0.0,0.0,0.0,0.0,0.0,0.0,0.0,0.0,0.0,0.0,0.0,0.0,0.0,0.0,0.0,0.0,0.0,0.0,0.0,0.0,0.0,0.0,0.0,0.0,0.0,0.0,0.0,0.0,0.0,0.0,0.0,0.0,0.0,0.0,0.0,0.0,0.0,0.0,0.0,0.0,0.0,0.0,0.0,0.0,0.0,0.0,0.0,0.0,0.0,0.0,0.0,0.0,0.0,0.0,0.0,0.0,0.0,0.0,0.0,0.0,0.0,0.0,0.0,0.0,0.0,0.0,0.0,0.0,0.0,0.0,0.0,0.0,0.0,0.0,0.0,0.0,0.0,0.0,0.0,0.0,0.0,0.0,0.0,0.0,0.0,0.0,0.0,0.0,0.0,0.0,0.0,0.0,0.0,0.0,0.0,0.0,0.0,0.0,0.0,0.0,0.0,0.0,0.0,0.0,0.0,0.0,0.0,0.0,0.0,0.0,0.0,0.0,0.0,0.0,0.0,0.0,0.0,0.0,0.0,0.0,0.0,0.0,0.0,0.0,0.0,0.0,0.0,0.0,0.0,0.0,0.0,0.0,0.0,0.0,0.0,0.0,0.0,0.0,0.0,0.0,0.0,0.0,0.0,0.0,0.0,0.0,0.0,0.0,0.0,0.0,0.0,0.0,0.0,0.0,0.0,0.0,0.0,0.0,0.0,0.0,0.0,0.0,0.0,0.0,0.0,0.0,0.0,0.0,0.0,0.0,0.0,0.0,0.0,0.0,0.0,0.0,0.0,0.0,0.0,0.0,0.0,0.0,0.0,0.0,0.0,0.0,0.0,0.0,0.0,0.0,0.0,0.0,0.0,0.0,0.0,0.0,0.0,0.0,0.0,0.0,0.0,0.0,0.0,0.0,0.0,0.0,0.0,0.0,0.0,0.0,0.0,0.0,0.0,0.0,0.0,0.0,0.0,0.0,0.0,0.0,0.0,0.0,0.0,0.0,0.0,0.0,0.0,0.0,0.0,0.0,0.0,0.0,0.0,0.0,0.0,0.0,0.0,0.0,0.0,0.0,0.0,-0.3975,0.0,0.0,0.0,0.0,0.0,0.0,0.0,0.0,0.0,0.0,0.0,0.0,0.0,0.0,0.0,0.0,0.0,0.0,0.0,0.0,0.0,0.0,0.0,0.0,0.0,0.0,0.0,0.0,0.0,0.0,0.0,0.0,0.0,0.0,0.0,0.0,0.0,0.0,0.0,0.0,0.0,0.0,0.0,0.0,0.0,0.0,0.0,0.0,0.0,0.0,0.0,0.0,0.0,0.0,0.0,0.0,0.0,0.0,0.0,0.0,0.0,0.0,0.0,0.0,0.0,0.0,0.0,0.0,0.0,0.0,0.0,0.0,0.0,0.0,0.0,0.0,0.0,0.0,0.0,0.0,0.0,0.0,0.0,0.0,0.0,0.0,0.0,0.0,0.0,0.0,0.0,0.0,0.0,0.0,0.0,0.0,0.0,0.0,0.0,0.0,0.0,0.0,0.0,0.0,0.0,0.0,0.0,0.0,0.0,0.0,-0.2293,-0.2789,-0.2608,-0.2881,-0.3674,0.0,0.0,0.0,0.0,0.0,0.0,0.0,0.0,0.0,0.0,0.0,0.0,0.0,0.0,0.0,0.0,0.0,0.0,0.0,0.0,0.0,0.0,0.0,0.0,0.0,0.0,0.0,0.0,0.0,0.0,0.0,0.0,0.0,0.0,0.0,0.0,0.0,0.0,0.0,0.0,0.0,0.0,0.0,0.0,0.0,0.0,0.0,0.0,0.0,0.0,0.0,0.0,0.0,0.0,0.0,0.0,0.0,0.0,0.0,0.0,0.0,0.0,0.0,0.0,0.0,0.0,0.0,0.0,0.0,0.0,0.0,0.0,0.0,0.0,0.0,0.0,0.0,0.0,0.0,0.0,0.0,0.0,0.0,0.0,0.0,0.0,0.0,0.0,0.0,0.0,0.0,0.0,0.0,0.0,0.0,0.0,0.0,0.0,0.0,0.0,0.0,0.0,0.0,0.0,0.0,0.0,0.0,0.0,0.0,0.0,0.0,0.0,-0.232,-0.2602,-0.337,0.0,0.0,0.0,0.0,0.0,0.0,0.0,0.0,0.0,0.0,0.0,0.0,0.0,0.0,0.0,0.0,0.0,0.0,0.0,0.0,0.0,0.0,0.0,0.0,0.0,0.0,0.0,0.0,0.0,0.0,0.0,0.0,0.0,0.0,0.0,0.0,0.0,0.0,0.0,0.0,0.0,0.0,0.0,0.0,0.0,0.0,0.0,0.0,0.0,0.0,0.0,0.0,0.0,0.0,0.0,0.0,0.0,0.0,0.0,0.0,0.0,0.0,0.0,0.0,0.0,0.0,0.0,0.0,0.0,0.0,0.0,0.0,0.0,0.0,0.0,0.0,0.0,0.0,0.0,0.0,0.0,0.0,0.0,0.0,0.0,0.0,0.0,0.0,0.0,0.0,0.0,0.0,0.0,0.0,0.0,0.0,0.0,0.0,0.0,0.0,0.0,0.0,0.0,0.0,0.0,0.0,0.0,0.0,0.0,0.0,-0.2076,-0.2083,-0.2689,0.0,-0.3466,0.0,0.0,0.0,0.0,0.0,0.0,0.0,0.0,0.0,0.0,0.0,0.0,0.0,0.0,0.0,0.0,0.0,0.0,0.0,0.0,0.0,0.0,0.0,0.0,0.0,0.0,0.0,0.0,0.0,0.0,0.0,0.0,0.0,0.0,0.0,0.0,0.0,0.0,0.0,0.0,0.0,0.0,0.0,0.0,0.0,0.0,0.0,0.0,0.0,0.0,0.0,0.0,0.0,0.0,0.0,0.0,0.0,0.0,0.0,0.0,0.0,0.0,0.0,0.0,0.0,0.0,0.0,0.0,0.0,0.0,0.0,0.0,0.0,0.0,0.0,0.0,0.0,0.0,0.0,0.0,0.0,0.0,0.0,0.0,0.0,0.0,0.0,0.0,0.0,0.0,0.0,0.0,0.0,0.0,0.0,0.0,0.0,0.0,0.0,0.0,0.0,0.0,0.0,0.0,0.0,0.0,0.0,0.0,0.0,0.0,-0.1739,-0.1986,-0.2736,-0.3113,0.0,0.0,0.0,0.0,0.0,0.0,0.0,0.0,0.0,0.0,0.0,0.0,0.0,0.0,0.0,0.0,0.0,0.0,0.0,0.0,0.0,0.0,0.0,0.0,0.0,0.0,0.0,0.0,0.0,0.0,0.0,0.0,0.0,0.0,0.0,0.0,0.0,0.0,0.0,0.0,0.0,0.0,0.0,0.0,0.0,0.0,0.0,0.0,0.0,0.0,0.0,0.0,0.0,0.0,0.0,0.0,0.0,0.0,0.0,0.0,0.0,0.0,0.0,0.0,0.0,0.0,0.0,0.0,0.0,0.0,0.0,0.0,0.0,0.0,0.0,0.0,0.0,0.0,0.0,0.0,0.0,0.0,0.0,0.0,0.0,0.0,0.0,0.0,0.0,0.0,0.0,0.0,0.0,0.0,0.0,0.0,0.0,0.0,0.0,0.0,0.0,0.0,0.0,0.0,0.0,0.0,0.0,0.0,0.0,0.0,-0.1302,-0.1528,-0.2061,-0.2543,-0.2824,-0.2864,0.0,0.0,0.0,0.0,0.0,0.0,0.0,0.0,0.0,0.0,0.0,0.0,0.0,0.0,0.0,0.0,0.0,0.0,0.0,0.0,0.0,0.0,0.0,0.0,0.0,0.0,0.0,0.0,0.0,0.0,0.0,0.0,0.0,0.0,0.0,0.0,0.0,0.0,0.0,0.0,0.0,0.0,0.0,0.0,0.0,0.0,0.0,0.0,0.0,0.0,0.0,0.0,0.0,0.0,0.0,0.0,0.0,0.0,0.0,0.0,0.0,0.0,0.0,0.0,0.0,0.0,0.0,0.0,0.0,0.0,0.0,0.0,0.0,0.0,0.0,0.0,0.0,0.0,0.0,0.0,0.0,0.0,0.0,0.0,0.0,0.0,0.0,0.0,0.0,0.0,0.0,0.0,0.0,0.0,0.0,0.0,0.0,0.0,0.0,0.0,0.0,0.0,0.0,0.0,0.0,0.0,0.0,0.0,-0.1651,-0.1424,-0.1577,-0.2154,-0.2107,-0.229,0.0,0.0,0.0,0.0,0.0,0.0,0.0,0.0,0.0,0.0,0.0,0.0,0.0,0.0,0.0,0.0,0.0,0.0,0.0,0.0,0.0,0.0,0.0,0.0,0.0,0.0,0.0,0.0,0.0,0.0,0.0,0.0,0.0,0.0,0.0,0.0,0.0,0.0,0.0,0.0,0.0,0.0,0.0,0.0,0.0,0.0,0.0,0.0,0.0,0.0,0.0,0.0,0.0,0.0,0.0,0.0,0.0,0.0,0.0,0.0,0.0,0.0,0.0,0.0,0.0,0.0,0.0,0.0,0.0,0.0,0.0,0.0,0.0,0.0,0.0,0.0,0.0,0.0,0.0,0.0,0.0,0.0,0.0,0.0,0.0,0.0,0.0,0.0,0.0,0.0,0.0,0.0,0.0,0.0,0.0,0.0,0.0,0.0,0.0,0.0,0.0,0.0,0.0,0.0,0.0,0.0,0.0,0.0,0.0,-0.1467,-0.0983,-0.0953,-0.1402,-0.1874,-0.2186,0.0,0.0,0.0,0.0,0.0,0.0,0.0,0.0,0.0,0.0,0.0,0.0,0.0,0.0,0.0,0.0,0.0,0.0,0.0,0.0,0.0,0.0,0.0,0.0,0.0,0.0,0.0,0.0,0.0,0.0,0.0,0.0,0.0,0.0,0.0,0.0,0.0,0.0,0.0,0.0,0.0,0.0,0.0,0.0,0.0,0.0,0.0,0.0,0.0,0.0,0.0,0.0,0.0,0.0,0.0,0.0,0.0,0.0,0.0,0.0,0.0,0.0,0.0,0.0,0.0,0.0,0.0,0.0,0.0,0.0,0.0,0.0,0.0,0.0,0.0,0.0,0.0,0.0,0.0,0.0,0.0,0.0,0.0,0.0,0.0,0.0,0.0,0.0,0.0,0.0,0.0,0.0,0.0,0.0,0.0,0.0,0.0,0.0,0.0,0.0,0.0,0.0,0.0,0.0,0.0,0.0,0.0,0.0,0.0,-0.1376,0.0,-0.0903,-0.1081,-0.1708,-0.2022,0.0,0.0,0.0,0.0,0.0,0.0,0.0,0.0,0.0,0.0,0.0,0.0,0.0,0.0,0.0,0.0,0.0,0.0,0.0,0.0,0.0,0.0,0.0,0.0,0.0,0.0,0.0,0.0,0.0,0.0,0.0,0.0,0.0,0.0,0.0,0.0,0.0,0.0,0.0,0.0,0.0,0.0,0.0,0.0,0.0,0.0,0.0,0.0,0.0,0.0,0.0,0.0,0.0,0.0,0.0,0.0,0.0,0.0,0.0,0.0,0.0,0.0,0.0,0.0,0.0,0.0,0.0,0.0,0.0,0.0,0.0,0.0,0.0,0.0,0.0,0.0,0.0,0.0,0.0,0.0,0.0,0.0,0.0,0.0,0.0,0.0,0.0,0.0,0.0,0.0,0.0,0.0,0.0,0.0,0.0,0.0,0.0,0.0,0.0,0.0,0.0,0.0,0.0,0.0,0.0,0.0,0.0,0.0,-0.1466,-0.1402,-0.1499,-0.1479,-0.1336,-0.1599,-0.182,0.0,0.0,0.0,0.0,0.0,0.0,0.0,0.0,0.0,0.0,0.0,0.0,0.0,0.0,0.0,0.0,0.0,0.0,0.0,0.0,0.0,0.0,0.0,0.0,0.0,0.0,0.0,0.0,0.0,0.0,0.0,0.0,0.0,0.0,0.0,0.0,0.0,0.0,0.0,0.0,0.0,0.0,0.0,0.0,0.0,0.0,0.0,0.0,0.0,0.0,0.0,0.0,0.0,0.0,0.0,0.0,0.0,0.0,0.0,0.0,0.0,0.0,0.0,0.0,0.0,0.0,0.0,0.0,0.0,0.0,0.0,0.0,0.0,0.0,0.0,0.0,0.0,0.0,0.0,0.0,0.0,0.0,0.0,0.0,0.0,0.0,0.0,0.0,0.0,0.0,0.0,0.0,0.0,0.0,0.0,0.0,0.0,0.0,0.0,0.0,0.0,0.0,0.0,0.0,0.0,0.0,0.0,0.0,0.0,-0.1328,-0.1415,-0.1554,-0.1721,-0.1732,-0.2076,0.0,0.0,0.0,0.0,0.0,0.0,0.0,0.0,0.0,0.0,0.0,0.0,0.0,0.0,0.0,0.0,0.0,0.0,0.0,0.0,0.0,0.0,0.0,0.0,0.0,0.0,0.0,0.0,0.0,0.0,0.0,0.0,0.0,0.0,0.0,0.0,0.0,0.0,0.0,0.0,0.0,0.0,0.0,0.0,0.0,0.0,0.0,0.0,0.0,0.0,0.0,0.0,0.0,0.0,0.0,0.0,0.0,0.0,0.0,0.0,0.0,0.0,0.0,0.0,0.0,0.0,0.0,0.0,0.0,0.0,0.0,0.0,0.0,0.0,0.0,0.0,0.0,0.0,0.0,0.0,0.0,0.0,0.0,0.0,0.0,0.0,0.0,0.0,0.0,0.0,0.0,0.0,0.0,0.0,0.0,0.0,0.0,0.0,0.0,0.0,0.0,0.0,0.0,0.0,0.0,0.0,0.0,0.0,0.0,-0.1704,-0.1686,-0.1778,-0.1986,-0.2103,-0.2415,-0.2905,0.0,0.0,0.0,0.0,0.0,0.0,0.0,0.0,0.0,0.0,0.0,0.0,0.0,0.0,0.0,0.0,0.0,0.0,0.0,0.0,0.0,0.0,0.0,0.0,0.0,0.0,0.0,0.0,0.0,0.0,0.0,0.0,0.0,0.0,0.0,0.0,0.0,0.0,0.0,0.0,0.0,0.0,0.0,0.0,0.0,0.0,0.0,0.0,0.0,0.0,0.0,0.0,0.0,0.0,0.0,0.0,0.0,0.0,0.0,0.0,0.0,0.0,0.0,0.0,0.0,0.0,0.0,0.0,0.0,0.0,0.0,0.0,0.0,0.0,0.0,0.0,0.0,0.0,0.0,0.0,0.0,0.0,0.0,0.0,0.0,0.0,0.0,0.0,0.0,0.0,0.0,0.0,0.0,0.0,0.0,0.0,0.0,0.0,0.0,0.0,0.0,0.0,0.0,0.0,0.0,0.0,0.0,0.0,-0.2421,-0.2345,-0.2256,-0.2186,-0.2601,-0.2814,0.0,0.0,0.0,0.0,0.0,0.0,0.0,0.0,0.0,0.0,0.0,0.0,0.0,0.0,0.0,0.0,0.0,0.0,0.0,0.0,0.0,0.0,0.0,0.0,0.0,0.0,0.0,0.0,0.0,0.0,0.0,0.0,0.0,0.0,0.0,0.0,0.0,0.0,0.0,0.0,0.0,0.0,0.0,0.0,0.0,0.0,0.0,0.0,0.0,0.0,0.0,0.0,0.0,0.0,0.0,0.0,0.0,0.0,0.0,0.0,0.0,0.0,0.0,0.0,0.0,0.0,0.0,0.0,0.0,0.0,0.0,0.0,0.0,0.0,0.0,0.0,0.0,0.0,0.0,0.0,0.0,0.0,0.0,0.0,0.0,0.0,0.0,0.0,0.0,0.0,0.0,0.0,0.0,0.0,0.0,0.0,0.0,0.0,0.0,0.0,0.0,0.0,0.0,0.0,0.0,0.0,0.0,0.0,0.0,-0.2831,-0.305,-0.312,-0.3047,-0.3143,-0.3323,0.0,0.0,0.0,0.0,0.0,0.0,0.0,0.0,0.0,0.0,0.0,0.0,0.0,0.0,0.0,0.0,0.0,0.0,0.0,0.0,0.0,0.0,0.0,0.0,0.0,0.0,0.0,0.0,0.0,0.0,0.0,0.0,0.0,0.0,0.0,0.0,0.0,0.0,0.0,0.0,0.0,0.0,0.0,0.0,0.0,0.0,0.0,0.0,0.0,0.0,0.0,0.0,0.0,0.0,0.0,0.0,0.0,0.0,0.0,0.0,0.0,0.0,0.0,0.0,0.0,0.0,0.0,0.0,0.0,0.0,0.0,0.0,0.0,0.0,0.0,0.0,0.0,0.0,0.0,0.0,0.0,0.0,0.0,0.0,0.0,0.0,0.0,0.0,0.0,0.0,0.0,0.0,0.0,0.0,0.0,0.0,0.0,0.0,0.0,0.0,0.0,0.0,0.0,0.0,0.0,0.0,0.0,0.0,-0.2587,-0.2656,-0.3557,-0.3837,-0.346,-0.3582,-0.3709,0.0,0.0,0.0,0.0,0.0,0.0,0.0,0.0,0.0,0.0,0.0,0.0,0.0,0.0,0.0,0.0,0.0,0.0,0.0,0.0,0.0,0.0,0.0,0.0,0.0,0.0,0.0,0.0,0.0,0.0,0.0,0.0,0.0,0.0,0.0,0.0,0.0,0.0,0.0,0.0,0.0,0.0,0.0,0.0,0.0,0.0,0.0,0.0,0.0,0.0,0.0,0.0,0.0,0.0,0.0,0.0,0.0,0.0,0.0,0.0,0.0,0.0,0.0,0.0,0.0,0.0,0.0,0.0,0.0,0.0,0.0,0.0,0.0,0.0,0.0,0.0,0.0,0.0,0.0,0.0,0.0,0.0,0.0,0.0,0.0,0.0,0.0,0.0,0.0,0.0,0.0,0.0,0.0,0.0,0.0,0.0,0.0,0.0,0.0,0.0,0.0,0.0,0.0,0.0,0.0,0.0,0.0,0.0,-0.2646,-0.2305,-0.3787,-0.4296,-0.368,-0.3905,-0.3947,0.0,0.0,0.0,0.0,0.0,0.0,0.0,0.0,0.0,0.0,0.0,0.0,0.0,0.0,0.0,0.0,0.0,0.0,0.0,0.0,0.0,0.0,0.0,0.0,0.0,0.0,0.0,0.0,0.0,0.0,0.0,0.0,0.0,0.0,0.0,0.0,0.0,0.0,0.0,0.0,0.0,0.0,0.0,0.0,0.0,0.0,0.0,0.0,0.0,0.0,0.0,0.0,0.0,0.0,0.0,0.0,0.0,0.0,0.0,0.0,0.0,0.0,0.0,0.0,0.0,0.0,0.0,0.0,0.0,0.0,0.0,0.0,0.0,0.0,0.0,0.0,0.0,0.0,0.0,0.0,0.0,0.0,0.0,0.0,0.0,0.0,0.0,0.0,0.0,0.0,0.0,0.0,0.0,0.0,0.0,0.0,0.0,0.0,0.0,0.0,0.0,0.0,0.0,0.0,0.0,0.0,0.0,0.0,-0.2396,-0.2664,-0.3532,-0.4126,-0.4351,-0.4134,-0.3935,0.0,0.0,0.0,0.0,0.0,0.0,0.0,0.0,0.0,0.0,0.0,0.0,0.0,0.0,0.0,0.0,0.0,0.0,0.0,0.0,0.0,0.0,0.0,0.0,0.0,0.0,0.0,0.0,0.0,0.0,0.0,0.0,0.0,0.0,0.0,0.0,0.0,0.0,0.0,0.0,0.0,0.0,0.0,0.0,0.0,0.0,0.0,0.0,0.2504,0.0,0.0,0.0,0.0,0.0,0.0,0.0,0.0,0.0,0.0,0.0,0.0,0.0,0.0,0.0,0.0,0.0,0.0,0.0,0.0,0.0,0.0,0.0,0.0,0.0,0.0,0.0,0.0,0.0,0.0,0.0,0.0,0.0,0.0,0.0,0.0,0.0,0.0,0.0,0.0,0.0,0.0,0.0,0.0,0.0,0.0,0.0,0.0,0.0,0.0,0.0,0.0,0.0,0.0,0.0,0.0,0.0,0.0,0.0,-0.2247,-0.2314,-0.3348,-0.3863,-0.3766,-0.4009,-0.4053,0.0,0.0,0.0,0.0,0.0,0.0,0.0,0.0,0.0,0.0,0.0,0.0,0.0,0.0,0.0,0.0,0.0,0.0,0.0,0.0,0.0,0.0,0.0,0.0,0.0,0.0,0.0,0.0,0.0,0.0,0.0,0.0,0.0,0.0,0.0,0.0,0.0,0.0,0.0,0.0,0.0,0.0,0.0,0.0,0.0,0.0,0.0,0.0,0.0,0.0,0.0,0.0,0.0,0.0,0.0,0.0,0.0,0.0,0.0,0.0,0.0,0.0,0.0,0.0,0.0,0.0,0.0,0.0,0.0,0.0,0.0,0.0,0.0,0.0,0.0,0.0,0.0,0.0,0.0,0.0,0.0,0.0,0.0,0.0,0.0,0.0,0.0,0.0,0.0,0.0,0.0,0.0,0.0,0.0,0.0,0.0,0.0,0.0,0.0,0.0,0.0,0.0,0.0,0.0,0.0,0.0,0.0,-0.2032,-0.1977,-0.1785,-0.3118,-0.3601,-0.2991,-0.3847,-0.4235,-0.4061,0.0,0.0,0.0,0.0,0.0,0.0,0.0,0.0,0.0,0.0,0.0,0.0,0.0,0.0,0.0,0.0,0.0,0.0,0.0,0.0,0.0,0.0,0.0,0.0,0.0,0.0,0.0,0.0,0.0,0.0,0.0,0.0,0.0,0.0,0.0,0.0,0.0,0.0,0.218,0.207,0.0,0.0,0.0,0.0,0.0,0.0,0.0,0.0,0.3299,0.0,0.0,0.0,0.0,0.0,0.0,0.0,0.0,0.0,0.0,0.0,0.0,0.0,0.0,0.0,0.0,0.0,0.0,0.0,0.0,0.0,0.0,0.0,0.0,0.0,0.0,0.0,0.0,0.0,0.0,0.0,0.0,0.0,0.0,0.0,0.0,0.0,0.0,0.0,0.0,0.0,0.0,0.0,0.0,0.0,0.0,0.0,0.0,0.0,0.0,0.0,0.0,0.0,0.0,0.0,0.0,-0.1333,-0.1255,-0.1452,-0.1853,-0.2796,-0.3448,-0.3779,-0.4208,-0.4418,-0.4227,0.0,0.0,0.0,0.0,0.0,0.0,0.0,0.0,0.0,0.0,0.0,0.0,0.0,0.0,0.0,0.0,0.0,0.0,0.0,0.0,0.0,0.0,0.0,0.0,0.0,0.0,0.0,0.0,0.0,0.0,0.0,0.0,0.0,0.0,0.0,0.0,0.0,0.0,0.0,0.1964,0.1842,0.0,0.0,0.0,0.0,0.0,0.0,0.0,0.0,0.3531,0.0,0.0,0.0,0.0,0.0,0.0,0.0,0.0,0.0,0.0,0.0,0.0,0.0,0.0,0.0,0.0,0.0,0.0,0.0,0.0,0.0,0.0,0.0,0.0,0.0,0.0,0.0,0.0,0.0,0.0,0.0,0.0,0.0,0.0,0.0,0.0,0.0,0.0,0.0,0.0,0.0,0.0,0.0,0.0,0.0,0.0,0.0,0.0,0.0,0.0,0.0,0.0,0.0,0.0,0.0,-0.1326,-0.1191,-0.1297,-0.175,-0.2605,-0.3137,-0.3311,-0.4253,-0.4581,0.0,0.0,0.0,0.0,0.0,0.0,0.0,0.0,0.0,0.0,0.0,0.0,0.0,0.0,0.0,0.0,0.0,0.0,0.0,0.0,0.0,0.0,0.0,0.0,0.0,0.0,0.0,0.0,0.0,0.0,0.0,0.0,0.0,0.0,0.0,0.0,0.0,0.0,0.0,0.0,0.189,0.1814,0.172,0.0,0.0,0.0,0.0,0.0,0.0,0.2984,0.3291,0.0,0.0,0.0,0.0,0.0,0.0,0.0,0.0,0.0,0.0,0.0,0.0,0.0,0.0,0.0,0.0,0.0,0.0,0.0,0.0,0.0,0.0,0.0,0.0,0.0,0.0,0.0,0.0,0.0,0.0,0.0,0.0,0.0,0.0,0.0,0.0,0.0,0.0,0.0,0.0,0.0,0.0,0.0,0.0,0.0,0.0,0.0,0.0,0.0,0.0,0.0,0.0,0.0,0.0,0.0,-0.1249,-0.1163,-0.1276,-0.1539,-0.2438,-0.2871,-0.2802,-0.4077,-0.4667,0.0,0.0,0.0,0.0,0.0,0.0,0.0,0.0,0.0,0.0,0.0,0.0,0.0,0.0,0.0,0.0,0.0,0.0,0.0,0.0,0.0,0.0,0.0,0.0,0.0,0.0,0.0,0.0,0.0,0.0,0.0,0.0,0.0,0.0,0.0,0.0,0.0,0.0,0.0,0.0,0.0,0.1794,0.1847,0.1858,0.0,0.0,0.0,0.0,0.2502,0.2905,0.0,0.0,0.0,0.0,0.0,0.0,0.0,0.0,0.0,0.0,0.0,0.0,0.0,0.0,0.0,0.0,0.0,0.0,0.0,0.0,0.0,0.0,0.0,0.0,0.0,0.0,0.0,0.0,0.0,0.0,0.0,0.0,0.0,0.0,0.0,0.0,0.0,0.0,0.0,0.0,0.0,0.0,0.0,0.0,0.0,0.0,0.0,0.0,0.0,0.0,0.0,0.0,0.0,0.0,0.0,0.0,-0.0795,-0.0845,-0.0962,-0.1267,-0.2203,-0.2839,-0.3053,-0.392,-0.4401,0.0,0.0,0.0,0.0,0.0,0.0,0.0,0.0,0.0,0.0,0.0,0.0,0.0,0.0,0.0,0.0,0.0,0.0,0.0,0.0,0.0,0.0,0.0,0.0,0.0,0.0,0.0,0.0,0.0,0.0,0.0,0.0,0.0,0.0,0.0,0.0,0.0,0.0,0.0,0.0,0.0,0.1852,0.1963,0.2029,0.201,0.0,0.0,0.2329,0.1886,0.2545,0.0,0.0,0.0,0.0,0.0,0.0,0.0,0.0,0.0,0.0,0.0,0.0,0.0,0.0,0.0,0.0,0.0,0.0,0.0,0.0,0.0,0.0,0.0,0.0,0.0,0.0,0.0,0.0,0.0,0.0,0.0,0.0,0.0,0.0,0.0,0.0,0.0,0.0,0.0,0.0,0.0,0.0,0.0,0.0,0.0,0.0,0.0,0.0,0.0,0.0,0.0,0.0,0.0,0.0,0.0,-0.0497,-0.0837,-0.0862,-0.1024,-0.145,-0.2316,-0.3116,-0.3698,-0.4421,-0.4903,0.0,0.0,0.0,0.0,0.0,0.0,0.0,0.0,0.0,0.0,0.0,0.0,0.0,0.0,0.0,0.0,0.0,0.0,0.0,0.0,0.0,0.0,0.0,0.0,0.0,0.0,0.0,0.0,0.0,0.0,0.0,0.0,0.0,0.0,0.0,0.0,0.0,0.0,0.0,0.0,0.0,0.0,0.1993,0.2043,0.0,0.0,0.0,0.2267,0.2185,0.0,0.0,0.0,0.0,0.0,0.0,0.0,0.0,0.0,0.0,0.0,0.0,0.0,0.0,0.0,0.0,0.0,0.0,0.0,0.0,0.0,0.0,0.0,0.0,0.0,0.0,0.0,0.0,0.0,0.0,0.0,0.0,0.0,0.0,0.0,0.0,0.0,0.0,0.0,0.0,0.0,0.0,0.0,0.0,0.0,0.0,0.0,0.0,0.0,0.0,0.0,0.0,0.0,0.0,0.0,0.0,0.0,-0.0854,-0.0899,-0.1187,-0.174,-0.2569,-0.3429,-0.4335,-0.4938,0.0,0.0,0.0,0.0,0.0,0.0,0.0,0.0,0.0,0.0,0.0,0.0,0.0,0.0,0.0,0.0,0.0,0.0,0.0,0.0,0.0,0.0,0.0,0.0,0.0,0.0,0.0,0.3013,0.0,0.0,0.0,0.0,0.0,0.0,0.0,0.0,0.0,0.0,0.0,0.0,0.0,0.0,0.1972,0.1943,0.2018,0.2074,0.0,0.0,0.1935,0.2176,0.1616,0.0943,0.0,0.0,0.0,0.0,0.0,0.0,0.0,0.0,0.0,0.0,0.0,0.0,0.0,0.0,0.0,0.0,0.0,0.0,0.0,0.0,0.0,0.0,0.0,0.0,0.0,0.0,0.0,0.0,0.0,0.0,0.0,0.0,0.0,0.0,0.0,0.0,0.0,0.0,0.0,0.0,0.0,0.0,0.0,0.0,0.0,0.0,0.0,0.0,0.0,0.0,0.0,0.0,0.0,0.0,-0.0043,-0.0535,-0.0903,-0.1426,-0.2069,-0.2933,-0.381,-0.4737,-0.5415,-0.5839,0.0,0.0,0.0,0.0,0.0,0.0,0.0,0.0,0.0,0.0,0.0,0.0,0.0,0.0,0.0,0.0,0.0,0.0,0.0,0.0,0.0,0.0,0.0,0.0,0.0,0.0,0.0,0.0,0.0,0.0,0.0,0.0,0.0,0.0,0.0,0.0,0.0,0.0,0.0,0.0,0.0,0.1935,0.1838,0.1925,0.2026,0.0,0.1594,0.1253,0.1432,0.1332,0.0899,-0.0,0.0,0.0,0.0,0.0,0.0,0.0,0.0,0.0,0.0,0.0,0.0,0.0,0.0,0.0,0.0,0.0,0.0,0.0,0.0,0.0,0.0,0.0,0.0,0.0,0.0,0.0,0.0,0.0,0.0,0.0,0.0,0.0,0.0,0.0,0.0,0.0,0.0,0.0,0.0,0.0,0.0,0.0,0.0,0.0,0.0,0.0,0.0,0.0,0.0,0.0,0.0,0.0,0.0,-0.0212,-0.069,-0.1258,-0.1834,-0.2463,-0.353,-0.4467,-0.5344,-0.5817,-0.6295,0.0,0.0,0.0,0.0,0.0,0.0,0.0,0.0,0.0,0.0,0.0,0.0,0.0,0.0,0.0,0.0,0.0,0.0,0.0,0.0,0.0,0.0,0.0,0.0,0.0,0.0,0.0,0.0,0.2613,0.2532,0.2542,0.0,0.0,0.0,0.0,0.0,0.0,0.0,0.0,0.0,0.0,0.1411,0.1202,0.1401,0.0,0.0,0.1605,0.1372,0.0437,0.0217,0.0075,-0.0144,-0.0204,0.0,0.0,0.0,0.0,0.0,0.0,0.0,0.0,0.0,0.0,0.0,0.0,0.0,0.0,0.0,0.0,0.0,0.0,0.0,0.0,0.0,0.0,0.0,0.0,0.0,0.0,0.0,0.0,0.0,0.0,0.0,0.0,0.0,0.0,0.0,0.0,0.0,0.0,0.0,0.0,0.0,0.0,0.0,0.0,0.0,0.0,0.0,0.0,0.0,0.0,0.0,0.0,-0.0686,-0.0944,-0.1719,-0.2449,-0.3115,-0.4226,-0.5197,-0.6066,-0.6437,-0.686,0.0,0.0,0.0,0.0,0.0,0.0,0.0,0.0,0.0,0.0,0.0,0.0,0.0,0.0,0.0,0.0,0.0,0.0,0.0,0.0,0.0,0.0,0.0,0.0,0.0,0.0,0.0,0.0,0.2269,0.2056,0.2004,0.0,0.0,0.0,0.0,0.0,0.0,0.0,0.0,0.0,0.0,0.0729,0.0591,0.0775,0.0895,0.0689,0.1054,0.0947,-0.0201,-0.0572,-0.0711,-0.0621,0.0,0.0,0.0,0.0,0.0,0.0,0.0,0.0,0.0,0.0,0.0,0.0,0.0,0.0,0.0,0.0,0.0,0.0,0.0,0.0,0.0,0.0,0.0,0.0,0.0,0.0,0.0,0.0077,0.0,0.0,-0.0429,0.0,0.0,0.0,0.0,0.0,0.0,0.0,0.0,0.0,0.0,0.0,0.0,0.0,0.0,0.0,0.0,0.0,0.0,0.0,0.0,0.0,0.0,-0.1471,-0.134,-0.2347,-0.3314,-0.4132,-0.4988,-0.5897,-0.691,-0.7224,-0.7503,-0.7753,0.0,0.0,0.0,0.0,0.0,0.0,0.0,0.0,0.0,0.0,0.0,0.0,0.0,0.0,0.0,0.0,0.0,0.0,0.0,0.0,0.0,0.0,0.0,0.0,0.0,0.0,0.2128,0.1803,0.1508,0.0,0.0,0.0,0.0,0.0,0.0,0.0,0.0,0.0,0.0372,0.0103,-0.0037,-0.0,0.0068,-0.0,-0.0326,-0.0313,-0.0279,-0.0421,-0.0902,-0.1339,0.0,0.0,0.0,0.0,0.0,0.0,0.0,0.0,0.0,0.0,0.0,0.0,0.0,0.0,0.0,0.0,0.0,0.0,0.0,0.0,0.0,0.0,0.0,0.0,0.0,0.0,0.0,-0.2835,-0.2745,0.0,0.0,0.0,0.0,0.0,0.0,0.0,0.0,0.0,0.0,0.0,-0.2248,-0.285,0.0,0.0,0.0,0.0,0.0,0.0,0.0,0.0,0.0,0.0,0.0,0.0,-0.2228,-0.2273,-0.3413,-0.423,-0.4596,-0.5767,-0.6581,-0.6901,-0.728,-0.7596,-0.787,0.0,0.0,0.0,0.0,0.0,0.0,0.0,0.0,0.0,0.0,0.0,0.0,0.0,0.0,0.0,0.0,0.0,0.0,0.0,0.0,0.0,0.0,0.0,0.0,0.0,0.1876,0.0,0.0,0.0,0.0,0.0,0.0,0.0,0.0,0.0,0.0,0.0405,0.0139,-0.0235,-0.0468,-0.0655,-0.0897,-0.0887,-0.0922,0.0,0.0,0.0,0.0,0.0,0.0,0.0,0.0,0.0,0.0,0.0,0.0,0.0,0.0,-0.1154,0.0341,0.0575,0.0454,0.0182,0.0,0.0,0.0,0.0,0.0,0.0,0.0,0.0,0.0,0.0,0.0,0.0,0.0,0.0,-0.4626,-0.4499,-0.4223,0.0,0.0,0.0,0.0,0.0,0.0,0.0,0.0,-0.3447,-0.3955,-0.4275,-0.5171,-0.5624,-0.5712,-0.5774,-0.5162,0.0,0.0,0.0,0.0,0.0,0.0,0.0,0.0,-0.3398,-0.3449,-0.4754,-0.556,-0.575,-0.6736,-0.7325,-0.7373,-0.7574,-0.7752,-0.7877,-0.7756,-0.7304,0.0,0.0,0.0,0.0,0.0,0.0,0.0,0.0,0.0,0.0,0.0,0.0,0.0,0.0,0.0,0.0,0.0,0.0,0.0,0.0,0.0,0.0,0.0,0.1188,0.0,0.0,0.0,0.0,0.0,0.0,0.0,0.0,0.0,-0.0068,-0.0427,-0.0812,-0.0981,-0.1235,-0.1455,-0.1468,0.0,0.0,0.0,0.0,0.0,0.0,0.0,-0.2366,-0.233,-0.2495,-0.2731,-0.2893,-0.3081,-0.3112,-0.2825,0.0,0.0,-0.0821,-0.064,-0.0847,-0.0987,-0.1291,-0.1538,-0.1486,-0.1701,-0.188,0.0,0.0,0.0,0.0,-0.5808,0.0,0.0,0.0,-0.6197,-0.589,0.0,-0.5624,0.0,0.0,0.0,0.0,-0.4177,-0.4345,0.0,0.0,-0.5548,-0.585,-0.6151,-0.664,-0.6976,-0.7265,-0.7997,-0.8234,-0.7868,-0.5808,0.0,0.0,0.0,0.0,0.0,0.0,-0.5024,-0.4853,-0.6307,-0.7259,-0.7491,-0.7842,-0.8101,-0.8179,-0.8105,-0.7971,-0.7874,-0.8175,-0.7923,-0.7014,-0.6053,0.0,0.0,0.0,0.0,0.0,0.0,0.0,0.0,0.0,0.0,0.0,0.0,0.0,0.0,0.0,0.0,0.0,0.0,0.0,0.0,0.0587,0.0,0.0,0.0,0.0,0.0,0.0,0.0,0.0,0.0,-0.1886,-0.1119,-0.1402,-0.1727,-0.1798,0.0,0.0,0.0,0.0,-0.2377,-0.1839,-0.1782,-0.1817,-0.1872,-0.2301,-0.2676,-0.2926,0.0,0.0,-0.3392,-0.3821,-0.389,-0.2982,-0.338,-0.3609,-0.2941,-0.2773,-0.2693,-0.2461,-0.2761,-0.3003,-0.2773,-0.2989,-0.3212,-0.9689,0.0,0.0,0.0,0.0,-0.9225,-0.9592,-0.9719,-0.9291,-0.8962,-0.8773,-0.845,0.0,0.0,0.0,0.0,0.0,0.0,-0.5973,-0.6471,-0.6778,-0.7695,-0.9118,-0.918,-0.9665,-1.0501,-1.0724,-1.0781,-1.0691,-0.9776,-0.8125,-0.5901,0.0,0.0,0.0,0.0,-0.6314,-0.6577,-0.7329,-0.7808,-0.7855,-0.8294,-0.8493,-0.8553,-0.8725,-0.8842,-0.8793,-0.8984,-0.8726,-0.795,-0.6504,0.0,0.0,0.0,0.0,0.0,0.0,0.0,0.0,0.0,0.0,0.0,0.0,0.0,0.0,0.0,0.0,0.0,0.0,0.0,0.0254,-0.0107,-0.0456,0.0,0.0,0.0,0.0,0.0,0.0,0.0,0.0,0.0,-0.2956,-0.2547,-0.2261,0.0,0.0,-0.2502,-0.2377,-0.2546,-0.2698,-0.2714,-0.3055,0.0,-0.3363,-0.3641,-0.3842,-0.3777,-0.4087,-0.4224,-0.3848,-0.4131,-0.4381,-0.4201,-0.4238,-0.4299,-0.4376,-0.3872,-0.3488,-0.334,-0.3602,-0.3856,-0.4049,-0.4018,-0.4036,-1.3056,-1.1248,-1.0839,-1.0889,-1.1315,-1.1668,-1.2167,-1.2637,-1.2061,-1.1697,-1.1474,-1.1023,-1.0417,-0.9706,-0.8507,0.0,0.0,0.0,-0.7719,-0.85,-0.8897,-0.9739,-1.0927,-1.1293,-1.1789,-1.2422,-1.2572,-1.2564,-1.2414,-1.1818,-1.0506,-0.8601,0.0,-0.738,-0.7262,-0.751,-0.793,-0.8427,-0.8955,-0.9272,-0.9272,-0.9446,-0.9534,-0.9534,-0.9366,-0.9316,-0.9316,-0.9327,-0.9098,-0.8593,-0.7077,-0.5418,0.0,0.0,0.0,0.0,0.0,0.0,0.0,0.0,0.0,0.0,0.0,0.0584,0.101,0.0,0.0,0.0,0.0425,-0.0117,-0.0633,-0.0758,0.0,0.0,0.0,0.0,0.0,0.0,0.0,-0.3712,-0.4168,-0.4424,-0.4296,-0.4049,-0.3698,-0.3101,-0.3026,-0.3035,-0.3209,0.0,-0.3234,-0.3339,-0.3908,-0.4242,-0.4022,-0.462,-0.5009,-0.4779,-0.4743,-0.465,-0.4378,-0.4709,-0.5078,-0.5227,-0.5381,-0.5494,-0.5407,-0.5137,-0.48,-0.4483,-0.4746,-0.5063,-0.5254,-0.5091,-0.4996,-1.5899,-1.4745,-1.3179,-1.2949,-1.3645,-1.379,-1.4291,-1.4904,-1.444,-1.3932,-1.3435,-1.3208,-1.2522,-1.1352,-0.9873,0.0,-1.0044,-0.9485,-0.9868,-1.1009,-1.1455,-1.1809,-1.2083,-1.2985,-1.3414,-1.3468,-1.3737,-1.3784,-1.3405,-1.2574,-1.1948,-1.1538,-1.026,-0.9152,-0.8396,-0.9059,-0.9671,-1.0173,-1.0806,-1.12,-1.12,-1.0974,-1.0841,-1.0793,-0.999,-0.9594,-0.9556,-0.9335,-0.9154,-0.9004,-0.7647,-0.5589,-0.2897,0.0,0.0,0.0,0.0,0.0,0.0,0.0,0.0,0.0,0.0,0.0,0.0,0.0,0.0,0.0131,-0.1005,0.0,-0.1865,-0.1457,0.0,0.0,0.0,-0.71,-0.5491,-0.4983,-0.4874,-0.5209,0.0,0.0,-0.5255,-0.5743,-0.5614,-0.4416,-0.4005,-0.3924,-0.4076,-0.4152,-0.4061,-0.3981,-0.4577,-0.4865,-0.4466,-0.5331,-0.5976,-0.5755,-0.5477,-0.5142,-0.499,-0.5353,-0.5808,-0.5841,-0.6523,-0.6812,-0.611,-0.6447,-0.6616,-0.5864,-0.6022,-0.6303,-0.6151,-0.601,-0.5925,-1.7503,-1.7232,-1.6815,-1.6088,-1.5254,-1.5731,-1.5836,-1.5669,-1.5534,-1.4956,-1.4086,-1.4307,-1.3998,-1.329,-1.2917,-1.265,-1.235,-1.16,-1.1839,-1.2814,-1.2212,-1.272,-1.4121,-1.412,-1.4378,-1.4785,-1.4893,-1.4883,-1.482,-1.4233,-1.3705,-1.3203,-1.2432,-1.1382,-1.0194,-1.0364,-1.0588,-1.0914,-1.1107,-1.1209,-1.1209,-1.1115,-1.113,-1.1072,-1.0498,-1.0208,-1.0208,-0.9723,-0.9504,-0.9409,-0.7681,-0.6713,-0.6832,-0.5352,0.0,0.0,0.0,0.0,0.0,0.0,0.0,0.0,0.0,-0.1514,-0.037,0.0,-0.1791,0.0,-0.2617,-0.3187,-0.4016,-0.3314,0.0,0.0,-0.7355,-0.7976,-0.6661,-0.6086,-0.5985,-0.6409,-0.6586,-0.6661,-0.6602,-0.6745,-0.6667,-0.6256,-0.5669,-0.5145,-0.4902,-0.5253,-0.5505,-0.5555,-0.6081,-0.6476,-0.6197,-0.6367,-0.6542,-0.6374,-0.593,-0.5586,-0.5487,-0.5632,-0.5767,-0.591,-0.6303,-0.6649,-0.6781,-0.7171,-0.743,-0.7274,-0.6901,-0.6436,-0.6248,-0.6268,-0.6504,-1.8321,-1.8147,-1.862,-1.8195,-1.7226,-1.7576,-1.7678,-1.7627,-1.711,-1.6638,-1.6202,-1.5721,-1.5198,-1.4676,-1.4145,-1.3831,-1.3608,-1.2996,-1.3094,-1.3803,-1.3473,-1.3887,-1.5021,-1.5042,-1.5229,-1.5598,-1.5598,-1.5588,-1.5568,-1.5134,-1.474,-1.4449,-1.3912,-1.3218,-1.2429,-1.1544,-1.1238,-1.1646,-1.1646,-1.1737,-1.1959,-1.1959,-1.1877,-1.1655,-1.11,-1.0688,-1.0287,-0.9725,-0.9388,-0.921,-0.7896,-0.714,-0.7058,-0.67,-0.5724,0.0,0.0,0.0,0.0,0.0,0.0,0.0,0.0,0.0,0.0,0.0,-0.3864,-0.4357,-0.4779,-0.5168,-0.548,-0.5044,-0.54,-0.6884,-0.811,-0.8525,-0.781,-0.7283,-0.7075,-0.7333,-0.7457,-0.7546,-0.7448,-0.7759,-0.7756,-0.7422,-0.7224,-0.6823,-0.6149,-0.6211,-0.6379,-0.6422,-0.702,-0.7532,-0.7644,-0.7355,-0.7121,-0.7075,-0.679,-0.6425,-0.6177,-0.6326,-0.6523,-0.6635,-0.7012,-0.7342,-0.7471,-0.7887,-0.8099,-0.7635,-0.7546,-0.7469,-0.7382,-0.7303,-0.7486,-1.8815,-1.8417,-1.9371,-1.95,-1.9105,-1.9093,-1.9344,-1.9604,-1.8578,-1.8216,-1.8308,-1.7016,-1.6129,-1.5577,-1.4572,-1.4318,-1.4553,-1.3976,-1.3996,-1.4501,-1.4796,-1.5099,-1.541,-1.5788,-1.5972,-1.5982,-1.5972,-1.5972,-1.5951,-1.5624,-1.5401,-1.532,-1.4945,-1.4626,-1.4377,-1.2624,-1.1931,-1.2258,-1.2209,-1.2412,-1.2783,-1.2744,-1.2529,-1.2122,-1.1621,-1.0992,-1.0237,-0.9665,-0.9205,-0.8889,-0.8377,-0.7514,-0.6272,-0.765,-0.7595,0.0,-0.7223,0.0,0.0,0.0,0.0,0.0,0.0,0.0,0.0,-0.5228,-0.6314,-0.6211,-0.6987,-0.7254,-0.6678,-0.674,-0.7205,-0.8169,-0.8595,-0.8813,-0.8778,-0.8362,-0.8031,-0.8031,-0.8131,-0.8184,-0.8131,-0.8626,-0.8732,-0.8196,-0.8376,-0.8319,-0.7576,-0.7188,-0.7104,-0.707,-0.7565,-0.8199,-0.8541,-0.8158,-0.7774,-0.7951,-0.768,-0.7371,-0.6815,-0.7149,-0.753,-0.755,-0.793,-0.8306,-0.8053,-0.8421,-0.8427,-0.7616,-0.8184,-0.8705,-0.8554,-0.8403,-0.8454,-1.9592,-1.9488,-1.9695,-1.9759,-1.9643,-1.9656,-1.9448,-1.9081,-1.8429,-1.7634,-1.6839,-1.6549,-1.6327,-1.6182,-1.5976,-1.5976,-1.6001,-1.5351,-1.54,-1.5951,-1.5526,-1.5584,-1.6144,-1.6259,-1.6316,-1.6327,-1.6327,-1.6327,-1.6327,-1.6234,-1.5997,-1.5625,-1.5423,-1.5144,-1.4714,0.0,0.0,0.0,-1.2402,-1.2219,-1.2287,-1.2002,-1.1812,-1.1689,-1.1182,0.0,-1.0669,-1.0157,-0.9848,-0.9732,-0.9224,0.0,0.0,0.0,0.0,0.0,0.0,0.0,0.0,0.0,0.0,0.0,-0.7943,-0.7209,-0.7005,-0.8163,-0.8635,-0.7814,-0.8209,-0.8443,-0.8352,-0.8333,-0.8436,-0.8659,-0.8776,-0.8803,-0.8804,-0.8798,-0.8791,-0.8791,-0.8896,-0.8995,-0.8942,-0.9106,-0.9054,-0.8844,-0.8903,-0.8903,-0.8633,-0.8423,-0.8403,-0.8462,-0.8495,-0.8692,-0.8956,-0.8692,-0.8495,-0.8573,-0.8171,-0.7715,-0.744,-0.761,-0.775,-0.7587,-0.8184,-0.8672,-0.8633,-0.8752,-0.8758,-0.848,-0.9001,-0.9145,-0.8296,-0.8255,-0.8494,-1.9798,-1.9798,-1.9798,-1.9798,0.0,-1.9798,-1.9656,-1.9344,-1.8471,-1.7457,-1.6431,-1.6374,-1.6374,-1.6374,-1.6374,-1.6374,-1.6384,-1.6019,-1.6077,-1.6384,-1.6077,-1.6077,-1.6374,-1.6374,-1.6374,-1.6374,-1.6374,-1.6374,-1.6374,-1.6374,-1.626,-1.6032,-1.5966,-1.5786,-1.543,-1.4787,-1.4031,-1.3017,-1.2704,-1.2549,-1.2539,-1.2371,-1.2207,-1.2217,-1.1976,0.0,0.0,0.0,0.0,0.0,0.0,0.0,0.0,-1.1195,0.0,-1.1892,-1.1146,-1.0818,-1.0973,-1.0753,-1.0786,-1.1284,-1.0922,-1.0277,-0.9318,-0.985,-0.984,-0.9079,-0.8918,-0.891,-0.9008,-0.8949,-0.8956,-0.8949,-0.8956,-0.8956,-0.8956,-0.9001,-0.9054,-0.9113,-0.9211,-0.9263,-0.9204,-0.9263,-0.9211,-0.9106,-0.9113,-0.9106,-0.9113,-0.891,-0.8811,-0.891,-0.8956,-0.9008,-0.9015,-0.8962,-0.8857,-0.8745,-0.8533,-0.8254,-0.7999,-0.8069,-0.8114,-0.7987,-0.8344,-0.8624,-0.8778,-0.8804,-0.8857,-0.9113,-0.9211,-0.9152,-0.8771,-0.8871,-0.8926,-1.9798,-1.9798,-1.9798,-1.9798,-1.9798,-1.9798,-1.9695,-1.9423,-1.8525,0.0,0.0,-1.6374,-1.6374,-1.6374,-1.6374,-1.6374,-1.6374,-1.6374,-1.6374,-1.6374,-1.6374,-1.6374,-1.6374,-1.6374,-1.6374,-1.6374,-1.6374,-1.6374,-1.6374,-1.6374,-1.6374,-1.6374,-1.6374,-1.6306,-1.6104,-1.5532,-1.466,-1.3541,-1.3125,-1.2929,-1.2929,-1.2851,-1.2841,-1.2881,-1.2891,-1.2725,-1.2363,-1.2314,-1.2157,-1.1859,-1.2162,-1.2535,-1.2945,-1.3013,-1.3129,-1.3314,-1.2961,-1.2828,-1.3072,-1.3098,-1.3227,-1.3494,-1.3442,-1.2704,-1.1202,-1.1048,-1.0825,-1.0301,-0.9824,-0.9542,-0.948,-0.9411,-0.9358,-0.9309,-0.9256,-0.9204,-0.9152,-0.9145,-0.9204,-0.9256,-0.9465,-0.951,-0.9316,-0.9465,-0.951,-0.9413,-0.9413,-0.9406,-0.9413,-0.9159,-0.8962,-0.9054,-0.9166,-0.9159,-0.9113,-0.9008,-0.8962,-0.8857,-0.8804,-0.8684,-0.8404,-0.8343,-0.84,-0.8277,-0.8423,-0.8694,-0.894,-0.9113,-0.9211,-0.9658,-0.9517,-0.9316,-0.9614,-0.9821,-0.971,-1.9811,-1.9798,-1.9798,-1.9798,-1.9798,-1.9798,-1.9214,-1.8363,-1.8147,-1.7457,-1.6374,-1.6374,-1.6374,-1.6374,-1.6374,-1.6374,-1.6374,-1.6374,-1.6374,-1.6374,-1.6374,-1.6374,-1.6374,-1.6374,-1.6374,-1.6374,-1.6374,-1.6374,-1.6374,-1.6374,-1.6374,-1.6374,-1.6374,-1.6374,-1.6316,-1.6053,-1.569,-1.5165,-1.3791,-1.3085,-1.3075,-1.2679,-1.2622,-1.291,-1.29,-1.2881,-1.2822,-1.2803,-1.2774,-1.2735,-1.2786,-1.2931,-1.3292,-1.3978,-1.4146,-1.3703,-1.345,-1.3374,-1.3417,-1.3434,-1.3451,-1.3502,-1.3855,-1.3786,-1.3183,-1.2637,-1.2151,-1.1656,-1.1566,-1.1345,-1.0688,-1.0475,-1.0302,-1.0037,-0.9524,-0.9263,-0.9382,-0.9442,-0.948,-0.9465,-0.988,-1.0087,-0.9718,-0.9984,-1.0182,-1.0123,-1.0064,-1.0167,-1.0269,-0.9762,-0.9263,-0.9309,-0.9263,-0.9256,-0.9413,-0.9159,-0.9106,-0.8956,-0.8949,-0.8714,-0.8192,-0.8384,-0.8482,-0.8235,-0.8763,-0.922,-0.9607,-0.9961,-1.0115,-1.032,-1.049,-1.0643,-1.0372,-1.0635,-1.0651,-2.0451,-2.0665,-2.0388,-2.0275,-2.025,-1.9624,-1.9024,-1.8428,-1.7867,-1.7179,-1.6431,-1.6374,-1.6374,-1.6374,-1.6374,-1.6374,-1.6374,-1.6374,-1.6374,-1.6374,-1.6374,-1.6374,-1.6374,-1.6374,-1.6374,-1.6374,-1.6374,-1.6374,-1.6374,-1.6374,-1.6374,-1.6374,-1.6374,-1.6374,-1.6374,-1.6181,-1.5946,-1.5625,-1.4742,-1.4172,-1.384,-1.3571,-1.3629,-1.3896,-1.3916,-1.4023,-1.4248,-1.4258,-1.4321,-1.4429,-1.4321,-1.4395,-1.4646,-1.5429,-1.5618,-1.5168,-1.5352,-1.5361,-1.5021,-1.5031,-1.4855,-1.4569,-1.504,-1.5099,-1.4547,-1.3637,-1.2917,-1.2436,-1.21,-1.1868,-1.1682,-1.1121,-1.0473,-0.9911,-1.0469,-1.0574,-0.9865,-1.0569,-1.0834,-1.0293,-1.0525,-1.0753,-1.0482,-1.0702,-1.0804,-1.0736,-1.0736,-1.0838,-1.0981,-1.0635,-1.0277,-1.0261,-1.0277,-1.0277,-1.0269,-1.0167,-0.9969,-0.9614,-0.957,-0.9313,-0.8817,-0.8974,-0.9246,-0.9212,-0.9653,-1.0058,-1.0305,-1.0415,-1.0626,-1.0939,-1.0889,-1.0889,-1.099,-1.1209,-1.1057,-2.0916,-2.1255,-2.0978,-2.0723,-2.0387,-1.9257,-1.8733,-1.851,-1.771,-1.7113,-1.6711,-1.6477,-1.6374,-1.6374,-1.6374,-1.6374,-1.6374,-1.6374,-1.6436,-1.6519,-1.6436,-1.6483,-1.667,-1.655,-1.6488,-1.6534,-1.6488,-1.6374,-1.6374,-1.6374,-1.6374,-1.6431,-1.6534,-1.6534,-1.6374,-1.6343,-1.6177,-1.5866,-1.5669,-1.5224,-1.464,-1.4576,-1.4721,-1.5015,-1.4978,-1.5145,-1.5449,-1.5584,-1.5768,-1.5836,-1.5631,-1.5726,-1.6114,-1.6658,-1.6818,-1.6652,-1.6978,-1.6978,-1.6585,-1.6472,-1.6322,-1.6009,-1.6151,-1.6208,-1.5864,-1.4697,-1.3766,-1.3288,-1.2793,-1.2582,-1.2671,-1.1982,-1.1118,-1.0767,-1.1647,-1.2066,-1.1247,-1.1956,-1.2184,-1.1208,-1.1294,-1.1472,-1.1276,-1.1301,-1.141,-1.141,-1.151,-1.156,-1.1551,-1.1551,-1.1551,-1.1443,-1.1292,-1.1099,-1.1082,-1.0965,-1.0712,-1.0261,-1.0274,-0.9945,-0.9616,-0.9811,-1.0075,-0.9995,-1.0417,-1.0864,-1.0981,-1.1082,-1.1292,-1.161,-1.1451,-1.1283,-1.166,-1.1728,-1.1569,-2.0769,-2.0869,-2.123,-2.0828,-1.9763,-1.8651,-1.8125,-1.8005,-1.7879,-1.7728,-1.7471,-1.6746,-1.6394,-1.6374,-1.6374,-1.6374,-1.6374,-1.6374,-1.6591,-1.6891,-1.657,-1.6859,-1.7651,-1.6859,-1.6637,-1.7088,-1.6669,-1.653,-1.6472,-1.6384,-1.6374,-1.6477,-1.6899,-1.6888,-1.6534,-1.6888,-1.6866,-1.6368,-1.6312,-1.5971,-1.5355,-1.5169,-1.5345,-1.5776,-1.5671,-1.5633,-1.573,-1.6181,-1.6446,-1.6425,-1.6073,-1.6377,-1.7291,-1.7302,-1.7246,-1.7268,-1.7257,-1.7146,-1.7146,-1.7146,-1.719,-1.7456,-1.6751,-1.6684,-1.7333,-1.6093,-1.5071,-1.4628,-1.4424,-1.4167,-1.3946,-1.3383,-1.3131,-1.334,-1.3004,-1.3058,-1.4157,-1.3451,-1.2292,-1.179,-1.2243,-1.2265,-1.153,-1.1719,-1.1977,-1.2017,-1.2323,-1.2529,-1.2578,-1.2578,-1.2578,-1.2471,-1.1909,-1.1301,-1.125,-1.1082,-1.1074,-1.0956,-1.083,-1.0491,-1.0136,-1.015,-1.0354,-1.0509,-1.0754,-1.1411,-1.1751,-1.2017,-1.2274,-1.2224,-1.2215,-1.2274,-1.2372,-1.2382,-1.2224,-2.1343,-2.1631,-2.1156,-2.0101,-1.8791,-1.8204,-1.7977,-1.7865,-1.7477,-1.7476,-1.7667,-1.7336,-1.7036,-1.6767,-1.6508,-1.6374,-1.6394,-1.6643,-1.687,-1.7046,-1.7514,-1.7997,-1.8316,-1.8489,-1.8552,-1.8622,-1.786,-1.7442,-1.7284,-1.6728,-1.6374,-1.6477,-1.6944,-1.7101,-1.6944,-1.7435,-1.76,-1.7401,-1.7401,-1.7291,-1.6994,-1.6488,-1.6156,-1.5941,-1.6181,-1.6332,-1.6389,-1.6616,-1.6899,-1.7146,-1.7026,-1.7071,-1.749,-1.7998,-1.813,-1.7843,-1.7765,-1.7754,-1.7699,-1.7699,-1.7534,-1.7124,-1.7302,-1.7357,-1.7113,-1.6687,-1.6275,-1.5735,-1.5315,-1.501,-1.4817,-1.4359,-1.4289,-1.4704,-1.4449,-1.4524,-1.5257,-1.4496,-1.367,-1.3266,-1.3166,-1.2925,-1.2426,-1.2431,-1.2578,-1.2578,-1.2783,-1.2891,-1.2891,-1.2891,-1.2891,-1.2832,-1.2471,-1.2274,-1.2166,-1.2166,-1.1999,-1.1706,-1.1643,-1.1386,-1.0883,-1.1102,-1.1426,-1.1205,-1.1715,-1.2148,-1.2433,-1.248,-1.2627,-1.2627,-1.2627,-1.2627,-1.2725,-1.2676,-1.2578,-2.1356,-2.1568,-2.0567,-1.939,-1.8261,-1.7997,-1.7817,-1.7712,-1.7547,-1.7659,-1.7874,-1.8142,-1.8033,-1.7609,-1.7012,-1.6757,-1.6788,-1.7256,-1.7525,-1.7761,-1.8567,-1.913,-1.9422,-1.9618,-1.9796,-1.9622,-1.8632,-1.7937,-1.7575,-1.6884,-1.6488,-1.6694,-1.7168,-1.7479,-1.7534,-1.8038,-1.8255,-1.8093,-1.8093,-1.8093,-1.8038,-1.771,-1.7234,-1.6627,-1.6888,-1.709,-1.709,-1.7268,-1.7534,-1.7918,-1.8004,-1.8058,-1.7995,-1.8654,-1.8827,-1.8398,-1.8333,-1.8321,-1.8321,-1.8201,-1.7775,-1.7148,-1.7423,-1.7379,-1.6937,-1.6925,-1.681,-1.6348,-1.5911,-1.5671,-1.5361,-1.4902,-1.4838,-1.5302,-1.5408,-1.5405,-1.5359,-1.5059,-1.4537,-1.4162,-1.3667,-1.335,-1.2998,-1.2891,-1.2891,-1.2881,-1.2881,-1.2891,-1.2891,-1.2891,-1.2891,-1.2891,-1.2881,-1.2881,-1.2891,-1.2832,-1.2686,-1.253,-1.232,-1.2149,-1.1724,-1.2062,-1.2239,-1.1902,-1.2541,-1.2842,-1.2774,-1.2783,-1.2735,-1.2783,-1.2735,-1.2783,-1.2832,-1.2783,-1.2783,-2.0173,-2.0401,-1.9205,-1.872,-1.8654,-1.8167,-1.7595,-1.7332,-1.8256,-1.8588,-1.8554,-1.9199,-1.9403,-1.9182,-1.8216,-1.7657,-1.7759,-1.8369,-1.884,-1.9219,-1.9621,-2.0311,-2.1117,-2.0264,-1.9888,-1.9993,-1.9011,-1.7824,-1.6707,-1.6612,-1.6786,-1.7146,-1.7699,-1.8038,-1.8147,-1.8643,-1.8709,-1.8255,-1.8201,-1.8147,-1.8201,-1.8643,-1.859,-1.8038,-1.7918,-1.7852,-1.7918,-1.8363,-1.8685,-1.8661,-1.8955,-1.9242,-1.9251,-1.9251,-1.9158,-1.8934,-1.8881,-1.8881,-1.8762,-1.8321,-1.7984,-1.7863,-1.7079,-1.6631,-1.7102,-1.6957,-1.6698,-1.6368,-1.6472,-1.6197,-1.5535,-1.5074,-1.4956,-1.5273,-1.5371,-1.5387,-1.5391,-1.5028,-1.4607,-1.417,-1.3748,-1.3369,-1.2969,-1.2891,-1.2891,-1.2891,-1.2891,-1.2891,-1.2891,-1.2891,-1.2891,-1.2891,-1.2891,-1.2891,-1.2891,-1.2891,-1.2881,-1.2803,-1.2686,-1.2695,-1.2578,-1.2471,-1.2451,-1.2471,-1.2705,-1.2842,-1.2871,-1.2891,-1.2881,-1.2881,-1.2881,-1.2881,-1.2881,-1.2881,-1.2891,-1.9618,-1.9361,-1.9253,-1.9004,-1.8709,-1.8538,-1.8395,-1.8324,-1.8975,-1.9233,-1.9326,-2.0171,-2.0563,-2.0459,-2.005,-1.9554,-1.9104,-1.9569,-1.9889,-2.0132,-2.086,-2.1463,-2.1777,-2.1825,-2.1905,-2.1743,-2.0911,-1.9495,-1.7829,-1.7331,-1.7224,-1.7446,-1.7984,-1.8352,-1.875,-1.9291,-1.95,-1.9226,-1.9214,-1.9162,-1.9162,-1.9384,-1.9384,-1.9162,-1.8792,-1.859,-1.859,-1.875,-1.891,-1.9133,-1.9482,-1.9506,-1.93,-1.9291,-1.9078,-1.8583,-1.8348,-1.813,-1.7875,-1.7644,-1.7534,-1.7479,-1.7146,-1.6925,-1.7181,-1.7291,-1.7368,-1.7313,-1.6856,-1.6415,-1.611,-1.5766,-1.5622,-1.538,-1.5176,-1.5133,-1.5269,-1.5058,-1.4615,-1.4169,-1.3763,-1.3437,-1.3271,-1.3057,-1.2891,-1.2891,-1.2891,-1.2891,-1.2891,-1.2891,-1.2891,-1.2891,-1.2891,-1.2891,-1.2891,-1.2891,-1.2891,-1.2891,-1.2852,-1.2822,-1.2744,-1.2715,-1.2686,-1.2666,-1.2832,-1.2861,-1.2891,-1.2891,-1.2891,-1.2891,-1.2891,-1.2891,-1.2891,-1.2891,-1.2891,-1.9007,-1.8566,-1.936,-1.9454,-1.9033,-1.9423,-1.9414,-1.9321,-1.9923,-2.0112,-2.0095,-2.1087,-2.1513,-2.1479,-2.169,-2.1533,-2.0902,-2.0946,-2.107,-2.1307,-2.2283,-2.2701,-2.2763,-2.3206,-2.3273,-2.2752,-2.1758,-2.031,-1.8815,-1.8024,-1.7969,-1.84,-1.8565,-1.8845,-1.9344,-1.9823,-1.9978,-1.9862,-1.9798,-1.9798,-1.9798,-1.9798,-1.9798,-1.9747,-1.9448,-1.9239,-1.9251,-1.9133,-1.9186,-1.9537,-1.9676,-1.9531,-1.9141,-1.8964,-1.8651,-1.8041,-1.7623,-1.7368,-1.7213,-1.7213,-1.7202,-1.7202,-1.7058,-1.7037,-1.7203,-1.7556,-1.7788,-1.7722,-1.749,-1.6978,-1.6698,-1.6585,-1.6255,-1.5555,-1.5156,-1.4846,-1.4654,-1.4644,-1.4505,-1.4199,-1.3896,-1.3691,-1.3506,-1.3252,-1.3057,-1.292,-1.2891,-1.2891,-1.2891,-1.2891,-1.2891,-1.2891,-1.2891,-1.2891,-1.2891,-1.2891,-1.2891,-1.2891,-1.2891,-1.2891,-1.2891,-1.2891,-1.2891,-1.2891,-1.2891,-1.2891,-1.2891,-1.2891,-1.2891,-1.2891,-1.2891,-1.2891,-1.2891,-1.2891,-1.2978,-1.8323,-1.8144,-1.9426,-1.9882,-1.9738,-2.0676,-2.0653,-2.0134,-2.0974,-2.1107,-2.0818,-2.1962,-2.2367,-2.2348,-2.2884,-2.316,-2.282,-2.2323,-2.2368,-2.2889,-2.3567,-2.3879,-2.3929,-2.404,-2.3631,-2.2743,-2.1177,-2.0065,-1.9315,-1.8815,-1.902,-1.9825,-1.9478,-1.9534,-2.0156,-2.0131,-2.0042,-1.9978,-1.9862,-1.9798,-1.9798,-1.9798,-1.9798,-1.9798,-1.9747,-1.9759,-1.9747,-1.9592,-1.95,-1.9656,-1.9654,-1.9291,-1.862,-1.8351,-1.7946,-1.7457,-1.6937,-1.6826,-1.7135,-1.7157,-1.7101,-1.7202,-1.6881,-1.686,-1.7435,-1.7678,-1.7756,-1.7744,-1.782,-1.782,-1.7435,-1.7213,-1.6631,-1.5623,-1.5293,-1.4668,-1.3839,-1.4044,-1.4499,-1.4253,-1.4189,-1.3912,-1.3672,-1.3545,-1.3389,-1.3076,-1.2969,-1.2939,-1.29,-1.2891,-1.2891,-1.2891,-1.2891,-1.2891,-1.2891,-1.2891,-1.2891,-1.2891,-1.2891,-1.2891,-1.2891,-1.2891,-1.2891,-1.2891,-1.2891,-1.2891,-1.2891,-1.2891,-1.2891,-1.2891,-1.2891,-1.2891,-1.2891,-1.2929,-1.3152,-1.9343,-1.9434,-1.9678,-2.0412,-2.1155,-2.1409,-2.1223,-2.1035,-2.1756,-2.1985,-2.2067,-2.2783,-2.3106,-2.3207,-2.345,-2.3509,-2.3437,-2.3198,-2.3317,-2.3679,-2.3929,-2.4268,-2.4621,-2.4405,-2.3968,-2.3326,-2.2135,-2.1197,-2.0665,-2.0006,-1.9932,-2.0201,-2.0128,-2.0323,-2.0732,-2.0515,-2.0296,-2.0144,-2.0029,-1.9926,-1.9926,-1.9862,-1.9798,-1.9798,-1.9798,-1.9798,-1.9798,-1.9331,-1.9069,-1.9121,-1.9347,-1.8779,-1.7564,-1.7767,-1.779,-1.7145,-1.6291,-1.611,-1.6652,-1.6708,-1.6955,-1.7312,-1.7003,-1.7313,-1.8164,-1.803,-1.8093,-1.8429,-1.8333,-1.8038,-1.7941,-1.749,-1.6757,-1.5531,-1.5145,-1.498,-1.4637,-1.488,-1.5091,-1.4971,-1.4766,-1.4531,-1.4365,-1.418,-1.3779,-1.3398,-1.3301,-1.3263,-1.2969,-1.2949,-1.2891,-1.2891,-1.2891,-1.2891,-1.2891,-1.2891,-1.2891,-1.2891,-1.2891,-1.2891,-1.2891,-1.2891,-1.2891,-1.2891,-1.2891,-1.2891,-1.2891,-1.2891,-1.2891,-1.2891,-1.2891,-1.2891,-1.2891,-1.3065,-1.3296,-1.9812,-2.0213,-2.0703,-2.1303,-2.2066,-2.1902,-2.1908,-2.192,-2.2046,-2.235,-2.2719,-2.3083,-2.339,-2.359,-2.3688,-2.3688,-2.3641,-2.3821,-2.4121,-2.4368,-2.4229,-2.4646,-2.5282,-2.4745,-2.3923,-2.3236,-2.2392,-2.1801,-2.1282,-2.0843,-2.0614,-2.0706,-2.0727,-2.0767,-2.0927,-2.0642,-2.0448,-2.0296,-2.0093,-1.999,-1.9978,-1.9862,-1.9798,-1.9798,-1.9798,-1.9798,-1.9747,-1.9121,-1.8815,-1.8786,-1.8729,-1.7855,-1.6588,-1.7011,-1.7116,-1.6658,-1.6104,-1.5894,-1.6513,-1.6821,-1.7123,-1.7723,-1.7698,-1.7958,-1.8815,-1.859,-1.8738,-1.9133,-1.8922,-1.8602,-1.8602,-1.8038,-1.7247,-1.6385,-1.5624,-1.5282,-1.5495,-1.5592,-1.5538,-1.5466,-1.5347,-1.5103,-1.4867,-1.4655,-1.4209,-1.3848,-1.3748,-1.3609,-1.3293,-1.3164,-1.3115,-1.2988,-1.2891,-1.2891,-1.2891,-1.2891,-1.2891,-1.2891,-1.2891,-1.2891,-1.2891,-1.2891,-1.2891,-1.2891,-1.2891,-1.2891,-1.2891,-1.2891,-1.2891,-1.2891,-1.29,-1.3027,-1.3113,-1.321,-1.3478,-2.0023,-2.0497,-2.218,-2.2597,-2.2262,-2.2368,-2.2414,-2.2337,-2.2082,-2.2252,-2.2776,-2.2948,-2.3244,-2.3598,-2.3819,-2.3819,-2.3777,-2.4214,-2.4725,-2.4934,-2.4756,-2.4948,-2.5422,-2.4846,-2.3775,-2.2543,-2.22,-2.1818,-2.1323,-2.1342,-2.128,-2.1274,-2.1326,-2.1147,-2.0899,-2.0614,-2.0511,-2.0461,-2.0195,-2.0029,-1.9978,-1.9875,-1.9798,-1.9798,-1.9798,-1.9798,-1.9695,-1.9133,-1.8762,-1.8655,-1.7744,-1.7024,-1.6493,-1.626,-1.6363,-1.6285,-1.6019,-1.6202,-1.6694,-1.7168,-1.7722,-1.8116,-1.859,-1.9109,-1.9275,-1.9247,-1.9275,-1.9512,-1.9356,-1.9316,-1.9198,-1.8762,-1.8167,-1.7684,-1.6343,-1.5652,-1.569,-1.5788,-1.5788,-1.5778,-1.5768,-1.5763,-1.5315,-1.5245,-1.4994,-1.457,-1.444,-1.4318,-1.3751,-1.357,-1.3387,-1.3182,-1.2978,-1.2978,-1.2978,-1.3392,-1.3344,-1.2929,-1.2978,-1.3027,-1.288,-1.2812,-1.2734,-1.2754,-1.2832,-1.2852,-1.2793,-1.2725,-1.2725,-1.2705,-1.2821,-1.3112,-1.3344,-1.3478,-1.3847,-2.248,-2.2291,-2.2807,-2.302,-2.2967,-2.271,-2.2344,-2.2086,-2.1959,-2.2275,-2.2837,-2.2998,-2.3366,-2.3956,-2.3982,-2.3995,-2.4099,-2.4567,-2.4879,-2.501,-2.4931,-2.4577,-2.4457,-2.4305,-2.3701,-2.2787,-2.2286,-2.2039,-2.1916,-2.225,-2.21,-2.1375,-2.1865,-2.1811,-2.1342,-2.0871,-2.0675,-2.0612,-2.0296,-2.0131,-2.008,-1.9914,-1.9798,-1.9798,-1.9798,-1.9798,-1.9747,-1.9239,-1.8278,-1.7145,-1.6797,-1.656,-1.6518,-1.6828,-1.6906,-1.6545,-1.668,-1.6793,-1.6874,-1.7234,-1.7655,-1.7941,-1.8786,-1.9235,-1.9316,-1.9316,-1.942,-1.9512,-1.946,-1.9473,-1.946,-1.9251,-1.875,-1.7829,-1.6541,-1.5622,-1.5796,-1.5856,-1.5866,-1.5914,-1.6228,-1.6317,-1.6233,-1.6308,-1.6382,-1.5988,-1.5711,-1.5423,-1.4601,-1.4128,-1.3955,-1.3395,-1.3113,-1.3113,-1.32,-1.3668,-1.3716,-1.3113,-1.3065,-1.3248,-1.2946,-1.2637,-1.249,-1.2373,-1.2598,-1.2666,-1.248,-1.239,-1.2393,-1.2607,-1.2944,-1.3324,-1.361,-1.38,-1.4269,-2.2659,-2.2829,-2.2951,-2.307,-2.3195,-2.254,-2.2247,-2.2193,-2.1892,-2.2226,-2.2916,-2.3076,-2.3332,-2.3675,-2.3992,-2.3968,-2.3864,-2.4596,-2.5105,-2.5341,-2.5354,-2.4638,-2.384,-2.3778,-2.3393,-2.2334,-2.2163,-2.1916,-2.1854,-2.2604,-2.2489,-2.1913,-2.2337,-2.2281,-2.1407,-2.1211,-2.0935,-2.0714,-2.0385,-2.022,-2.0182,-1.9965,-1.985,-1.9798,-1.9798,-1.9695,-1.9396,-1.9093,-1.8464,-1.7568,-1.7222,-1.7032,-1.6952,-1.7401,-1.7512,-1.7134,-1.7379,-1.749,-1.759,-1.7788,-1.805,-1.8387,-1.9023,-1.93,-1.9433,-1.942,-1.9485,-1.9668,-1.9629,-1.9617,-1.9552,-1.9488,-1.9069,-1.8274,-1.6819,-1.5899,-1.5989,-1.6039,-1.6039,-1.6134,-1.6353,-1.6684,-1.6694,-1.7011,-1.7037,-1.6841,-1.6475,-1.5935,-1.5246,-1.493,-1.4457,-1.3841,-1.3573,-1.3621,-1.3621,-1.3988,-1.4118,-1.361,-1.3334,-1.3478,-1.3117,-1.2663,-1.2439,-1.2351,-1.2422,-1.2402,-1.2243,-1.2243,-1.2598,-1.287,-1.3208,-1.3447,-1.3742,-1.3988,-1.449,-2.1789,-2.2555,-2.2958,-2.3132,-2.3097,-2.2407,-2.2398,-2.2536,-2.223,-2.2353,-2.3031,-2.3294,-2.3579,-2.3352,-2.4089,-2.3895,-2.3446,-2.4504,-2.5223,-2.5589,-2.5618,-2.4944,-2.3701,-2.3653,-2.3071,-2.1963,-2.2051,-2.1928,-2.199,-2.2725,-2.268,-2.228,-2.2719,-2.247,-2.1731,-2.1564,-2.1328,-2.1028,-2.0617,-2.0489,-2.0386,-2.0105,-1.9862,-1.9862,-1.9798,-1.954,-1.9186,-1.904,-1.8994,-1.879,-1.8336,-1.7865,-1.7667,-1.803,-1.8104,-1.805,-1.7941,-1.8116,-1.8398,-1.8398,-1.8614,-1.8893,-1.9076,-1.9405,-1.9577,-1.9589,-1.9654,-1.9759,-1.9798,-1.9759,-1.9656,-1.9515,-1.9254,-1.8715,-1.7472,-1.6796,-1.6363,-1.6384,-1.6337,-1.6285,-1.641,-1.6705,-1.6931,-1.7032,-1.7168,-1.7716,-1.7379,-1.6865,-1.6188,-1.5691,-1.5019,-1.423,-1.4165,-1.4269,-1.4269,-1.4316,-1.4305,-1.4118,-1.38,-1.3684,-1.3328,-1.2977,-1.2589,-1.2434,-1.2332,-1.2203,-1.2064,-1.2266,-1.2704,-1.287,-1.305,-1.349,-1.3941,-1.4071,-1.449,-2.3365,-2.2474,-2.3517,-2.3849,-2.3713,-2.356,-2.3062,-2.2567,-2.3204,-2.3231,-2.3469,-2.4185,-2.4518,-2.453,-2.4619,-2.4469,-2.3974,-2.4668,-2.5275,-2.5759,-2.5811,-2.5318,-2.4355,-2.384,-2.313,-2.2641,-2.2798,-2.2786,-2.2859,-2.3173,-2.3157,-2.2268,-2.2738,-2.2661,-2.2092,-2.2083,-2.2165,-2.1903,-2.1341,-2.103,-2.0849,-2.0271,-1.9926,-1.9926,-1.9862,-1.9747,-1.9643,-1.9592,-1.9599,-1.9368,-1.8708,-1.8313,-1.8449,-1.8661,-1.859,-1.8363,-1.8483,-1.8483,-1.8201,-1.8441,-1.8506,-1.8548,-1.9052,-1.9473,-1.9708,-1.9617,-1.9681,-1.9759,-1.9798,-1.9798,-1.9747,-1.9747,-1.9488,-1.9069,-1.8917,-1.8572,-1.7788,-1.692,-1.657,-1.6888,-1.7234,-1.7689,-1.8073,-1.8236,-1.8387,-1.8555,-1.8219,-1.7779,-1.7089,-1.6374,-1.5525,-1.4671,-1.4731,-1.4777,-1.4455,-1.4408,-1.4398,-1.4351,-1.4118,-1.4118,-1.3763,-1.314,-1.2726,-1.2392,-1.2125,-1.2044,-1.1997,-1.2361,-1.2821,-1.2857,-1.2912,-1.3324,-1.3726,-1.4029,-1.4433,-2.2564,-2.2396,-2.2797,-2.328,-2.3649,-2.3264,-2.2881,-2.2763,-2.3082,-2.3419,-2.3681,-2.4353,-2.4709,-2.4933,-2.4706,-2.4372,-2.4332,-2.4702,-2.5118,-2.5445,-2.5641,-2.561,-2.5344,-2.458,-2.4037,-2.3331,-2.3642,-2.3627,-2.3409,-2.3748,-2.3756,-2.2854,-2.3225,-2.3083,-2.2536,-2.2613,-2.2554,-2.2215,-2.1613,-2.1262,-2.1172,-2.045,-1.9926,-1.9926,-1.9862,-1.9798,-1.9798,-1.9798,-1.9822,-1.9664,-1.9235,-1.8982,-1.9155,-1.9336,-1.9186,-1.9056,-1.9016,-1.9069,-1.8845,-1.8815,-1.8934,-1.8709,-1.9146,-1.9408,-1.9656,-1.9656,-1.9656,-1.9759,-1.9798,-1.9798,-1.9798,-1.9798,-1.9604,-1.955,-1.9605,-1.9405,-1.853,-1.7269,-1.6599,-1.7013,-1.7067,-1.7401,-1.7909,-1.8506,-1.8774,-1.8566,-1.8253,-1.7851,-1.7147,-1.639,-1.5857,-1.5269,-1.5358,-1.5198,-1.4686,-1.4501,-1.4444,-1.4398,-1.4258,-1.4444,-1.4514,-1.3682,-1.2794,-1.2678,-1.2582,-1.2208,-1.2243,-1.2609,-1.2788,-1.2604,-1.2688,-1.3091,-1.3408,-1.3627,-1.4193,-2.1114,-2.2186,-2.193,-2.2445,-2.3288,-2.2786,-2.2635,-2.2782,-2.2847,-2.3474,-2.3948,-2.4195,-2.4723,-2.4657,-2.4488,-2.4273,-2.43,-2.4681,-2.5066,-2.5328,-2.5837,-2.6048,-2.6024,-2.5895,-2.5192,-2.3686,-2.4255,-2.4202,-2.387,-2.3991,-2.4047,-2.3684,-2.3747,-2.3463,-2.3045,-2.3057,-2.3085,-2.2792,-2.2107,-2.1585,-2.1379,-2.0693,-2.0155,-1.9862,-1.9914,-1.9862,-1.9862,-1.9811,-1.9823,-1.9798,-1.9798,-1.9808,-1.983,-1.9833,-1.9798,-1.9747,-1.9604,-1.95,-1.9448,-1.946,-1.9408,-1.9473,-1.946,-1.9512,-1.9604,-1.9656,-1.9708,-1.9747,-1.9798,-1.9798,-1.9798,-1.9798,-1.9798,-1.9784,-1.9778,-1.958,-1.8999,-1.7716,-1.7302,-1.739,-1.7545,-1.7776,-1.7788,-1.8127,-1.8387,-1.8531,-1.8258,-1.7796,-1.7053,-1.6451,-1.5879,-1.5314,-1.5211,-1.4869,-1.4362,-1.4362,-1.4351,-1.4305,-1.4258,-1.464,-1.4869,-1.4192,-1.3453,-1.3368,-1.3183,-1.2775,-1.2555,-1.2832,-1.2832,-1.2464,-1.2528,-1.2992,-1.3165,-1.3293,-1.3918,-2.1357,-2.2008,-2.2469,-2.2896,-2.3275,-2.3584,-2.3154,-2.2863,-2.3819,-2.4312,-2.4177,-2.5025,-2.4861,-2.4544,-2.4736,-2.4557,-2.4271,-2.4708,-2.5227,-2.5585,-2.6086,-2.653,-2.6817,-2.687,-2.6337,-2.5597,-2.5133,-2.4658,-2.424,-2.406,-2.3978,-2.3959,-2.3786,-2.3526,-2.3533,-2.3722,-2.3767,-2.3537,-2.2929,-2.2431,-2.1962,-2.1234,-2.0461,-1.9977,-1.9978,-1.9965,-1.9862,-1.9926,-1.9926,-1.9798,-1.9798,-1.9836,-1.9822,-1.9836,-1.9811,-1.9798,-1.9708,-1.9668,-1.9708,-1.9668,-1.9656,-1.9708,-1.9708,-1.9708,-1.9747,-1.9747,-1.9747,-1.9798,-1.9798,-1.9798,-1.9798,-1.9798,-1.9798,-1.9811,-1.9784,-1.9758,-1.9488,-1.8891,-1.8312,-1.8447,-1.8363,-1.8147,-1.8159,-1.817,-1.8387,-1.8483,-1.8307,-1.7606,-1.6742,-1.631,-1.5867,-1.5344,-1.4891,-1.4408,-1.3905,-1.4082,-1.4165,-1.4165,-1.4258,-1.4686,-1.4823,-1.4525,-1.418,-1.3917,-1.3651,-1.3227,-1.3169,-1.3167,-1.2833,-1.2407,-1.2606,-1.2939,-1.307,-1.3252,-1.3538,-2.1133,-2.1966,-2.2092,-2.2698,-2.3395,-2.2968,-2.2615,-2.2525,-2.3257,-2.3635,-2.3893,-2.4489,-2.486,-2.4491,-2.4077,-2.404,-2.4313,-2.4696,-2.5135,-2.5488,-2.5985,-2.6334,-2.6739,-2.6935,-2.6778,-2.6138,-2.5445,-2.4758,-2.4343,-2.4102,-2.3917,-2.3695,-2.3564,-2.3522,-2.3628,-2.3721,-2.3923,-2.3923,-2.3493,-2.2994,-2.2617,-2.1727,-2.0822,-2.0297,-2.0042,-2.0029,-1.9978,-1.9862,-1.9862,-1.9798,-1.9862,-1.9939,-1.9939,-1.9875,-1.9862,-1.9811,-1.9759,-1.9708,-1.9798,-1.9759,-1.9759,-1.9798,-1.9798,-1.9798,-1.9798,-1.9798,-1.9798,-1.9798,-1.9798,-1.9798,-1.9798,-1.9798,-1.9798,-1.9798,-1.9798,-1.9798,-1.9747,-1.9463,-1.9371,-1.9226,-1.8632,-1.8352,-1.8525,-1.8536,-1.8536,-1.8429,-1.8321,-1.7496,-1.6525,-1.6214,-1.589,-1.4869,-1.4316,-1.4035,-1.3621,-1.3705,-1.3894,-1.3894,-1.4025,-1.4501,-1.4731,-1.4433,-1.4378,-1.4316,-1.3994,-1.3487,-1.3178,-1.2954,-1.2655,-1.253,-1.2882,-1.3158,-1.3189,-1.3299,-1.3679,-2.0859,-2.2065,-2.1524,-2.2209,-2.3297,-2.2168,-2.1849,-2.221,-2.2234,-2.2738,-2.3348,-2.3767,-2.4258,-2.4459,-2.4123,-2.3877,-2.43,-2.4901,-2.5227,-2.532,-2.5621,-2.5853,-2.5955,-2.619,-2.6347,-2.5942,-2.5357,-2.4684,-2.4486,-2.4163,-2.3892,-2.3781,-2.3615,-2.3522,-2.37,-2.376,-2.3865,-2.3781,-2.3579,-2.3293,-2.2877,-2.1977,-2.1004,-2.0412,-2.0259,-2.0144,-2.0029,-2.0042,-1.9965,-1.9914,-1.9914,-2.0003,-2.0067,-2.0003,-1.9926,-1.9811,-1.9798,-1.9798,-1.9798,-1.9798,-1.9798,-1.9798,-1.9798,-1.9798,-1.9798,-1.9798,-1.9798,-1.9798,-1.9798,-1.9798,-1.9798,-1.9798,-1.9798,-1.9798,-1.9798,-1.9798,-1.9798,-1.9683,-1.9683,-1.9319,-1.8661,-1.8459,-1.8525,-1.8363,-1.8255,-1.805,-1.7875,-1.7319,-1.6485,-1.6373,-1.5825,-1.4392,-1.3668,-1.3573,-1.3392,-1.3382,-1.3525,-1.3573,-1.3705,-1.4035,-1.4269,-1.4305,-1.4297,-1.415,-1.3984,-1.3496,-1.3128,-1.2863,-1.2863,-1.2949,-1.3283,-1.3507,-1.3606,-1.3803,-1.4133,-2.085,-2.2065,-2.1524,-2.1791,-2.2467,-2.1839,-2.1809,-2.2268,-2.1915,-2.2468,-2.3673,-2.3469,-2.371,-2.4086,-2.4647,-2.4724,-2.4973,-2.5394,-2.573,-2.5764,-2.5783,-2.5754,-2.5769,-2.5863,-2.5759,-2.5471,-2.4984,-2.5003,-2.4861,-2.4283,-2.406,-2.4042,-2.388,-2.3832,-2.3832,-2.3878,-2.4067,-2.4054,-2.3975,-2.3618,-2.2963,-2.1936,-2.1327,-2.0991,-2.072,-2.0448,-2.0233,-2.0246,-2.0233,-2.0055,-2.0016,-2.0054,-2.0067,-1.9926,-1.9862,-1.9798,-1.9798,-1.9798,-1.9798,-1.9798,-1.9798,-1.9798,-1.9798,-1.9798,-1.9798,-1.9798,-1.9798,-1.9798,-1.9798,-1.9747,-1.9695,-1.9798,-1.9798,-1.9747,-1.9631,-1.9683,-1.9747,-1.9515,-1.9567,-1.9798,-1.9202,-1.862,-1.8352,-1.8135,-1.7918,-1.771,-1.7423,-1.6911,-1.6303,-1.5919,-1.5488,-1.4045,-1.3536,-1.344,-1.3344,-1.3296,-1.3334,-1.3392,-1.343,-1.3621,-1.38,-1.3941,-1.3763,-1.3653,-1.3512,-1.3465,-1.3088,-1.3001,-1.3145,-1.3331,-1.3559,-1.382,-1.4143,-1.4398,-1.4686,-2.1491,-2.1506,-2.133,-2.1716,-2.2364,-2.1839,-2.2153,-2.2677,-2.2378,-2.2615,-2.349,-2.4044,-2.4128,-2.4253,-2.4639,-2.4912,-2.5091,-2.5907,-2.629,-2.6148,-2.6015,-2.5792,-2.5708,-2.5537,-2.5236,-2.5249,-2.4823,-2.4706,-2.4689,-2.4335,-2.3808,-2.391,-2.3842,-2.376,-2.3891,-2.3936,-2.3995,-2.4067,-2.406,-2.3741,-2.3059,-2.2343,-2.1732,-2.1329,-2.0861,-2.0563,-2.041,-2.0296,-2.0283,-2.0169,-2.0131,-2.0144,-2.0105,-2.0042,-1.9926,-1.9914,-1.985,-1.9798,-1.9798,-1.9811,-1.9798,-1.9798,-1.9798,-1.9798,-1.9798,-1.9798,-1.9798,-1.9798,-1.9798,-1.9631,-1.9463,-1.9579,-1.9731,-1.9691,-1.9475,-1.9478,-1.9478,-1.923,-1.9178,-1.9515,-1.9747,-1.9162,-1.8632,-1.8525,-1.8363,-1.8255,-1.7804,-1.714,-1.5986,-1.4736,-1.4282,-1.359,-1.343,-1.3488,-1.3392,-1.3296,-1.343,-1.344,-1.3113,-1.3296,-1.3478,-1.3525,-1.344,-1.3296,-1.3198,-1.3097,-1.2977,-1.3138,-1.3246,-1.3502,-1.3757,-1.4054,-1.4444,-1.5051,-1.5289,-2.2149,-2.1269,-2.1356,-2.1732,-2.2167,-2.1851,-2.2378,-2.3249,-2.2811,-2.2958,-2.3726,-2.4661,-2.4884,-2.484,-2.5331,-2.5742,-2.5507,-2.6498,-2.6739,-2.659,-2.6148,-2.5748,-2.5423,-2.5124,-2.4962,-2.5406,-2.4497,-2.4367,-2.4432,-2.4183,-2.3819,-2.3734,-2.3844,-2.3819,-2.3949,-2.4008,-2.4008,-2.4125,-2.4125,-2.389,-2.3433,-2.2714,-2.2191,-2.1603,-2.1017,-2.0562,-2.0511,-2.0448,-2.0334,-2.0334,-2.0296,-2.0296,-2.0296,-2.0322,-2.0321,-2.0281,-2.0217,-2.0152,-2.0024,-1.9949,-1.9836,-1.9798,-1.9798,-1.9798,-1.9798,-1.9798,-1.9798,-1.9798,-1.9798,-1.9515,-1.9218,-1.9325,-1.9414,-1.9359,-1.9254,-1.9297,-1.9312,-1.9206,-1.923,-1.9567,-1.9747,-1.9643,-1.9226,-1.9028,-1.8934,-1.8762,-1.8189,-1.7421,-1.6148,-1.4655,-1.4171,-1.3886,-1.3539,-1.3635,-1.3583,-1.3536,-1.3573,-1.344,-1.3113,-1.3017,-1.3248,-1.3296,-1.3248,-1.3113,-1.2968,-1.2977,-1.3022,-1.3226,-1.3372,-1.3569,-1.3784,-1.4272,-1.4731,-1.5379,-1.5748,-2.2616,-2.1687,-2.1732,-2.1668,-2.1445,-2.1784,-2.2456,-2.3334,-2.2951,-2.3483,-2.4548,-2.5284,-2.5644,-2.6041,-2.6636,-2.6905,-2.6624,-2.7245,-2.7136,-2.6625,-2.6111,-2.5647,-2.5215,-2.4744,-2.436,-2.4419,-2.4197,-2.4164,-2.4191,-2.4184,-2.3995,-2.4067,-2.3995,-2.4054,-2.4067,-2.4067,-2.4067,-2.4125,-2.4125,-2.406,-2.3602,-2.2975,-2.2363,-2.2021,-2.1276,-2.0699,-2.0712,-2.0664,-2.0716,-2.0729,-2.0732,-2.0707,-2.0772,-2.0797,-2.0834,-2.0688,-2.0562,-2.0431,-2.0315,-1.9999,-1.9823,-1.9798,-1.9798,-1.9798,-1.9798,-1.9798,-1.9798,-1.9798,-1.9798,-1.9695,-1.9364,-1.9062,-1.9199,-1.9233,-1.9294,-1.9401,-1.9428,-1.9374,-1.9463,-1.9683,-1.9747,-1.9695,-1.9592,-1.9396,-1.9093,-1.8922,-1.8419,-1.7588,-1.6979,-1.5747,-1.5094,-1.4607,-1.3955,-1.383,-1.3868,-1.3842,-1.3707,-1.3405,-1.3113,-1.2968,-1.3017,-1.3065,-1.3162,-1.3162,-1.3065,-1.3065,-1.3065,-1.3162,-1.3296,-1.3525,-1.3847,-1.4501,-1.496,-1.5501,-1.5736,-2.321,-2.2343,-2.2971,-2.2484,-2.1407,-2.2569,-2.328,-2.366,-2.3817,-2.4515,-2.5516,-2.5455,-2.5788,-2.6563,-2.6957,-2.7164,-2.6901,-2.7425,-2.7225,-2.6686,-2.6112,-2.575,-2.5289,-2.4874,-2.4431,-2.4627,-2.4492,-2.4171,-2.4138,-2.4112,-2.4112,-2.4125,-2.4112,-2.4125,-2.4125,-2.4112,-2.4112,-2.4125,-2.4073,-2.3968,-2.342,-2.2844,-2.2258,-2.1773,-2.1159,-2.0738,-2.0751,-2.1079,-2.1132,-2.1263,-2.1394,-2.1407,-2.1328,-2.1287,-2.1155,-2.0957,-2.0701,-2.0458,-2.0265,-1.9962,-1.9811,-1.9798,-1.9798,-1.9798,-1.9798,-1.9798,-1.9798,-1.9798,-1.9798,-1.9759,-1.9242,-1.9196,-1.9364,-1.9322,-1.9386,-1.9492,-1.9505,-1.9503,-1.9579,-1.9747,-1.9798,-1.9747,-1.9695,-1.9643,-1.9344,-1.9016,-1.8412,-1.788,-1.7335,-1.6825,-1.618,-1.5592,-1.4985,-1.4419,-1.4445,-1.4179,-1.3844,-1.3478,-1.3115,-1.3046,-1.3008,-1.3027,-1.3123,-1.3172,-1.32,-1.3286,-1.3248,-1.3113,-1.321,-1.3478,-1.4082,-1.4869,-1.5322,-1.568,-1.578,-2.3865,-2.3191,-2.3838,-2.3098,-2.1734,-2.3403,-2.4278,-2.4418,-2.4732,-2.5198,-2.5923,-2.5528,-2.5971,-2.6916,-2.7342,-2.737,-2.741,-2.7633,-2.7444,-2.7061,-2.6612,-2.6293,-2.5973,-2.554,-2.5149,-2.5176,-2.4908,-2.4593,-2.4287,-2.4216,-2.4157,-2.4157,-2.4157,-2.4157,-2.4157,-2.4157,-2.4157,-2.4157,-2.4073,-2.3799,-2.325,-2.2675,-2.21,-2.1577,-2.0963,-2.0895,-2.1026,-2.1289,-2.1564,-2.172,-2.1914,-2.2094,-2.2014,-2.1843,-2.1463,-2.1125,-2.0818,-2.0395,-2.0127,-1.9874,-1.9823,-1.9798,-1.9798,-1.9798,-1.9798,-1.9798,-1.9798,-1.9798,-1.9798,-1.9656,-1.9251,-1.9503,-1.9517,-1.9515,-1.9579,-1.9709,-1.9658,-1.9643,-1.9643,-1.9747,-1.9811,-1.9862,-1.9798,-1.9695,-1.9592,-1.9396,-1.9169,-1.8662,-1.813,-1.769,-1.7193,-1.665,-1.6131,-1.5624,-1.5156,-1.4722,-1.4296,-1.372,-1.3402,-1.3194,-1.3115,-1.3252,-1.325,-1.3172,-1.3296,-1.3467,-1.3515,-1.3392,-1.3392,-1.344,-1.4222,-1.5108,-1.5367,-1.568,-1.5869,-2.4598,-2.4137,-2.4068,-2.3192,-2.2178,-2.4094,-2.5128,-2.5322,-2.5475,-2.553,-2.5707,-2.5969,-2.6597,-2.7363,-2.7791,-2.7804,-2.7756,-2.7795,-2.7588,-2.7225,-2.6683,-2.6842,-2.6607,-2.6079,-2.5434,-2.5384,-2.5133,-2.4821,-2.4563,-2.4376,-2.4305,-2.4292,-2.4305,-2.4363,-2.4292,-2.4292,-2.4292,-2.4305,-2.4171,-2.3746,-2.3132,-2.2609,-2.21,-2.1525,-2.0949,-2.0895,-2.1433,-2.159,-2.1904,-2.2309,-2.2276,-2.2393,-2.2424,-2.2467,-2.2201,-2.1828,-2.1601,-2.1263,-2.0838,-2.019,-2.0013,-1.9836,-1.9798,-1.9747,-1.9747,-1.9747,-1.9695,-1.9592,-1.9708,-1.9747,-1.9747,-1.9798,-1.9734,-1.9734,-1.9798,-1.9798,-1.9747,-1.9875,-1.9926,-1.9926,-1.9926,-1.9978,-1.9862,-1.9798,-1.9798,-1.9747,-1.9798,-1.9465,-1.8875,-1.853,-1.8135,-1.763,-1.7113,-1.6612,-1.6041,-1.5327,-1.4728,-1.4165,-1.3962,-1.4037,-1.3962,-1.4136,-1.3955,-1.3446,-1.3644,-1.416,-1.3962,-1.3705,-1.3978,-1.4305,-1.4593,-1.5187,-1.5412,-1.5751,-1.6082,-2.4464,-2.4164,-2.4544,-2.4395,-2.4069,-2.5009,-2.5443,-2.5349,-2.585,-2.6378,-2.6673,-2.6949,-2.738,-2.7888,-2.7718,-2.767,-2.7498,-2.6901,-2.6716,-2.6202,-2.6145,-2.595,-2.5915,-2.5826,-2.5432,-2.5425,-2.5245,-2.4991,-2.4563,-2.4492,-2.4492,-2.4478,-2.4536,-2.4607,-2.4549,-2.4492,-2.4434,-2.4305,-2.4155,-2.3756,-2.2821,-2.2465,-2.2139,-2.1564,-2.1066,-2.1249,-2.1982,-2.206,-2.2348,-2.2858,-2.289,-2.3115,-2.291,-2.289,-2.2408,-2.1729,-2.1247,-2.0923,-2.0945,-2.0825,-2.0633,-2.019,-1.9849,-1.9706,-1.9396,-1.9291,-1.9239,-1.9344,-1.9448,-1.954,-1.9695,-1.9914,-1.9914,-1.985,-1.9901,-1.9888,-1.9888,-2.0131,-2.0258,-2.0169,-2.0182,-1.9978,-1.985,-1.9798,-1.9798,-1.9798,-1.9798,-1.9798,-1.9389,-1.9352,-1.9131,-1.8578,-1.8091,-1.7564,-1.7007,-1.6208,-1.5847,-1.556,-1.5482,-1.5548,-1.5463,-1.5028,-1.4752,-1.4366,-1.4613,-1.4829,-1.4866,-1.4937,-1.5074,-1.5311,-1.5588,-1.569,-1.5945,-1.6284,-1.663,-2.4415,-2.4408,-2.4696,-2.5079,-2.5459,-2.5914,-2.5966,-2.5944,-2.6542,-2.6961,-2.7026,-2.7242,-2.7411,-2.7565,-2.7534,-2.7396,-2.7225,-2.6842,-2.6561,-2.5942,-2.6046,-2.6182,-2.5965,-2.555,-2.5717,-2.5617,-2.537,-2.5104,-2.4791,-2.4734,-2.4677,-2.4664,-2.4734,-2.4778,-2.4721,-2.4664,-2.4607,-2.4478,-2.4399,-2.3966,-2.3181,-2.2745,-2.2481,-2.1943,-2.1655,-2.1786,-2.2387,-2.2714,-2.2818,-2.3289,-2.3616,-2.3785,-2.3315,-2.2808,-2.2499,-2.1897,-2.1392,-2.1106,-2.1034,-2.1319,-2.092,-2.0315,-2.0125,-1.9843,-1.9405,-1.9396,-1.9408,-1.9408,-1.9239,-1.95,-1.9811,-2.0029,-2.008,-1.9978,-2.008,-2.0067,-1.9978,-2.0169,-2.0309,-2.0284,-2.022,-2.0029,-1.985,-1.9798,-1.9798,-1.9798,-1.9798,-1.9798,-1.9798,-1.9709,-1.9569,-1.9047,-1.8562,-1.8007,-1.7525,-1.7042,-1.6819,-1.6848,-1.6738,-1.6585,-1.6013,-1.5471,-1.5361,-1.5411,-1.5775,-1.6083,-1.6178,-1.628,-1.6301,-1.6392,-1.658,-1.6608,-1.6576,-1.686,-1.7291,-2.4339,-2.4815,-2.4621,-2.5208,-2.6208,-2.6628,-2.6991,-2.7363,-2.741,-2.7057,-2.6549,-2.7303,-2.7396,-2.6842,-2.7134,-2.7272,-2.7165,-2.7103,-2.6909,-2.6991,-2.6624,-2.663,-2.6414,-2.6222,-2.5875,-2.5823,-2.5619,-2.523,-2.5005,-2.4892,-2.4848,-2.4778,-2.4835,-2.4835,-2.4892,-2.4835,-2.4791,-2.4721,-2.4553,-2.4093,-2.3464,-2.3329,-2.2955,-2.2533,-2.2283,-2.2544,-2.2949,-2.3093,-2.3145,-2.3393,-2.3681,-2.355,-2.3179,-2.2642,-2.2808,-2.2657,-2.2024,-2.1514,-2.1189,-2.1437,-2.1277,-2.0772,-2.0718,-2.0363,-1.9843,-1.9448,-1.9408,-1.9408,-1.9303,-1.9668,-1.9978,-2.0093,-2.0156,-2.0207,-2.0322,-2.0182,-2.0029,-2.0105,-2.0246,-2.0258,-2.0195,-2.0016,-1.985,-1.9798,-1.9747,-1.9798,-1.9798,-1.9798,-1.9747,-1.9604,-1.9411,-1.9056,-1.8655,-1.8305,-1.7935,-1.7756,-1.7855,-1.7938,-1.7347,-1.7076,-1.6461,-1.6238,-1.6356,-1.6559,-1.7006,-1.7205,-1.712,-1.7267,-1.7483,-1.7542,-1.7491,-1.7414,-1.7331,-1.7666,-1.8014,-2.4476,-2.4306,-2.4705,-2.5365,-2.6308,-2.745,-2.8015,-2.8119,-2.8119,-2.795,-2.7827,-2.8011,-2.778,-2.7811,-2.7042,-2.6765,-2.6488,-2.6153,-2.5691,-2.579,-2.622,-2.5883,-2.5711,-2.5646,-2.5439,-2.5384,-2.5286,-2.5342,-2.5061,-2.4948,-2.4948,-2.4948,-2.4892,-2.4948,-2.4948,-2.4948,-2.4878,-2.4848,-2.4791,-2.4313,-2.3798,-2.3609,-2.3313,-2.307,-2.2622,-2.2949,-2.3406,-2.2975,-2.3027,-2.3655,-2.3145,-2.2779,-2.2688,-2.2439,-2.2392,-2.1498,-2.1355,-2.1445,-2.139,-2.2043,-2.2061,-2.1234,-2.1208,-2.0519,-1.9793,-1.9291,-1.9303,-1.9356,-1.9356,-1.9604,-1.9978,-2.0144,-2.0195,-2.0246,-2.036,-2.0334,-2.0194,-2.0156,-2.0296,-2.0182,-2.0105,-2.0016,-1.985,-1.9695,-1.9643,-1.9747,-1.9747,-1.9695,-1.9643,-1.9448,-1.9344,-1.8987,-1.8655,-1.8309,-1.875,-1.8761,-1.8895,-1.8915,-1.8178,-1.7732,-1.7664,-1.7501,-1.7491,-1.7662,-1.7939,-1.8003,-1.7891,-1.8067,-1.8313,-1.8311,-1.8199,-1.8159,-1.8207,-1.8459,-1.861,-2.4243,-2.4235,-2.4604,-2.529,-2.6168,-2.7255,-2.7752,-2.7751,-2.7936,-2.8011,-2.7996,-2.7965,-2.7857,-2.7411,-2.6718,-2.6257,-2.5918,-2.5659,-2.5379,-2.5541,-2.5402,-2.5396,-2.5191,-2.5216,-2.5439,-2.5328,-2.5342,-2.5508,-2.5286,-2.5061,-2.5005,-2.5005,-2.5005,-2.5005,-2.4937,-2.4732,-2.4732,-2.4797,-2.4794,-2.4506,-2.4163,-2.3904,-2.3804,-2.3489,-2.2975,-2.3223,-2.355,-2.2792,-2.2818,-2.328,-2.2574,-2.2814,-2.2707,-2.2523,-2.2194,-2.1498,-2.1537,-2.1575,-2.1508,-2.2266,-2.2018,-2.1495,-2.1335,-2.0723,-2.0051,-1.9512,-1.9512,-1.9552,-1.95,-1.9552,-1.9875,-2.0195,-2.0233,-2.0271,-2.0372,-2.0472,-2.0372,-2.0321,-2.0207,-2.0093,-1.9991,-1.9914,-1.9759,-1.9604,-1.9448,-1.9331,-1.9109,-1.8898,-1.9016,-1.9081,-1.9093,-1.8987,-1.8655,-1.8309,-1.8857,-1.9291,-1.9085,-1.8891,-1.8496,-1.8207,-1.8486,-1.8514,-1.8318,-1.8502,-1.8814,-1.8714,-1.8602,-1.877,-1.8983,-1.8895,-1.8883,-1.897,-1.8945,-1.9096,-1.9246,-2.3837,-2.4372,-2.4522,-2.5078,-2.5849,-2.653,-2.6738,-2.6676,-2.7087,-2.7319,-2.735,-2.7442,-2.7226,-2.6995,-2.6562,-2.6087,-2.5676,-2.5312,-2.509,-2.5488,-2.5286,-2.5145,-2.5246,-2.5494,-2.5521,-2.5769,-2.5948,-2.592,-2.577,-2.5495,-2.523,-2.5061,-2.5005,-2.5005,-2.4951,-2.4652,-2.4569,-2.4651,-2.4745,-2.4606,-2.4584,-2.4509,-2.4434,-2.4013,-2.355,-2.325,-2.3119,-2.2688,-2.2139,-2.2352,-2.2578,-2.303,-2.2762,-2.2585,-2.2192,-2.1799,-2.1563,-2.1472,-2.1471,-2.204,-2.1854,-2.1406,-2.1066,-2.0582,-2.0017,-1.9745,-1.9772,-1.9759,-1.9695,-1.9759,-2.0029,-2.008,-2.0131,-2.0296,-2.0461,-2.0385,-2.0258,-2.0156,-2.0055,-1.9991,-1.9952,-1.9811,-1.9759,-1.9656,-1.9592,-1.9174,-1.8963,-1.8738,-1.8483,-1.8762,-1.8827,-1.8934,-1.8762,-1.859,-1.8963,-1.9226,-1.891,-1.8685,-1.8429,-1.819,-1.8147,-1.8525,-1.9069,-1.9064,-1.9007,-1.9312,-1.9391,-1.9408,-1.9345,-1.9294,-1.9382,-1.9634,-1.9748,-1.9673,-1.9648,-2.42,-2.4185,-2.4844,-2.5367,-2.5843,-2.6414,-2.6364,-2.5944,-2.6025,-2.6414,-2.6851,-2.7256,-2.7442,-2.7177,-2.65,-2.5981,-2.553,-2.4806,-2.4611,-2.4496,-2.4475,-2.4703,-2.4929,-2.5117,-2.5483,-2.5929,-2.6244,-2.6438,-2.6244,-2.5934,-2.5619,-2.555,-2.5286,-2.5005,-2.4991,-2.4706,-2.4625,-2.4584,-2.4407,-2.4581,-2.4751,-2.4721,-2.4593,-2.4204,-2.3747,-2.3388,-2.3122,-2.2688,-2.2387,-2.2417,-2.223,-2.2179,-2.197,-2.2088,-2.1734,-2.1131,-2.1093,-2.1067,-2.1185,-2.1498,-2.1458,-2.1107,-2.0663,-2.0288,-2.0035,-2.0027,-1.9978,-1.9914,-1.99,-1.9964,-2.0029,-2.0029,-2.0093,-2.0335,-2.05,-2.0296,-2.0093,-2.0055,-1.9965,-1.9901,-1.985,-1.9798,-1.9759,-1.9695,-1.9643,-1.9592,-1.9592,-1.9319,-1.8697,-1.8655,-1.8655,-1.8721,-1.8881,-1.8922,-1.9121,-1.9004,-1.8578,-1.8417,-1.8255,-1.8038,-1.782,-1.8093,-1.8483,-1.8922,-1.9121,-1.9239,-1.9384,-1.9554,-1.9542,-1.9488,-1.9488,-1.9604,-1.9747,-1.9748,-1.9761,-2.4374,-2.4322,-2.4885,-2.5248,-2.5507,-2.5827,-2.5723,-2.5425,-2.5321,-2.554,-2.5962,-2.6442,-2.6836,-2.69,-2.6104,-2.5392,-2.4897,-2.4134,-2.3833,-2.3631,-2.363,-2.3848,-2.4218,-2.4675,-2.5038,-2.5543,-2.6236,-2.6521,-2.6337,-2.6096,-2.5784,-2.5536,-2.5147,-2.5005,-2.4978,-2.4801,-2.4639,-2.453,-2.4259,-2.4393,-2.47,-2.4603,-2.4503,-2.4116,-2.3844,-2.3484,-2.3208,-2.2824,-2.2561,-2.2469,-2.2309,-2.1707,-2.1602,-2.1691,-2.1429,-2.0983,-2.0736,-2.0693,-2.088,-2.1015,-2.1146,-2.0823,-2.0589,-2.0363,-2.006,-2.0005,-1.9728,-1.9636,-1.9672,-1.9799,-1.9949,-2.0042,-2.0246,-2.045,-2.0437,-2.0246,-2.0169,-2.0118,-2.0105,-2.0067,-2.0016,-1.9965,-1.9862,-1.9552,-1.9436,-1.9174,-1.9331,-1.9162,-1.8697,-1.8429,-1.8441,-1.8387,-1.8387,-1.8548,-1.859,-1.8405,-1.807,-1.8027,-1.7984,-1.7929,-1.7765,-1.7699,-1.7875,-1.8321,-1.8655,-1.8815,-1.8963,-1.9279,-1.954,-1.954,-1.95,-1.9448,-1.9656,-1.9798,-1.985,-2.4564,-2.4605,-2.4862,-2.5021,-2.5005,-2.5021,-2.5013,-2.4997,-2.4918,-2.5012,-2.5257,-2.5441,-2.5812,-2.5808,-2.5227,-2.4416,-2.3733,-2.3301,-2.3008,-2.2937,-2.2867,-2.3193,-2.3636,-2.4184,-2.478,-2.5423,-2.6117,-2.6167,-2.6035,-2.5849,-2.5626,-2.5149,-2.5021,-2.5005,-2.4856,-2.4639,-2.4462,-2.4503,-2.4422,-2.4422,-2.4434,-2.4405,-2.4356,-2.4173,-2.3874,-2.357,-2.3345,-2.312,-2.2776,-2.2564,-2.243,-2.1865,-2.1627,-2.1685,-2.1432,-2.113,-2.0966,-2.0966,-2.0951,-2.1116,-2.1013,-2.0822,-2.0717,-2.0448,-2.0118,-2.0072,-1.9797,-1.9824,-1.9857,-1.9987,-2.0207,-2.0424,-2.0643,-2.0489,-2.0361,-2.022,-2.0156,-2.022,-2.0246,-2.0258,-2.0182,-2.0131,-1.9926,-1.9552,-1.9291,-1.9028,-1.875,-1.8483,-1.8267,-1.8213,-1.8159,-1.7831,-1.7556,-1.7722,-1.8038,-1.8038,-1.7809,-1.7589,-1.76,-1.7655,-1.76,-1.7335,-1.7335,-1.782,-1.8093,-1.8429,-1.8643,-1.891,-1.9174,-1.954,-1.9604,-1.9604,-1.9656,-1.9798,-1.9901,-2.4942,-2.4886,-2.4966,-2.5005,-2.5005,-2.5005,-2.5005,-2.5005,-2.4982,-2.5266,-2.5478,-2.5136,-2.529,-2.5915,-2.5293,-2.452,-2.3658,-2.291,-2.2482,-2.241,-2.2117,-2.2487,-2.3082,-2.3672,-2.4872,-2.562,-2.6108,-2.6182,-2.5818,-2.5734,-2.563,-2.5191,-2.5051,-2.4991,-2.4991,-2.4788,-2.4652,-2.4584,-2.4422,-2.4367,-2.4449,-2.4529,-2.477,-2.448,-2.4059,-2.3803,-2.3588,-2.3424,-2.3122,-2.2843,-2.2618,-2.2049,-2.1847,-2.1897,-2.1844,-2.1621,-2.1452,-2.1431,-2.1434,-2.1183,-2.0977,-2.0828,-2.063,-2.0338,-2.0362,-2.0748,-2.0662,-2.0884,-2.0994,-2.12,-2.1406,-2.1504,-2.1598,-2.0873,-2.0461,-2.0233,-2.0093,-2.0284,-2.0476,-2.0348,-2.0233,-2.0233,-2.0182,-1.9926,-1.9823,-1.9604,-1.9488,-1.9174,-1.8655,-1.8321,-1.7995,-1.7556,-1.7123,-1.739,-1.7886,-1.7831,-1.7655,-1.7379,-1.7157,-1.7213,-1.7067,-1.6705,-1.6864,-1.76,-1.7929,-1.8201,-1.8417,-1.875,-1.9069,-1.9384,-1.9643,-1.9747,-1.9798,-1.9901,-2.0055]},{"header":{"parameterUnit":"m.s-1","parameterCategory":1,"la1":31.0,"la2":29.5877,"lo1":-88.7671,"lo2":-86.6584,"dy":0.0162,"dx":0.0185,"nx":115,"ny":88,"refTime":"2023-09-05T12:00:00:Z","depth":0,"parameterNumber":3,"parameterNumberName":"V-component_of_WINDS"},"data":[0.0,0.0,0.0,0.0,0.0,0.0,0.0,0.0,0.0,0.0,0.0,0.0,0.0,0.0,0.0,0.0,0.0,0.0,0.0,0.0,0.0,0.0,0.0,0.0,0.0,0.0,0.0,0.0,0.0,0.0,0.0,0.0,0.0,0.0,0.0,0.0,0.0,0.0,0.0,0.0,0.0,0.0,0.0,0.0,0.0,0.0,0.0,0.0,0.0,0.0,0.0,0.0,0.0,0.0,0.0,0.0,0.0,0.0,0.0,0.0,0.0,0.0,0.0,0.0,0.0,0.0,0.0,0.0,0.0,0.0,0.0,0.0,0.0,0.0,0.0,0.0,0.0,0.0,0.0,0.0,0.0,0.0,0.0,0.0,0.0,0.0,0.0,0.0,0.0,0.0,0.0,0.0,0.0,0.0,0.0,0.0,0.0,0.0,0.0,0.0,0.0,0.0,0.0,0.0,0.0,0.0,0.0,0.0,0.0,0.0,0.0,0.0,0.0,0.0,0.0,0.0,0.0,0.0,0.0,0.0,0.0,0.0,0.0,0.0,0.0,0.0,0.0,0.0,0.0,0.0,0.0,0.0,0.0,0.0,0.0,0.0,0.0,0.0,0.0,0.0,0.0,0.0,0.0,0.0,0.0,0.0,0.0,0.0,0.0,0.0,0.0,0.0,0.0,0.0,0.0,0.0,0.0,0.0,0.0,0.0,0.0,0.0,0.0,0.0,0.0,0.0,0.0,0.0,0.0,0.0,0.0,0.0,0.0,0.0,0.0,0.0,0.0,0.0,0.0,0.0,0.0,0.0,0.0,0.0,0.0,0.0,0.0,0.0,0.0,0.0,0.0,0.0,0.0,0.0,0.0,0.0,0.0,0.0,0.0,0.0,0.0,0.0,0.0,0.0,0.0,0.0,0.0,0.0,0.0,0.0,0.0,0.0,0.0,0.0,0.0,0.0,0.0,0.0,0.0,0.0,0.0,0.0,0.0,0.0,0.0,0.0,0.0,0.0,0.0,0.0,0.0,0.0,0.0,0.0,0.0,0.0,0.0,0.0,0.0,0.0,0.0,0.0,0.0,0.0,0.0,0.0,0.0,0.0,0.0,0.0,0.0,0.0,0.0,0.0,0.0,0.0,0.0,0.0,0.0,0.0,0.0,0.0,0.0,0.0,0.0,0.0,0.0,0.0,0.0,0.0,0.0,0.0,0.0,0.0,0.0,0.0,0.0,0.0,0.0,0.0,0.0,0.0,0.0,0.0,0.0,0.0,0.0,0.0,0.0,0.0,0.0,0.0,0.0,0.0,0.0,0.0,0.0,0.0,0.0,0.0,0.0,0.0,0.0,0.0,0.0,0.0,0.0,0.0,0.0,0.0,0.0,0.0,0.0,0.0,0.0,0.0,0.0,0.0,0.0,0.0,0.0,0.0,0.0,0.0,0.0,0.0,0.0,0.0,0.0,0.0,0.0,0.0,0.0,0.0,0.0,0.0,0.0,0.0,0.0,0.0,0.0,0.0,0.0,0.0,0.0,0.0,0.0,0.0,0.0,0.0,0.0,0.0,0.0,0.0,0.0,0.0,0.0,0.0,0.0,0.0,0.0,0.0,0.0,0.0,0.0,0.0,0.0,0.0,0.0,0.0,0.0,0.0,0.0,0.0,0.0,0.0,0.0,0.0,0.0,0.0,0.0,0.0,0.0,0.0,0.0,0.0,0.0,0.0,0.0,0.0,0.0,0.0,0.0,0.0,0.0,0.0,0.0,0.0,0.0,0.0,0.0,0.0,0.0,0.0,0.0,0.0,0.0,0.0,0.0,0.0,0.0,0.0,0.0,0.0,0.0,0.0,0.0,0.0,0.0,0.0,0.0,0.0,0.0,0.0,0.0,0.0,0.0,0.0,0.0,0.0,0.0,0.0,0.0,0.0,0.0,0.0,0.0,0.0,0.0,0.0,0.0,0.0,0.0,0.0,0.0,0.0,0.0,0.0,0.0,0.0,0.0,0.0,0.0,0.0,0.0,0.0,0.0,0.0,0.0,0.0,0.0,0.0,0.0,0.0,0.0,0.0,0.0,0.0,0.0,0.0,0.0,0.0,0.0,0.0,0.0,0.0,0.0,0.0,0.0,0.0,0.0,0.0,0.0,0.0,0.0,0.0,0.0,0.0,0.0,0.0,0.0,0.0,0.0,0.0,0.0,0.0,0.0,0.0,0.0,0.0,0.0,0.0,0.0,0.0,0.0,0.0,0.0,0.0,0.0,0.0,0.0,0.0,0.0,0.0,0.0,0.0,0.0,0.0,0.0,0.0,0.0,0.0,0.0,0.0,0.0,0.0,0.0,0.0,0.0,0.0,0.0,0.0,0.0,0.0,0.0,0.0,0.0,0.0,0.0,0.0,0.0,0.0,0.0,0.0,0.0,0.0,0.0,0.0,0.0,0.0,0.0,0.0,0.0,0.0,0.0,0.0,0.0,0.0,0.0,0.0,0.0,0.0,0.0,0.0,0.0,0.0,0.0,0.0,0.0,0.0,0.0,0.0,0.0,0.0,0.0,0.0,0.0,0.0,0.0,0.0,0.0,0.0,0.0,0.0,0.0,0.0,0.0,0.0,0.0,0.0,0.0,0.0,0.0,0.0,0.0,0.0,0.0,0.0,0.0,0.0,0.0,0.0,0.0,0.0,0.0,0.0,0.0,0.0,0.0,0.0,0.0,0.0,0.0,0.0,0.0,0.0,0.0,0.0,0.0,0.0,0.0,0.0,0.0,0.0,0.0,0.0,0.0,0.0,0.0,0.0,0.0,0.0,0.0,0.0,0.0,0.0,0.0,0.0,0.0,0.0,0.0,0.0,0.0,0.0,0.0,0.0,0.0,0.0,0.0,0.0,0.0,0.0,0.0,0.0,0.0,0.0,0.0,0.0,0.0,0.0,0.0,0.0,0.0,0.0,0.0,0.0,0.0,0.0,0.0,0.0,0.0,0.0,0.0,0.0,0.0,0.0,0.0,0.0,0.0,0.0,0.0,0.0,0.0,0.0,0.0,0.0,0.0,0.0,0.0,0.0,0.0,0.0,0.0,0.0,0.0,0.0,0.0,0.0,0.0,0.0,0.0,0.0,0.0,0.0,0.0,0.0,0.0,0.0,0.0,0.0,0.0,0.0,0.0,0.0,0.0,0.0,0.0,0.0,0.0,0.0,0.0,0.0,0.0,0.0,0.0,0.0,0.0,0.0,0.0,0.0,0.0,0.0,0.0,0.0,0.0,0.0,0.0,0.0,0.0,0.0,0.0,0.0,0.0,0.0,0.0,0.0,0.0,0.0,0.0,0.0,0.0,0.0,0.0,0.0,0.0,0.0,0.0,0.0,0.0,0.0,0.0,0.0,0.0,0.0,0.0,0.0,0.0,0.0,0.0,0.0,0.0,0.0,0.0,0.0,0.0,0.0,0.0,0.0,0.0,0.0,0.0,0.0,0.0,0.0,0.0,0.0,0.0,0.0,0.0,0.0,0.0,0.0,0.0,0.0,0.0,0.0,0.0,0.0,0.0,0.0,0.0,0.0,0.0,0.0,0.0,0.0,0.0,0.0,0.0,0.0,0.0,0.0,0.0,0.0,0.0,0.0,0.0,0.0,0.0,0.0,0.0,0.0,0.0,0.0,0.0,0.0,0.0,0.0,0.0,0.0,0.0,0.0,0.0,0.0,0.0,0.0,0.0,0.0,0.0,0.0,0.0,0.0,0.0,0.0,0.0,0.0,0.0,0.0,0.0,0.0,0.0,0.0,0.0,0.0,0.0,0.0,0.0,0.0,0.0,0.0,0.0,0.0,0.0,0.0,0.0,0.0,0.0,0.0,0.0,0.0,0.0,0.0,0.0,0.0,0.0,0.0,0.0,0.0,0.0,0.0,0.0,0.0,0.0,0.0,0.0,0.0,0.0,0.0,0.0,0.0,0.0,0.0,0.0,0.0,0.0,0.0,0.0,0.0,0.0,0.0,0.0,0.0,0.0,0.0,0.0,0.0,0.0,0.0,0.0,0.0,0.0,0.0,0.0,0.0,0.0,0.0,0.0,0.0,0.0,0.0,0.0,0.0,0.0,0.0,0.0,0.0,0.0,0.0,0.0,0.0,0.0,0.0,0.0,0.0,0.0,0.0,0.0,0.0,0.0,0.0,0.0,0.0,0.0,0.0,0.0,0.0,0.0,0.0,0.0,0.0,0.0,0.0,0.0,0.0,0.0,0.0,0.0,0.0,0.0,0.0,0.0,0.0,0.0,0.0,0.0,0.0,-0.9197,0.0,0.0,0.0,0.0,0.0,0.0,0.0,0.0,0.0,0.0,0.0,0.0,0.0,0.0,0.0,0.0,0.0,0.0,0.0,0.0,0.0,0.0,0.0,0.0,0.0,0.0,0.0,0.0,0.0,0.0,0.0,0.0,0.0,0.0,0.0,0.0,0.0,0.0,0.0,0.0,0.0,0.0,0.0,0.0,0.0,0.0,0.0,0.0,0.0,0.0,0.0,0.0,0.0,0.0,0.0,0.0,0.0,0.0,0.0,0.0,0.0,0.0,0.0,0.0,0.0,0.0,0.0,0.0,0.0,0.0,0.0,0.0,0.0,0.0,0.0,0.0,0.0,0.0,0.0,0.0,0.0,0.0,0.0,0.0,0.0,0.0,0.0,0.0,0.0,0.0,0.0,0.0,0.0,0.0,0.0,0.0,0.0,0.0,0.0,0.0,0.0,0.0,0.0,0.0,0.0,0.0,0.0,0.0,0.0,0.0,-0.911,-0.9806,-0.8597,-0.8427,-0.951,0.0,0.0,0.0,0.0,0.0,0.0,0.0,0.0,0.0,0.0,0.0,0.0,0.0,0.0,0.0,0.0,0.0,0.0,0.0,0.0,0.0,0.0,0.0,0.0,0.0,0.0,0.0,0.0,0.0,0.0,0.0,0.0,0.0,0.0,0.0,0.0,0.0,0.0,0.0,0.0,0.0,0.0,0.0,0.0,0.0,0.0,0.0,0.0,0.0,0.0,0.0,0.0,0.0,0.0,0.0,0.0,0.0,0.0,0.0,0.0,0.0,0.0,0.0,0.0,0.0,0.0,0.0,0.0,0.0,0.0,0.0,0.0,0.0,0.0,0.0,0.0,0.0,0.0,0.0,0.0,0.0,0.0,0.0,0.0,0.0,0.0,0.0,0.0,0.0,0.0,0.0,0.0,0.0,0.0,0.0,0.0,0.0,0.0,0.0,0.0,0.0,0.0,0.0,0.0,0.0,0.0,0.0,0.0,0.0,0.0,0.0,0.0,-0.9305,-0.9149,-1.022,0.0,0.0,0.0,0.0,0.0,0.0,0.0,0.0,0.0,0.0,0.0,0.0,0.0,0.0,0.0,0.0,0.0,0.0,0.0,0.0,0.0,0.0,0.0,0.0,0.0,0.0,0.0,0.0,0.0,0.0,0.0,0.0,0.0,0.0,0.0,0.0,0.0,0.0,0.0,0.0,0.0,0.0,0.0,0.0,0.0,0.0,0.0,0.0,0.0,0.0,0.0,0.0,0.0,0.0,0.0,0.0,0.0,0.0,0.0,0.0,0.0,0.0,0.0,0.0,0.0,0.0,0.0,0.0,0.0,0.0,0.0,0.0,0.0,0.0,0.0,0.0,0.0,0.0,0.0,0.0,0.0,0.0,0.0,0.0,0.0,0.0,0.0,0.0,0.0,0.0,0.0,0.0,0.0,0.0,0.0,0.0,0.0,0.0,0.0,0.0,0.0,0.0,0.0,0.0,0.0,0.0,0.0,0.0,0.0,0.0,-1.0679,-1.2285,-1.2127,0.0,-1.1989,0.0,0.0,0.0,0.0,0.0,0.0,0.0,0.0,0.0,0.0,0.0,0.0,0.0,0.0,0.0,0.0,0.0,0.0,0.0,0.0,0.0,0.0,0.0,0.0,0.0,0.0,0.0,0.0,0.0,0.0,0.0,0.0,0.0,0.0,0.0,0.0,0.0,0.0,0.0,0.0,0.0,0.0,0.0,0.0,0.0,0.0,0.0,0.0,0.0,0.0,0.0,0.0,0.0,0.0,0.0,0.0,0.0,0.0,0.0,0.0,0.0,0.0,0.0,0.0,0.0,0.0,0.0,0.0,0.0,0.0,0.0,0.0,0.0,0.0,0.0,0.0,0.0,0.0,0.0,0.0,0.0,0.0,0.0,0.0,0.0,0.0,0.0,0.0,0.0,0.0,0.0,0.0,0.0,0.0,0.0,0.0,0.0,0.0,0.0,0.0,0.0,0.0,0.0,0.0,0.0,0.0,0.0,0.0,0.0,0.0,-1.068,-1.1866,-1.1736,-1.1419,0.0,0.0,0.0,0.0,0.0,0.0,0.0,0.0,0.0,0.0,0.0,0.0,0.0,0.0,0.0,0.0,0.0,0.0,0.0,0.0,0.0,0.0,0.0,0.0,0.0,0.0,0.0,0.0,0.0,0.0,0.0,0.0,0.0,0.0,0.0,0.0,0.0,0.0,0.0,0.0,0.0,0.0,0.0,0.0,0.0,0.0,0.0,0.0,0.0,0.0,0.0,0.0,0.0,0.0,0.0,0.0,0.0,0.0,0.0,0.0,0.0,0.0,0.0,0.0,0.0,0.0,0.0,0.0,0.0,0.0,0.0,0.0,0.0,0.0,0.0,0.0,0.0,0.0,0.0,0.0,0.0,0.0,0.0,0.0,0.0,0.0,0.0,0.0,0.0,0.0,0.0,0.0,0.0,0.0,0.0,0.0,0.0,0.0,0.0,0.0,0.0,0.0,0.0,0.0,0.0,0.0,0.0,0.0,0.0,0.0,-1.0801,-1.1047,-1.1992,-1.1239,-1.0728,-1.0596,0.0,0.0,0.0,0.0,0.0,0.0,0.0,0.0,0.0,0.0,0.0,0.0,0.0,0.0,0.0,0.0,0.0,0.0,0.0,0.0,0.0,0.0,0.0,0.0,0.0,0.0,0.0,0.0,0.0,0.0,0.0,0.0,0.0,0.0,0.0,0.0,0.0,0.0,0.0,0.0,0.0,0.0,0.0,0.0,0.0,0.0,0.0,0.0,0.0,0.0,0.0,0.0,0.0,0.0,0.0,0.0,0.0,0.0,0.0,0.0,0.0,0.0,0.0,0.0,0.0,0.0,0.0,0.0,0.0,0.0,0.0,0.0,0.0,0.0,0.0,0.0,0.0,0.0,0.0,0.0,0.0,0.0,0.0,0.0,0.0,0.0,0.0,0.0,0.0,0.0,0.0,0.0,0.0,0.0,0.0,0.0,0.0,0.0,0.0,0.0,0.0,0.0,0.0,0.0,0.0,0.0,0.0,0.0,-1.369,-1.2261,-1.2183,-1.36,-1.1369,-1.0775,0.0,0.0,0.0,0.0,0.0,0.0,0.0,0.0,0.0,0.0,0.0,0.0,0.0,0.0,0.0,0.0,0.0,0.0,0.0,0.0,0.0,0.0,0.0,0.0,0.0,0.0,0.0,0.0,0.0,0.0,0.0,0.0,0.0,0.0,0.0,0.0,0.0,0.0,0.0,0.0,0.0,0.0,0.0,0.0,0.0,0.0,0.0,0.0,0.0,0.0,0.0,0.0,0.0,0.0,0.0,0.0,0.0,0.0,0.0,0.0,0.0,0.0,0.0,0.0,0.0,0.0,0.0,0.0,0.0,0.0,0.0,0.0,0.0,0.0,0.0,0.0,0.0,0.0,0.0,0.0,0.0,0.0,0.0,0.0,0.0,0.0,0.0,0.0,0.0,0.0,0.0,0.0,0.0,0.0,0.0,0.0,0.0,0.0,0.0,0.0,0.0,0.0,0.0,0.0,0.0,0.0,0.0,0.0,0.0,-1.1528,-1.1521,-1.1778,-1.2303,-1.135,-1.1115,0.0,0.0,0.0,0.0,0.0,0.0,0.0,0.0,0.0,0.0,0.0,0.0,0.0,0.0,0.0,0.0,0.0,0.0,0.0,0.0,0.0,0.0,0.0,0.0,0.0,0.0,0.0,0.0,0.0,0.0,0.0,0.0,0.0,0.0,0.0,0.0,0.0,0.0,0.0,0.0,0.0,0.0,0.0,0.0,0.0,0.0,0.0,0.0,0.0,0.0,0.0,0.0,0.0,0.0,0.0,0.0,0.0,0.0,0.0,0.0,0.0,0.0,0.0,0.0,0.0,0.0,0.0,0.0,0.0,0.0,0.0,0.0,0.0,0.0,0.0,0.0,0.0,0.0,0.0,0.0,0.0,0.0,0.0,0.0,0.0,0.0,0.0,0.0,0.0,0.0,0.0,0.0,0.0,0.0,0.0,0.0,0.0,0.0,0.0,0.0,0.0,0.0,0.0,0.0,0.0,0.0,0.0,0.0,0.0,-1.0634,0.0,-1.1468,-1.1492,-1.11,-1.0908,0.0,0.0,0.0,0.0,0.0,0.0,0.0,0.0,0.0,0.0,0.0,0.0,0.0,0.0,0.0,0.0,0.0,0.0,0.0,0.0,0.0,0.0,0.0,0.0,0.0,0.0,0.0,0.0,0.0,0.0,0.0,0.0,0.0,0.0,0.0,0.0,0.0,0.0,0.0,0.0,0.0,0.0,0.0,0.0,0.0,0.0,0.0,0.0,0.0,0.0,0.0,0.0,0.0,0.0,0.0,0.0,0.0,0.0,0.0,0.0,0.0,0.0,0.0,0.0,0.0,0.0,0.0,0.0,0.0,0.0,0.0,0.0,0.0,0.0,0.0,0.0,0.0,0.0,0.0,0.0,0.0,0.0,0.0,0.0,0.0,0.0,0.0,0.0,0.0,0.0,0.0,0.0,0.0,0.0,0.0,0.0,0.0,0.0,0.0,0.0,0.0,0.0,0.0,0.0,0.0,0.0,0.0,0.0,-1.0602,-1.1418,-1.1386,-1.1428,-1.1505,-1.0701,-1.019,0.0,0.0,0.0,0.0,0.0,0.0,0.0,0.0,0.0,0.0,0.0,0.0,0.0,0.0,0.0,0.0,0.0,0.0,0.0,0.0,0.0,0.0,0.0,0.0,0.0,0.0,0.0,0.0,0.0,0.0,0.0,0.0,0.0,0.0,0.0,0.0,0.0,0.0,0.0,0.0,0.0,0.0,0.0,0.0,0.0,0.0,0.0,0.0,0.0,0.0,0.0,0.0,0.0,0.0,0.0,0.0,0.0,0.0,0.0,0.0,0.0,0.0,0.0,0.0,0.0,0.0,0.0,0.0,0.0,0.0,0.0,0.0,0.0,0.0,0.0,0.0,0.0,0.0,0.0,0.0,0.0,0.0,0.0,0.0,0.0,0.0,0.0,0.0,0.0,0.0,0.0,0.0,0.0,0.0,0.0,0.0,0.0,0.0,0.0,0.0,0.0,0.0,0.0,0.0,0.0,0.0,0.0,0.0,0.0,-1.062,-1.057,-1.1418,-1.3071,-1.1768,-1.1772,0.0,0.0,0.0,0.0,0.0,0.0,0.0,0.0,0.0,0.0,0.0,0.0,0.0,0.0,0.0,0.0,0.0,0.0,0.0,0.0,0.0,0.0,0.0,0.0,0.0,0.0,0.0,0.0,0.0,0.0,0.0,0.0,0.0,0.0,0.0,0.0,0.0,0.0,0.0,0.0,0.0,0.0,0.0,0.0,0.0,0.0,0.0,0.0,0.0,0.0,0.0,0.0,0.0,0.0,0.0,0.0,0.0,0.0,0.0,0.0,0.0,0.0,0.0,0.0,0.0,0.0,0.0,0.0,0.0,0.0,0.0,0.0,0.0,0.0,0.0,0.0,0.0,0.0,0.0,0.0,0.0,0.0,0.0,0.0,0.0,0.0,0.0,0.0,0.0,0.0,0.0,0.0,0.0,0.0,0.0,0.0,0.0,0.0,0.0,0.0,0.0,0.0,0.0,0.0,0.0,0.0,0.0,0.0,0.0,-1.1574,-1.1281,-1.1899,-1.3487,-1.2738,-1.2722,-1.352,0.0,0.0,0.0,0.0,0.0,0.0,0.0,0.0,0.0,0.0,0.0,0.0,0.0,0.0,0.0,0.0,0.0,0.0,0.0,0.0,0.0,0.0,0.0,0.0,0.0,0.0,0.0,0.0,0.0,0.0,0.0,0.0,0.0,0.0,0.0,0.0,0.0,0.0,0.0,0.0,0.0,0.0,0.0,0.0,0.0,0.0,0.0,0.0,0.0,0.0,0.0,0.0,0.0,0.0,0.0,0.0,0.0,0.0,0.0,0.0,0.0,0.0,0.0,0.0,0.0,0.0,0.0,0.0,0.0,0.0,0.0,0.0,0.0,0.0,0.0,0.0,0.0,0.0,0.0,0.0,0.0,0.0,0.0,0.0,0.0,0.0,0.0,0.0,0.0,0.0,0.0,0.0,0.0,0.0,0.0,0.0,0.0,0.0,0.0,0.0,0.0,0.0,0.0,0.0,0.0,0.0,0.0,0.0,-1.409,-1.3469,-1.3128,-1.3061,-1.3701,-1.3239,0.0,0.0,0.0,0.0,0.0,0.0,0.0,0.0,0.0,0.0,0.0,0.0,0.0,0.0,0.0,0.0,0.0,0.0,0.0,0.0,0.0,0.0,0.0,0.0,0.0,0.0,0.0,0.0,0.0,0.0,0.0,0.0,0.0,0.0,0.0,0.0,0.0,0.0,0.0,0.0,0.0,0.0,0.0,0.0,0.0,0.0,0.0,0.0,0.0,0.0,0.0,0.0,0.0,0.0,0.0,0.0,0.0,0.0,0.0,0.0,0.0,0.0,0.0,0.0,0.0,0.0,0.0,0.0,0.0,0.0,0.0,0.0,0.0,0.0,0.0,0.0,0.0,0.0,0.0,0.0,0.0,0.0,0.0,0.0,0.0,0.0,0.0,0.0,0.0,0.0,0.0,0.0,0.0,0.0,0.0,0.0,0.0,0.0,0.0,0.0,0.0,0.0,0.0,0.0,0.0,0.0,0.0,0.0,0.0,-1.6695,-1.7748,-1.7696,-1.6439,-1.5983,-1.5467,0.0,0.0,0.0,0.0,0.0,0.0,0.0,0.0,0.0,0.0,0.0,0.0,0.0,0.0,0.0,0.0,0.0,0.0,0.0,0.0,0.0,0.0,0.0,0.0,0.0,0.0,0.0,0.0,0.0,0.0,0.0,0.0,0.0,0.0,0.0,0.0,0.0,0.0,0.0,0.0,0.0,0.0,0.0,0.0,0.0,0.0,0.0,0.0,0.0,0.0,0.0,0.0,0.0,0.0,0.0,0.0,0.0,0.0,0.0,0.0,0.0,0.0,0.0,0.0,0.0,0.0,0.0,0.0,0.0,0.0,0.0,0.0,0.0,0.0,0.0,0.0,0.0,0.0,0.0,0.0,0.0,0.0,0.0,0.0,0.0,0.0,0.0,0.0,0.0,0.0,0.0,0.0,0.0,0.0,0.0,0.0,0.0,0.0,0.0,0.0,0.0,0.0,0.0,0.0,0.0,0.0,0.0,0.0,-1.7308,-1.7771,-2.0435,-2.1218,-1.9877,-1.8643,-1.7262,0.0,0.0,0.0,0.0,0.0,0.0,0.0,0.0,0.0,0.0,0.0,0.0,0.0,0.0,0.0,0.0,0.0,0.0,0.0,0.0,0.0,0.0,0.0,0.0,0.0,0.0,0.0,0.0,0.0,0.0,0.0,0.0,0.0,0.0,0.0,0.0,0.0,0.0,0.0,0.0,0.0,0.0,0.0,0.0,0.0,0.0,0.0,0.0,0.0,0.0,0.0,0.0,0.0,0.0,0.0,0.0,0.0,0.0,0.0,0.0,0.0,0.0,0.0,0.0,0.0,0.0,0.0,0.0,0.0,0.0,0.0,0.0,0.0,0.0,0.0,0.0,0.0,0.0,0.0,0.0,0.0,0.0,0.0,0.0,0.0,0.0,0.0,0.0,0.0,0.0,0.0,0.0,0.0,0.0,0.0,0.0,0.0,0.0,0.0,0.0,0.0,0.0,0.0,0.0,0.0,0.0,0.0,0.0,-1.797,-1.8116,-2.204,-2.3755,-2.2909,-2.1067,-1.8569,0.0,0.0,0.0,0.0,0.0,0.0,0.0,0.0,0.0,0.0,0.0,0.0,0.0,0.0,0.0,0.0,0.0,0.0,0.0,0.0,0.0,0.0,0.0,0.0,0.0,0.0,0.0,0.0,0.0,0.0,0.0,0.0,0.0,0.0,0.0,0.0,0.0,0.0,0.0,0.0,0.0,0.0,0.0,0.0,0.0,0.0,0.0,0.0,0.0,0.0,0.0,0.0,0.0,0.0,0.0,0.0,0.0,0.0,0.0,0.0,0.0,0.0,0.0,0.0,0.0,0.0,0.0,0.0,0.0,0.0,0.0,0.0,0.0,0.0,0.0,0.0,0.0,0.0,0.0,0.0,0.0,0.0,0.0,0.0,0.0,0.0,0.0,0.0,0.0,0.0,0.0,0.0,0.0,0.0,0.0,0.0,0.0,0.0,0.0,0.0,0.0,0.0,0.0,0.0,0.0,0.0,0.0,0.0,-1.9167,-1.9901,-2.3288,-2.4657,-2.3765,-2.0784,-1.8512,0.0,0.0,0.0,0.0,0.0,0.0,0.0,0.0,0.0,0.0,0.0,0.0,0.0,0.0,0.0,0.0,0.0,0.0,0.0,0.0,0.0,0.0,0.0,0.0,0.0,0.0,0.0,0.0,0.0,0.0,0.0,0.0,0.0,0.0,0.0,0.0,0.0,0.0,0.0,0.0,0.0,0.0,0.0,0.0,0.0,0.0,0.0,0.0,-1.0847,0.0,0.0,0.0,0.0,0.0,0.0,0.0,0.0,0.0,0.0,0.0,0.0,0.0,0.0,0.0,0.0,0.0,0.0,0.0,0.0,0.0,0.0,0.0,0.0,0.0,0.0,0.0,0.0,0.0,0.0,0.0,0.0,0.0,0.0,0.0,0.0,0.0,0.0,0.0,0.0,0.0,0.0,0.0,0.0,0.0,0.0,0.0,0.0,0.0,0.0,0.0,0.0,0.0,0.0,0.0,0.0,0.0,0.0,0.0,-1.9343,-1.9925,-2.3454,-2.4739,-2.3449,-2.0868,-1.9066,0.0,0.0,0.0,0.0,0.0,0.0,0.0,0.0,0.0,0.0,0.0,0.0,0.0,0.0,0.0,0.0,0.0,0.0,0.0,0.0,0.0,0.0,0.0,0.0,0.0,0.0,0.0,0.0,0.0,0.0,0.0,0.0,0.0,0.0,0.0,0.0,0.0,0.0,0.0,0.0,0.0,0.0,0.0,0.0,0.0,0.0,0.0,0.0,0.0,0.0,0.0,0.0,0.0,0.0,0.0,0.0,0.0,0.0,0.0,0.0,0.0,0.0,0.0,0.0,0.0,0.0,0.0,0.0,0.0,0.0,0.0,0.0,0.0,0.0,0.0,0.0,0.0,0.0,0.0,0.0,0.0,0.0,0.0,0.0,0.0,0.0,0.0,0.0,0.0,0.0,0.0,0.0,0.0,0.0,0.0,0.0,0.0,0.0,0.0,0.0,0.0,0.0,0.0,0.0,0.0,0.0,0.0,-1.7834,-1.9215,-1.9901,-2.3288,-2.4463,-2.3108,-2.1276,-1.9926,-1.9104,0.0,0.0,0.0,0.0,0.0,0.0,0.0,0.0,0.0,0.0,0.0,0.0,0.0,0.0,0.0,0.0,0.0,0.0,0.0,0.0,0.0,0.0,0.0,0.0,0.0,0.0,0.0,0.0,0.0,0.0,0.0,0.0,0.0,0.0,0.0,0.0,0.0,0.0,-1.0039,-1.0063,0.0,0.0,0.0,0.0,0.0,0.0,0.0,0.0,-1.2643,0.0,0.0,0.0,0.0,0.0,0.0,0.0,0.0,0.0,0.0,0.0,0.0,0.0,0.0,0.0,0.0,0.0,0.0,0.0,0.0,0.0,0.0,0.0,0.0,0.0,0.0,0.0,0.0,0.0,0.0,0.0,0.0,0.0,0.0,0.0,0.0,0.0,0.0,0.0,0.0,0.0,0.0,0.0,0.0,0.0,0.0,0.0,0.0,0.0,0.0,0.0,0.0,0.0,0.0,0.0,0.0,-1.7429,-1.7944,-1.9536,-2.2306,-2.3624,-2.415,-2.3863,-2.2163,-2.0786,-1.9888,0.0,0.0,0.0,0.0,0.0,0.0,0.0,0.0,0.0,0.0,0.0,0.0,0.0,0.0,0.0,0.0,0.0,0.0,0.0,0.0,0.0,0.0,0.0,0.0,0.0,0.0,0.0,0.0,0.0,0.0,0.0,0.0,0.0,0.0,0.0,0.0,0.0,0.0,0.0,-1.0104,-1.0444,0.0,0.0,0.0,0.0,0.0,0.0,0.0,0.0,-1.3652,0.0,0.0,0.0,0.0,0.0,0.0,0.0,0.0,0.0,0.0,0.0,0.0,0.0,0.0,0.0,0.0,0.0,0.0,0.0,0.0,0.0,0.0,0.0,0.0,0.0,0.0,0.0,0.0,0.0,0.0,0.0,0.0,0.0,0.0,0.0,0.0,0.0,0.0,0.0,0.0,0.0,0.0,0.0,0.0,0.0,0.0,0.0,0.0,0.0,0.0,0.0,0.0,0.0,0.0,0.0,-1.839,-1.8164,-1.9155,-2.1629,-2.286,-2.3049,-2.2156,-2.1139,-2.045,0.0,0.0,0.0,0.0,0.0,0.0,0.0,0.0,0.0,0.0,0.0,0.0,0.0,0.0,0.0,0.0,0.0,0.0,0.0,0.0,0.0,0.0,0.0,0.0,0.0,0.0,0.0,0.0,0.0,0.0,0.0,0.0,0.0,0.0,0.0,0.0,0.0,0.0,0.0,0.0,-1.1447,-1.1617,-1.2046,0.0,0.0,0.0,0.0,0.0,0.0,-1.3602,-1.4114,0.0,0.0,0.0,0.0,0.0,0.0,0.0,0.0,0.0,0.0,0.0,0.0,0.0,0.0,0.0,0.0,0.0,0.0,0.0,0.0,0.0,0.0,0.0,0.0,0.0,0.0,0.0,0.0,0.0,0.0,0.0,0.0,0.0,0.0,0.0,0.0,0.0,0.0,0.0,0.0,0.0,0.0,0.0,0.0,0.0,0.0,0.0,0.0,0.0,0.0,0.0,0.0,0.0,0.0,0.0,-1.9061,-1.8362,-1.8843,-2.0705,-2.1817,-2.1804,-2.0591,-1.9819,-1.9629,0.0,0.0,0.0,0.0,0.0,0.0,0.0,0.0,0.0,0.0,0.0,0.0,0.0,0.0,0.0,0.0,0.0,0.0,0.0,0.0,0.0,0.0,0.0,0.0,0.0,0.0,0.0,0.0,0.0,0.0,0.0,0.0,0.0,0.0,0.0,0.0,0.0,0.0,0.0,0.0,0.0,-1.2765,-1.2935,-1.2815,0.0,0.0,0.0,0.0,-1.2725,-1.4437,0.0,0.0,0.0,0.0,0.0,0.0,0.0,0.0,0.0,0.0,0.0,0.0,0.0,0.0,0.0,0.0,0.0,0.0,0.0,0.0,0.0,0.0,0.0,0.0,0.0,0.0,0.0,0.0,0.0,0.0,0.0,0.0,0.0,0.0,0.0,0.0,0.0,0.0,0.0,0.0,0.0,0.0,0.0,0.0,0.0,0.0,0.0,0.0,0.0,0.0,0.0,0.0,0.0,0.0,0.0,0.0,-1.9163,-1.8438,-1.9156,-2.1486,-2.0959,-2.0862,-2.1385,-1.9054,-1.8507,0.0,0.0,0.0,0.0,0.0,0.0,0.0,0.0,0.0,0.0,0.0,0.0,0.0,0.0,0.0,0.0,0.0,0.0,0.0,0.0,0.0,0.0,0.0,0.0,0.0,0.0,0.0,0.0,0.0,0.0,0.0,0.0,0.0,0.0,0.0,0.0,0.0,0.0,0.0,0.0,0.0,-1.2974,-1.3747,-1.3185,-1.2693,0.0,0.0,-1.4502,-1.3008,-1.6069,0.0,0.0,0.0,0.0,0.0,0.0,0.0,0.0,0.0,0.0,0.0,0.0,0.0,0.0,0.0,0.0,0.0,0.0,0.0,0.0,0.0,0.0,0.0,0.0,0.0,0.0,0.0,0.0,0.0,0.0,0.0,0.0,0.0,0.0,0.0,0.0,0.0,0.0,0.0,0.0,0.0,0.0,0.0,0.0,0.0,0.0,0.0,0.0,0.0,0.0,0.0,0.0,0.0,0.0,0.0,-1.7532,-1.9161,-1.7948,-1.8037,-1.9516,-1.957,-1.9677,-1.9953,-1.8241,-1.8138,0.0,0.0,0.0,0.0,0.0,0.0,0.0,0.0,0.0,0.0,0.0,0.0,0.0,0.0,0.0,0.0,0.0,0.0,0.0,0.0,0.0,0.0,0.0,0.0,0.0,0.0,0.0,0.0,0.0,0.0,0.0,0.0,0.0,0.0,0.0,0.0,0.0,0.0,0.0,0.0,0.0,0.0,-1.396,-1.4091,0.0,0.0,0.0,-1.54,-1.3793,0.0,0.0,0.0,0.0,0.0,0.0,0.0,0.0,0.0,0.0,0.0,0.0,0.0,0.0,0.0,0.0,0.0,0.0,0.0,0.0,0.0,0.0,0.0,0.0,0.0,0.0,0.0,0.0,0.0,0.0,0.0,0.0,0.0,0.0,0.0,0.0,0.0,0.0,0.0,0.0,0.0,0.0,0.0,0.0,0.0,0.0,0.0,0.0,0.0,0.0,0.0,0.0,0.0,0.0,0.0,0.0,0.0,-1.9571,-1.7907,-1.7518,-1.8493,-1.8573,-1.8732,-1.8964,-1.7805,0.0,0.0,0.0,0.0,0.0,0.0,0.0,0.0,0.0,0.0,0.0,0.0,0.0,0.0,0.0,0.0,0.0,0.0,0.0,0.0,0.0,0.0,0.0,0.0,0.0,0.0,0.0,-1.0595,0.0,0.0,0.0,0.0,0.0,0.0,0.0,0.0,0.0,0.0,0.0,0.0,0.0,0.0,-1.4259,-1.4046,-1.4588,-1.4994,0.0,0.0,-1.5761,-1.4348,-1.6405,-1.6614,0.0,0.0,0.0,0.0,0.0,0.0,0.0,0.0,0.0,0.0,0.0,0.0,0.0,0.0,0.0,0.0,0.0,0.0,0.0,0.0,0.0,0.0,0.0,0.0,0.0,0.0,0.0,0.0,0.0,0.0,0.0,0.0,0.0,0.0,0.0,0.0,0.0,0.0,0.0,0.0,0.0,0.0,0.0,0.0,0.0,0.0,0.0,0.0,0.0,0.0,0.0,0.0,0.0,0.0,-1.9512,-2.0423,-1.8806,-1.8637,-2.0109,-1.8519,-1.8319,-1.9732,-1.7992,-1.7838,0.0,0.0,0.0,0.0,0.0,0.0,0.0,0.0,0.0,0.0,0.0,0.0,0.0,0.0,0.0,0.0,0.0,0.0,0.0,0.0,0.0,0.0,0.0,0.0,0.0,0.0,0.0,0.0,0.0,0.0,0.0,0.0,0.0,0.0,0.0,0.0,0.0,0.0,0.0,0.0,0.0,-1.4953,-1.4198,-1.4147,-1.4192,0.0,-1.4856,-1.5085,-1.4225,-1.692,-1.7907,-1.4375,0.0,0.0,0.0,0.0,0.0,0.0,0.0,0.0,0.0,0.0,0.0,0.0,0.0,0.0,0.0,0.0,0.0,0.0,0.0,0.0,0.0,0.0,0.0,0.0,0.0,0.0,0.0,0.0,0.0,0.0,0.0,0.0,0.0,0.0,0.0,0.0,0.0,0.0,0.0,0.0,0.0,0.0,0.0,0.0,0.0,0.0,0.0,0.0,0.0,0.0,0.0,0.0,0.0,-1.9432,-1.9773,-1.8571,-1.8209,-1.8706,-1.8375,-1.8431,-1.8948,-1.8174,-1.8282,0.0,0.0,0.0,0.0,0.0,0.0,0.0,0.0,0.0,0.0,0.0,0.0,0.0,0.0,0.0,0.0,0.0,0.0,0.0,0.0,0.0,0.0,0.0,0.0,0.0,0.0,0.0,0.0,-1.0782,-1.1662,-1.1959,0.0,0.0,0.0,0.0,0.0,0.0,0.0,0.0,0.0,0.0,-1.4659,-1.4854,-1.4895,0.0,0.0,-1.5601,-1.5682,-1.431,-1.6561,-1.7109,-1.3202,-1.5585,0.0,0.0,0.0,0.0,0.0,0.0,0.0,0.0,0.0,0.0,0.0,0.0,0.0,0.0,0.0,0.0,0.0,0.0,0.0,0.0,0.0,0.0,0.0,0.0,0.0,0.0,0.0,0.0,0.0,0.0,0.0,0.0,0.0,0.0,0.0,0.0,0.0,0.0,0.0,0.0,0.0,0.0,0.0,0.0,0.0,0.0,0.0,0.0,0.0,0.0,0.0,0.0,-1.9636,-1.9645,-1.871,-1.8294,-1.837,-1.8488,-1.8584,-1.8668,-1.8564,-1.8849,0.0,0.0,0.0,0.0,0.0,0.0,0.0,0.0,0.0,0.0,0.0,0.0,0.0,0.0,0.0,0.0,0.0,0.0,0.0,0.0,0.0,0.0,0.0,0.0,0.0,0.0,0.0,0.0,-1.1537,-1.2627,-1.2655,0.0,0.0,0.0,0.0,0.0,0.0,0.0,0.0,0.0,0.0,-1.5178,-1.5047,-1.543,-1.5756,-1.5786,-1.6079,-1.6066,-1.537,-1.6377,-1.6293,-1.354,0.0,0.0,0.0,0.0,0.0,0.0,0.0,0.0,0.0,0.0,0.0,0.0,0.0,0.0,0.0,0.0,0.0,0.0,0.0,0.0,0.0,0.0,0.0,0.0,0.0,0.0,0.0,-1.7676,0.0,0.0,-1.6381,0.0,0.0,0.0,0.0,0.0,0.0,0.0,0.0,0.0,0.0,0.0,0.0,0.0,0.0,0.0,0.0,0.0,0.0,0.0,0.0,0.0,0.0,-2.0396,-2.0444,-1.9468,-1.9288,-1.9868,-1.8944,-1.8702,-1.9246,-1.9193,-1.9547,-2.033,0.0,0.0,0.0,0.0,0.0,0.0,0.0,0.0,0.0,0.0,0.0,0.0,0.0,0.0,0.0,0.0,0.0,0.0,0.0,0.0,0.0,0.0,0.0,0.0,0.0,0.0,-1.2714,-1.2626,-1.2743,0.0,0.0,0.0,0.0,0.0,0.0,0.0,0.0,0.0,-1.312,-1.5722,-1.6875,-1.4492,-1.5508,-1.6484,-1.6618,-1.5954,-1.5974,-1.7534,-1.6518,-1.5705,0.0,0.0,0.0,0.0,0.0,0.0,0.0,0.0,0.0,0.0,0.0,0.0,0.0,0.0,0.0,0.0,0.0,0.0,0.0,0.0,0.0,0.0,0.0,0.0,0.0,0.0,0.0,-1.8159,-1.837,0.0,0.0,0.0,0.0,0.0,0.0,0.0,0.0,0.0,0.0,0.0,-2.1386,-2.1649,0.0,0.0,0.0,0.0,0.0,0.0,0.0,0.0,0.0,0.0,0.0,0.0,-2.0347,-2.0342,-1.9865,-1.9687,-1.9906,-1.9314,-1.9113,-1.9353,-1.9214,-1.9532,-2.0368,0.0,0.0,0.0,0.0,0.0,0.0,0.0,0.0,0.0,0.0,0.0,0.0,0.0,0.0,0.0,0.0,0.0,0.0,0.0,0.0,0.0,0.0,0.0,0.0,0.0,-1.5846,0.0,0.0,0.0,0.0,0.0,0.0,0.0,0.0,0.0,0.0,-1.5483,-1.5956,-1.5389,-1.5305,-1.5005,-1.4151,-1.4504,-1.5069,0.0,0.0,0.0,0.0,0.0,0.0,0.0,0.0,0.0,0.0,0.0,0.0,0.0,0.0,-1.8871,-1.9548,-2.0265,-2.0796,-2.0859,0.0,0.0,0.0,0.0,0.0,0.0,0.0,0.0,0.0,0.0,0.0,0.0,0.0,0.0,-1.9457,-1.9487,-1.9249,0.0,0.0,0.0,0.0,0.0,0.0,0.0,0.0,-2.1463,-2.215,-2.1991,-2.2178,-2.235,-2.2489,-2.2735,-2.214,0.0,0.0,0.0,0.0,0.0,0.0,0.0,0.0,-2.0581,-2.0612,-2.0591,-2.057,-2.0559,-2.0278,-1.9989,-1.9721,-1.9603,-1.9806,-2.0387,-2.1308,-2.1364,0.0,0.0,0.0,0.0,0.0,0.0,0.0,0.0,0.0,0.0,0.0,0.0,0.0,0.0,0.0,0.0,0.0,0.0,0.0,0.0,0.0,0.0,0.0,-1.5991,0.0,0.0,0.0,0.0,0.0,0.0,0.0,0.0,0.0,-1.5566,-1.6322,-1.6895,-1.6631,-1.6144,-1.5459,-1.4575,0.0,0.0,0.0,0.0,0.0,0.0,0.0,-1.657,-1.6575,-1.7479,-1.855,-1.9651,-2.0314,-2.0823,-2.1101,0.0,0.0,-2.2114,-2.2569,-2.2836,-2.2596,-2.1113,-2.0097,-2.061,-1.8967,-1.7517,0.0,0.0,0.0,0.0,-1.9607,0.0,0.0,0.0,-2.0755,-2.0884,0.0,-2.0107,0.0,0.0,0.0,0.0,-1.8839,-2.0442,0.0,0.0,-2.2671,-2.3461,-2.3364,-2.2416,-2.2293,-2.3042,-2.3728,-2.3253,-2.1766,-2.2061,0.0,0.0,0.0,0.0,0.0,0.0,-2.113,-2.123,-2.1639,-2.1853,-2.1754,-2.1692,-2.1242,-2.0372,-2.0444,-2.0497,-2.0513,-2.1297,-2.1767,-2.1912,-2.1285,0.0,0.0,0.0,0.0,0.0,0.0,0.0,0.0,0.0,0.0,0.0,0.0,0.0,0.0,0.0,0.0,0.0,0.0,0.0,0.0,-1.5829,0.0,0.0,0.0,0.0,0.0,0.0,0.0,0.0,0.0,-1.9146,-1.5996,-1.6875,-1.7532,-1.6759,0.0,0.0,0.0,0.0,-1.8362,-1.6794,-1.6604,-1.6934,-1.7812,-1.719,-1.7136,-1.8738,0.0,0.0,-1.8996,-2.0367,-2.1248,-2.0566,-2.2284,-2.379,-2.3114,-2.2997,-2.2751,-2.2031,-2.17,-2.1037,-1.9728,-1.942,-1.8691,-2.0545,0.0,0.0,0.0,0.0,-2.0479,-2.0806,-2.1327,-2.1496,-2.1635,-2.1713,-2.1589,0.0,0.0,0.0,0.0,0.0,0.0,-2.2098,-2.2567,-2.3068,-2.3683,-2.4386,-2.4071,-2.3922,-2.3866,-2.4088,-2.3934,-2.346,-2.3031,-2.2172,-2.0922,0.0,0.0,0.0,0.0,-2.1148,-2.1681,-2.1747,-2.1746,-2.1729,-2.1607,-2.1425,-2.1169,-2.1732,-2.2022,-2.2041,-2.2806,-2.3031,-2.2608,-2.0947,0.0,0.0,0.0,0.0,0.0,0.0,0.0,0.0,0.0,0.0,0.0,0.0,0.0,0.0,0.0,0.0,0.0,0.0,0.0,-1.6639,-1.6386,-1.6087,0.0,0.0,0.0,0.0,0.0,0.0,0.0,0.0,0.0,-1.8931,-1.8714,-1.8416,0.0,0.0,-1.5364,-1.5226,-1.5851,-1.6341,-1.6438,-1.6894,0.0,-1.9319,-1.8731,-1.8472,-1.966,-2.0316,-2.0307,-1.9128,-2.0307,-2.1531,-2.1866,-2.2058,-2.2642,-2.4197,-2.4105,-2.369,-2.3396,-2.2427,-2.187,-2.2391,-2.1681,-2.0764,-2.2276,-2.1492,-2.1505,-2.137,-2.117,-2.1379,-2.1615,-2.1887,-2.2565,-2.2712,-2.2519,-2.3111,-2.2339,-2.058,-2.1188,0.0,0.0,0.0,-2.3409,-2.434,-2.428,-2.4566,-2.513,-2.4924,-2.4715,-2.4512,-2.4809,-2.4791,-2.4495,-2.3832,-2.2922,-2.1697,0.0,-2.0841,-2.1089,-2.1355,-2.164,-2.1954,-2.2165,-2.2247,-2.2247,-2.1855,-2.1667,-2.1667,-2.1931,-2.208,-2.208,-2.2942,-2.3244,-2.2831,-2.0699,-1.9211,0.0,0.0,0.0,0.0,0.0,0.0,0.0,0.0,0.0,0.0,0.0,-1.7842,-1.6512,0.0,0.0,0.0,-1.771,-1.7832,-1.526,-1.6526,0.0,0.0,0.0,0.0,0.0,0.0,0.0,-1.9096,-2.0718,-2.1503,-2.0652,-2.0124,-1.9715,-1.9303,-1.7613,-1.658,-1.7104,0.0,-1.7238,-1.7377,-1.7999,-1.8745,-1.9551,-1.962,-1.9907,-2.0906,-2.1175,-2.1195,-2.0595,-2.1462,-2.244,-2.2867,-2.2852,-2.3106,-2.4388,-2.4167,-2.3858,-2.3899,-2.3071,-2.2604,-2.3221,-2.2498,-2.1858,-2.3907,-2.4179,-2.3175,-2.2429,-2.1943,-2.2725,-2.276,-2.2411,-2.3679,-2.389,-2.3388,-2.4454,-2.3801,-2.1923,-2.1665,0.0,-2.3808,-2.4078,-2.4893,-2.6093,-2.5879,-2.5762,-2.5764,-2.5212,-2.4964,-2.4935,-2.57,-2.5652,-2.4947,-2.4413,-2.3833,-2.3142,-2.2776,-2.2233,-2.1589,-2.2144,-2.2374,-2.2194,-2.2782,-2.3091,-2.3091,-2.2376,-2.1984,-2.2007,-2.1547,-2.1298,-2.1337,-2.2262,-2.2801,-2.2714,-2.0453,-1.902,-1.8821,0.0,0.0,0.0,0.0,0.0,0.0,0.0,0.0,0.0,0.0,0.0,0.0,0.0,0.0,-2.0039,-2.0014,0.0,-1.3702,-1.6655,0.0,0.0,0.0,-1.899,-1.98,-2.0758,-2.1325,-2.1286,0.0,0.0,-2.1476,-2.1249,-2.1324,-2.1704,-2.0849,-2.0188,-2.0258,-2.0183,-1.9962,-1.9141,-1.963,-1.9882,-1.9735,-2.0429,-2.1368,-2.2054,-2.1763,-2.1624,-2.228,-2.2958,-2.3512,-2.3645,-2.4134,-2.4358,-2.3839,-2.3649,-2.346,-2.374,-2.3498,-2.3121,-2.2758,-2.2431,-2.2111,-2.4652,-2.4724,-2.4466,-2.3851,-2.3046,-2.2889,-2.2935,-2.3121,-2.3469,-2.3703,-2.3914,-2.4168,-2.4123,-2.3852,-2.379,-2.4043,-2.4636,-2.502,-2.5533,-2.6128,-2.5747,-2.5935,-2.6557,-2.587,-2.5414,-2.5225,-2.541,-2.5393,-2.5159,-2.4529,-2.4224,-2.419,-2.3628,-2.2828,-2.1861,-2.1975,-2.2323,-2.2882,-2.3028,-2.3109,-2.3109,-2.2915,-2.2821,-2.2828,-2.2904,-2.2928,-2.2928,-2.3328,-2.3524,-2.3436,-1.9625,-1.8445,-2.0719,-1.7235,0.0,0.0,0.0,0.0,0.0,0.0,0.0,0.0,0.0,-2.0373,-1.8844,0.0,-1.9037,0.0,-1.6295,-1.6989,-1.8894,-1.8792,0.0,0.0,-1.9541,-1.9991,-2.1287,-2.1763,-2.1953,-2.1812,-2.2595,-2.3041,-2.2834,-2.2772,-2.3059,-2.3761,-2.1532,-2.0074,-2.0817,-2.0873,-2.0727,-2.0552,-2.1033,-2.169,-2.2158,-2.2576,-2.2628,-2.2229,-2.2129,-2.2198,-2.2424,-2.259,-2.2918,-2.3486,-2.3121,-2.3187,-2.4245,-2.3827,-2.3563,-2.398,-2.3296,-2.2821,-2.3944,-2.3191,-2.2497,-2.4759,-2.4863,-2.4486,-2.4146,-2.3818,-2.3537,-2.346,-2.3498,-2.3877,-2.4209,-2.4479,-2.4559,-2.468,-2.479,-2.4625,-2.4825,-2.5326,-2.5645,-2.612,-2.6658,-2.6301,-2.6394,-2.6822,-2.6317,-2.5983,-2.5832,-2.5832,-2.5815,-2.5782,-2.5063,-2.4775,-2.4901,-2.4218,-2.3602,-2.301,-2.2175,-2.1937,-2.2254,-2.2254,-2.2427,-2.273,-2.273,-2.2574,-2.2271,-2.2509,-2.2535,-2.2313,-2.25,-2.2664,-2.2652,-1.9181,-1.8011,-1.9795,-1.8284,-1.6165,0.0,0.0,0.0,0.0,0.0,0.0,0.0,0.0,0.0,0.0,0.0,-2.0598,-1.7976,-1.8151,-1.9119,-2.0814,-2.0421,-2.0512,-2.1667,-2.1406,-2.1643,-2.2842,-2.3098,-2.3142,-2.3082,-2.3473,-2.3752,-2.3803,-2.3704,-2.3869,-2.4465,-2.2912,-2.1973,-2.2556,-2.2397,-2.2065,-2.2032,-2.2607,-2.3182,-2.37,-2.3505,-2.3291,-2.3142,-2.2922,-2.2783,-2.2852,-2.2811,-2.2938,-2.3333,-2.2936,-2.2936,-2.4246,-2.4094,-2.3858,-2.4215,-2.3752,-2.351,-2.4335,-2.3521,-2.2868,-2.441,-2.4664,-2.3921,-2.3867,-2.4234,-2.4219,-2.3994,-2.3782,-2.4542,-2.4958,-2.5084,-2.5227,-2.5318,-2.5295,-2.4987,-2.5178,-2.5853,-2.6148,-2.6601,-2.7129,-2.697,-2.6824,-2.6691,-2.6537,-2.645,-2.6467,-2.645,-2.645,-2.6417,-2.5747,-2.538,-2.5247,-2.4629,-2.4342,-2.4286,-2.2658,-2.1635,-2.1339,-2.1254,-2.1498,-2.2141,-2.2073,-2.1701,-2.1102,-2.1293,-2.1229,-2.0758,-2.0965,-2.1171,-2.1327,-1.9039,-1.8028,-1.8744,-1.993,-2.018,0.0,-2.1433,0.0,0.0,0.0,0.0,0.0,0.0,0.0,0.0,-2.3828,-2.3159,-2.1483,-2.2331,-2.2492,-2.1343,-2.1876,-2.2508,-2.3069,-2.3143,-2.3416,-2.4116,-2.4284,-2.4355,-2.4355,-2.4301,-2.4283,-2.4301,-2.4192,-2.4154,-2.432,-2.4155,-2.3989,-2.4398,-2.3883,-2.3419,-2.349,-2.3992,-2.4154,-2.4118,-2.3693,-2.3575,-2.4113,-2.3812,-2.3377,-2.3382,-2.3385,-2.3347,-2.3238,-2.3194,-2.3456,-2.4244,-2.4284,-2.4303,-2.4528,-2.4283,-2.408,-2.4155,-2.3566,-2.307,-2.3767,-2.3852,-2.3681,-2.3653,-2.3724,-2.3739,-2.3909,-2.4204,-2.4679,-2.5301,-2.593,-2.5977,-2.6002,-2.6023,-2.5944,-2.5944,-2.6112,-2.6455,-2.6539,-2.6417,-2.6624,-2.659,-2.6345,-2.6274,-2.6239,-2.6256,-2.6256,-2.6256,-2.6256,-2.6106,-2.5725,-2.5128,-2.5046,-2.4713,-2.4129,0.0,0.0,0.0,-2.1481,-2.1271,-2.139,-2.0788,-2.0356,-2.0247,-2.0487,0.0,-2.0495,-2.071,-2.088,-2.087,-1.923,0.0,0.0,0.0,0.0,0.0,0.0,0.0,0.0,0.0,0.0,0.0,-2.4814,-2.4936,-2.5258,-2.5503,-2.5078,-2.3871,-2.3841,-2.3842,-2.3584,-2.3695,-2.3824,-2.3952,-2.395,-2.4024,-2.419,-2.4171,-2.4153,-2.4153,-2.4114,-2.4057,-2.4077,-2.4036,-2.4056,-2.4134,-2.4133,-2.4133,-2.421,-2.4118,-2.4063,-2.4063,-2.4155,-2.4209,-2.4113,-2.4044,-2.3989,-2.421,-2.4246,-2.3923,-2.3417,-2.3773,-2.3851,-2.3349,-2.3602,-2.3988,-2.421,-2.4209,-2.4227,-2.4284,-2.4075,-2.3979,-2.4265,-2.3639,-2.318,-2.3595,-2.3595,-2.3595,-2.3595,0.0,-2.3595,-2.3739,-2.3994,-2.4623,-2.54,-2.6168,-2.6203,-2.6203,-2.6203,-2.6203,-2.6203,-2.622,-2.6399,-2.6364,-2.622,-2.6364,-2.6364,-2.6203,-2.6203,-2.6203,-2.6203,-2.6203,-2.6203,-2.6203,-2.6203,-2.6021,-2.5657,-2.5675,-2.5511,-2.5179,-2.461,-2.3583,-2.2209,-2.1894,-2.1735,-2.1718,-2.1319,-2.1143,-2.116,-2.1275,0.0,0.0,0.0,0.0,0.0,0.0,0.0,0.0,-2.2702,0.0,-2.5358,-2.5033,-2.4879,-2.5237,-2.5332,-2.5721,-2.6422,-2.6531,-2.6599,-2.6682,-2.6344,-2.5972,-2.5461,-2.4668,-2.4151,-2.4094,-2.4095,-2.4113,-2.4095,-2.4113,-2.4113,-2.4113,-2.4075,-2.4056,-2.4054,-2.3996,-2.3976,-2.3978,-2.3976,-2.3996,-2.4036,-2.4054,-2.4036,-2.4054,-2.4151,-2.4208,-2.4151,-2.4113,-2.4094,-2.4112,-2.4132,-2.417,-2.419,-2.4266,-2.397,-2.3232,-2.3435,-2.3564,-2.3195,-2.3401,-2.3694,-2.4116,-2.419,-2.417,-2.4054,-2.3996,-2.3998,-2.4098,-2.3728,-2.3561,-2.3595,-2.3595,-2.3595,-2.3595,-2.3595,-2.3595,-2.3681,-2.3879,-2.4583,0.0,0.0,-2.6203,-2.6203,-2.6203,-2.6203,-2.6203,-2.6203,-2.6203,-2.6203,-2.6203,-2.6203,-2.6203,-2.6203,-2.6203,-2.6203,-2.6203,-2.6203,-2.6203,-2.6203,-2.6203,-2.6203,-2.6203,-2.6203,-2.6222,-2.6279,-2.5849,-2.4641,-2.2761,-2.2394,-2.2282,-2.2282,-2.2147,-2.213,-2.231,-2.2327,-2.2377,-2.2535,-2.2561,-2.2624,-2.2782,-2.2754,-2.3086,-2.3841,-2.4093,-2.4563,-2.5305,-2.5575,-2.6013,-2.6654,-2.6707,-2.697,-2.7666,-2.7713,-2.7715,-2.7725,-2.6838,-2.6296,-2.6318,-2.5099,-2.4224,-2.3912,-2.4044,-2.4065,-2.3937,-2.3958,-2.3978,-2.3998,-2.3979,-2.3978,-2.3958,-2.3876,-2.3837,-2.3955,-2.3876,-2.3837,-2.3896,-2.3896,-2.3878,-2.3896,-2.4016,-2.4132,-2.4056,-2.4034,-2.4016,-2.4054,-2.4094,-2.4132,-2.417,-2.419,-2.3859,-2.3088,-2.2923,-2.2923,-2.274,-2.2832,-2.3252,-2.3911,-2.4054,-2.3996,-2.3756,-2.3855,-2.3955,-2.3795,-2.371,-2.3735,-2.361,-2.3595,-2.3595,-2.3595,-2.3595,-2.3595,-2.4048,-2.4704,-2.4863,-2.54,-2.6203,-2.6203,-2.6203,-2.6203,-2.6203,-2.6203,-2.6203,-2.6203,-2.6203,-2.6203,-2.6203,-2.6203,-2.6203,-2.6203,-2.6203,-2.6203,-2.6203,-2.6203,-2.6203,-2.6203,-2.6203,-2.6203,-2.6203,-2.6203,-2.6239,-2.6195,-2.573,-2.4746,-2.3066,-2.2214,-2.2197,-2.1524,-2.1535,-2.2248,-2.2344,-2.231,-2.2321,-2.24,-2.2349,-2.2394,-2.2948,-2.3693,-2.4608,-2.5347,-2.6189,-2.7039,-2.7274,-2.742,-2.7508,-2.7543,-2.7578,-2.7683,-2.7487,-2.75,-2.7794,-2.7101,-2.6357,-2.5725,-2.5379,-2.475,-2.359,-2.4091,-2.4271,-2.379,-2.3873,-2.3976,-2.3971,-2.3969,-2.3912,-2.3876,-2.3707,-2.362,-2.3753,-2.3664,-2.3558,-2.3562,-2.3566,-2.3522,-2.3477,-2.3714,-2.3976,-2.3937,-2.3976,-2.3958,-2.3896,-2.4016,-2.4036,-2.4113,-2.4095,-2.362,-2.2355,-2.2575,-2.2685,-2.2026,-2.2389,-2.2964,-2.3629,-2.361,-2.3544,-2.3455,-2.3422,-2.3353,-2.3432,-2.3335,-2.3371,-2.4373,-2.4627,-2.4298,-2.4163,-2.4133,-2.4018,-2.457,-2.548,-2.5281,-2.5589,-2.6168,-2.6203,-2.6203,-2.6203,-2.6203,-2.6203,-2.6203,-2.6203,-2.6203,-2.6203,-2.6203,-2.6203,-2.6203,-2.6203,-2.6203,-2.6203,-2.6203,-2.6203,-2.6203,-2.6203,-2.6203,-2.6203,-2.6203,-2.6203,-2.6203,-2.6277,-2.5894,-2.5128,-2.4295,-2.3703,-2.3379,-2.3038,-2.3253,-2.4069,-2.4103,-2.4289,-2.4678,-2.4695,-2.4681,-2.4618,-2.4929,-2.5314,-2.5756,-2.5933,-2.6252,-2.6673,-2.659,-2.6607,-2.6822,-2.6839,-2.6937,-2.7115,-2.6856,-2.6824,-2.7215,-2.6765,-2.6339,-2.6073,-2.5368,-2.4742,-2.4355,-2.4122,-2.3943,-2.3927,-2.4221,-2.4175,-2.3671,-2.3879,-2.391,-2.3531,-2.3364,-2.3324,-2.3405,-2.3348,-2.3301,-2.3289,-2.3289,-2.3242,-2.3153,-2.3335,-2.3495,-2.3459,-2.3495,-2.3495,-2.3477,-2.3522,-2.3628,-2.3795,-2.3392,-2.2906,-2.2242,-2.2495,-2.2321,-2.2102,-2.2467,-2.2994,-2.3419,-2.3392,-2.3318,-2.3194,-2.3218,-2.3218,-2.317,-2.3109,-2.3182,-2.4926,-2.533,-2.5001,-2.4807,-2.4731,-2.4537,-2.5086,-2.607,-2.5889,-2.6101,-2.6614,-2.6369,-2.6203,-2.6203,-2.6203,-2.6203,-2.6203,-2.6203,-2.6303,-2.6435,-2.6303,-2.625,-2.6294,-2.6231,-2.6132,-2.6079,-2.6132,-2.6203,-2.6203,-2.6203,-2.6203,-2.6168,-2.6079,-2.6079,-2.6203,-2.6154,-2.5889,-2.5392,-2.5445,-2.5213,-2.4607,-2.4622,-2.4991,-2.5746,-2.5813,-2.61,-2.6624,-2.659,-2.6504,-2.6486,-2.6404,-2.6302,-2.6295,-2.6023,-2.5897,-2.5888,-2.5652,-2.5652,-2.5908,-2.598,-2.612,-2.6382,-2.6227,-2.6191,-2.6401,-2.6377,-2.6303,-2.622,-2.5244,-2.4694,-2.4868,-2.4296,-2.3844,-2.4325,-2.4696,-2.4603,-2.3848,-2.4112,-2.4173,-2.3499,-2.3284,-2.3263,-2.3119,-2.3042,-2.301,-2.301,-2.296,-2.2935,-2.2917,-2.2917,-2.2917,-2.295,-2.3025,-2.314,-2.3105,-2.3117,-2.3236,-2.3459,-2.2941,-2.2468,-2.2249,-2.2036,-2.1981,-2.1931,-2.2339,-2.2776,-2.3023,-2.3105,-2.3025,-2.291,-2.2968,-2.3007,-2.2884,-2.2893,-2.2952,-2.4642,-2.4761,-2.53,-2.5379,-2.5182,-2.4977,-2.5528,-2.6444,-2.6506,-2.7169,-2.7959,-2.68,-2.6236,-2.6203,-2.6203,-2.6203,-2.6203,-2.6203,-2.6551,-2.7031,-2.6518,-2.6336,-2.6542,-2.6336,-2.599,-2.5696,-2.604,-2.6198,-2.6234,-2.622,-2.6203,-2.6115,-2.5775,-2.5758,-2.6079,-2.5758,-2.5726,-2.6068,-2.6104,-2.5809,-2.518,-2.5246,-2.5665,-2.6386,-2.6471,-2.6539,-2.6572,-2.6277,-2.6066,-2.6033,-2.5723,-2.5461,-2.5395,-2.5411,-2.5449,-2.5481,-2.5465,-2.554,-2.554,-2.554,-2.5605,-2.5637,-2.5917,-2.5937,-2.5697,-2.6262,-2.6368,-2.5856,-2.5365,-2.504,-2.4649,-2.4648,-2.4695,-2.4827,-2.5114,-2.5218,-2.5023,-2.5166,-2.4927,-2.4173,-2.3771,-2.3561,-2.3125,-2.2876,-2.2764,-2.2721,-2.2579,-2.2487,-2.246,-2.246,-2.246,-2.2497,-2.2756,-2.3042,-2.3067,-2.3105,-2.3087,-2.31,-2.3094,-2.2498,-2.1737,-2.1644,-2.1829,-2.1429,-2.1569,-2.2156,-2.2574,-2.2721,-2.2605,-2.2632,-2.2615,-2.2605,-2.2552,-2.2569,-2.2632,-2.5435,-2.5779,-2.5894,-2.5613,-2.5164,-2.564,-2.6156,-2.661,-2.6913,-2.7564,-2.8274,-2.7744,-2.7263,-2.6833,-2.6419,-2.6203,-2.6236,-2.6634,-2.6998,-2.728,-2.7098,-2.7062,-2.7154,-2.6776,-2.6494,-2.6349,-2.6354,-2.6352,-2.6363,-2.6257,-2.6203,-2.6115,-2.5721,-2.5594,-2.5721,-2.5368,-2.5253,-2.5438,-2.5438,-2.5277,-2.5077,-2.5389,-2.5855,-2.64,-2.6277,-2.6137,-2.6101,-2.5957,-2.5775,-2.554,-2.5362,-2.5308,-2.5329,-2.5116,-2.5069,-2.513,-2.5137,-2.5121,-2.516,-2.516,-2.5275,-2.5508,-2.5411,-2.5373,-2.5491,-2.5819,-2.5919,-2.5931,-2.6,-2.5998,-2.5793,-2.538,-2.5128,-2.534,-2.58,-2.5802,-2.4896,-2.5234,-2.5047,-2.3932,-2.363,-2.3317,-2.2767,-2.2542,-2.246,-2.246,-2.2366,-2.2327,-2.2327,-2.2327,-2.2327,-2.2338,-2.2497,-2.2605,-2.2642,-2.2642,-2.2686,-2.2729,-2.2366,-2.1641,-2.1592,-2.1326,-2.1376,-2.1073,-2.1576,-2.2029,-2.2429,-2.2515,-2.2432,-2.2432,-2.2432,-2.2432,-2.2377,-2.2405,-2.246,-2.5907,-2.6516,-2.6562,-2.6204,-2.5719,-2.6308,-2.6665,-2.6759,-2.6891,-2.7586,-2.8605,-2.8204,-2.7902,-2.7641,-2.7094,-2.6816,-2.6866,-2.7217,-2.7509,-2.7613,-2.7527,-2.7448,-2.7482,-2.7126,-2.6753,-2.6518,-2.6486,-2.6467,-2.6428,-2.625,-2.6132,-2.5954,-2.5572,-2.5313,-2.5275,-2.4942,-2.4784,-2.4902,-2.4902,-2.4902,-2.4942,-2.5176,-2.5551,-2.5974,-2.5758,-2.5577,-2.5577,-2.5481,-2.5275,-2.5005,-2.4894,-2.4855,-2.4997,-2.4755,-2.4647,-2.4751,-2.4775,-2.4759,-2.4759,-2.4823,-2.5035,-2.5303,-2.5233,-2.5287,-2.5468,-2.557,-2.5762,-2.6035,-2.635,-2.6471,-2.6607,-2.5812,-2.5443,-2.5849,-2.6421,-2.6152,-2.5063,-2.5312,-2.5053,-2.3687,-2.3435,-2.3122,-2.2513,-2.2327,-2.2327,-2.231,-2.231,-2.2327,-2.2327,-2.2327,-2.2327,-2.2327,-2.231,-2.231,-2.2327,-2.2338,-2.2422,-2.2375,-2.2,-2.1693,-2.1593,-2.1428,-2.1305,-2.1361,-2.1942,-2.2243,-2.2349,-2.2366,-2.2394,-2.2366,-2.2394,-2.2366,-2.2338,-2.2366,-2.2366,-2.5705,-2.6468,-2.7301,-2.7494,-2.7397,-2.6807,-2.6836,-2.7076,-2.6438,-2.73,-2.8845,-2.7805,-2.771,-2.8572,-2.8319,-2.8257,-2.8147,-2.7753,-2.7931,-2.8359,-2.7508,-2.7076,-2.7273,-2.7014,-2.6392,-2.5821,-2.6287,-2.6426,-2.6224,-2.6076,-2.5848,-2.554,-2.516,-2.4942,-2.4863,-2.4517,-2.4492,-2.4784,-2.4823,-2.4863,-2.4823,-2.4517,-2.4558,-2.4942,-2.5005,-2.5028,-2.5005,-2.4704,-2.4461,-2.443,-2.4153,-2.3975,-2.4094,-2.4094,-2.4193,-2.4343,-2.4385,-2.4385,-2.4451,-2.4759,-2.4981,-2.5044,-2.5561,-2.5855,-2.5475,-2.5619,-2.5835,-2.6068,-2.598,-2.6175,-2.6505,-2.5848,-2.5645,-2.6454,-2.6623,-2.6253,-2.5615,-2.5512,-2.4922,-2.3818,-2.3456,-2.3156,-2.2462,-2.2327,-2.2327,-2.2327,-2.2327,-2.2327,-2.2327,-2.2327,-2.2327,-2.2327,-2.2327,-2.2327,-2.2327,-2.2327,-2.231,-2.2287,-2.2197,-2.1989,-2.1786,-2.16,-2.1566,-2.16,-2.2006,-2.2243,-2.2293,-2.2327,-2.231,-2.231,-2.231,-2.231,-2.231,-2.231,-2.2327,-2.6034,-2.7142,-2.7243,-2.7394,-2.7478,-2.6599,-2.627,-2.6415,-2.6602,-2.7089,-2.7859,-2.8148,-2.8564,-2.8949,-2.8902,-2.8319,-2.7538,-2.7689,-2.8013,-2.8224,-2.7934,-2.7845,-2.7873,-2.7561,-2.7172,-2.6851,-2.6765,-2.6587,-2.6186,-2.5816,-2.5535,-2.5384,-2.4981,-2.4688,-2.4436,-2.4036,-2.3867,-2.4063,-2.4048,-2.409,-2.409,-2.3937,-2.3937,-2.409,-2.4379,-2.4558,-2.4558,-2.4436,-2.4313,-2.4162,-2.4058,-2.4088,-2.4155,-2.4361,-2.4528,-2.4661,-2.4909,-2.5069,-2.5059,-2.5198,-2.5275,-2.5313,-2.554,-2.557,-2.5234,-2.5277,-2.5389,-2.5427,-2.5709,-2.6016,-2.616,-2.5981,-2.6,-2.6505,-2.6285,-2.5949,-2.5665,-2.5563,-2.5188,-2.4295,-2.3718,-2.3274,-2.2987,-2.2615,-2.2327,-2.2327,-2.2327,-2.2327,-2.2327,-2.2327,-2.2327,-2.2327,-2.2327,-2.2327,-2.2327,-2.2327,-2.2327,-2.2327,-2.226,-2.2209,-2.2073,-2.2023,-2.1972,-2.1938,-2.2226,-2.2276,-2.2327,-2.2327,-2.2327,-2.2327,-2.2327,-2.2327,-2.2327,-2.2327,-2.2327,-2.6771,-2.7786,-2.7907,-2.7913,-2.7824,-2.6857,-2.6356,-2.623,-2.6439,-2.6811,-2.7406,-2.7983,-2.842,-2.8764,-2.8654,-2.8062,-2.724,-2.7796,-2.8216,-2.8404,-2.8394,-2.8412,-2.8362,-2.8026,-2.7614,-2.7235,-2.699,-2.671,-2.65,-2.5981,-2.5543,-2.521,-2.4748,-2.4338,-2.3994,-2.3625,-2.3494,-2.3566,-2.3595,-2.3595,-2.3595,-2.3595,-2.3595,-2.3638,-2.3909,-2.4078,-2.4094,-2.4162,-2.412,-2.3912,-2.3975,-2.4119,-2.428,-2.4715,-2.4977,-2.506,-2.5285,-2.5508,-2.5519,-2.5519,-2.5503,-2.5503,-2.5529,-2.5378,-2.5148,-2.5189,-2.5169,-2.5192,-2.5329,-2.5652,-2.5835,-2.5908,-2.6139,-2.6539,-2.6251,-2.5844,-2.5639,-2.5622,-2.5251,-2.4594,-2.4069,-2.3714,-2.3393,-2.2953,-2.2615,-2.2378,-2.2327,-2.2327,-2.2327,-2.2327,-2.2327,-2.2327,-2.2327,-2.2327,-2.2327,-2.2327,-2.2327,-2.2327,-2.2327,-2.2327,-2.2327,-2.2327,-2.2327,-2.2327,-2.2327,-2.2327,-2.2327,-2.2327,-2.2327,-2.2327,-2.2327,-2.2327,-2.2327,-2.2327,-2.2254,-2.7947,-2.8481,-2.9349,-2.9065,-2.8453,-2.7437,-2.7038,-2.6598,-2.6016,-2.6535,-2.7501,-2.7,-2.7376,-2.7969,-2.776,-2.7479,-2.756,-2.7939,-2.8501,-2.9035,-2.8716,-2.8584,-2.8644,-2.8398,-2.7669,-2.6629,-2.6504,-2.6748,-2.7079,-2.65,-2.5821,-2.5035,-2.4487,-2.4016,-2.3393,-2.3466,-2.3466,-2.3494,-2.3566,-2.3595,-2.3595,-2.3595,-2.3595,-2.3595,-2.3638,-2.3653,-2.3638,-2.3767,-2.3867,-2.3739,-2.3842,-2.4036,-2.4486,-2.5028,-2.5392,-2.54,-2.5468,-2.5542,-2.5524,-2.5556,-2.5594,-2.5503,-2.5505,-2.5473,-2.5368,-2.5365,-2.5358,-2.5224,-2.5098,-2.5098,-2.5368,-2.5519,-2.5855,-2.6522,-2.6488,-2.6192,-2.5756,-2.56,-2.5368,-2.4811,-2.4577,-2.4218,-2.368,-2.346,-2.319,-2.2649,-2.2462,-2.2412,-2.2344,-2.2327,-2.2327,-2.2327,-2.2327,-2.2327,-2.2327,-2.2327,-2.2327,-2.2327,-2.2327,-2.2327,-2.2327,-2.2327,-2.2327,-2.2327,-2.2327,-2.2327,-2.2327,-2.2327,-2.2327,-2.2327,-2.2327,-2.2327,-2.2327,-2.2282,-2.2106,-2.8014,-2.9085,-2.8233,-2.8094,-2.8201,-2.6794,-2.6091,-2.6092,-2.6159,-2.6552,-2.6889,-2.7031,-2.7294,-2.7414,-2.7335,-2.7284,-2.7321,-2.7524,-2.8036,-2.8725,-2.8644,-2.8793,-2.8955,-2.8575,-2.7817,-2.6952,-2.6733,-2.6888,-2.7053,-2.667,-2.6212,-2.5857,-2.4967,-2.4327,-2.385,-2.3496,-2.3246,-2.3378,-2.3451,-2.3538,-2.3538,-2.3566,-2.3595,-2.3595,-2.3595,-2.3595,-2.3595,-2.3979,-2.4188,-2.4147,-2.4541,-2.4807,-2.4968,-2.5374,-2.5644,-2.5659,-2.6071,-2.616,-2.5888,-2.5852,-2.5738,-2.5546,-2.5447,-2.5309,-2.5116,-2.5045,-2.4902,-2.4679,-2.4775,-2.4942,-2.5036,-2.5329,-2.568,-2.6236,-2.61,-2.5947,-2.5739,-2.5644,-2.5747,-2.593,-2.5575,-2.5169,-2.4881,-2.456,-2.3866,-2.3207,-2.3038,-2.2856,-2.2462,-2.2316,-2.2327,-2.2327,-2.2327,-2.2327,-2.2327,-2.2327,-2.2327,-2.2327,-2.2327,-2.2327,-2.2327,-2.2327,-2.2327,-2.2327,-2.2327,-2.2327,-2.2327,-2.2327,-2.2327,-2.2327,-2.2327,-2.2327,-2.2327,-2.218,-2.202,-2.8426,-2.9548,-2.8365,-2.8015,-2.8117,-2.657,-2.5878,-2.5893,-2.6042,-2.6169,-2.6367,-2.6672,-2.7026,-2.7137,-2.713,-2.713,-2.7196,-2.7402,-2.7994,-2.8657,-2.8494,-2.8857,-2.9341,-2.8591,-2.801,-2.7569,-2.7406,-2.7531,-2.786,-2.7163,-2.6624,-2.6031,-2.5033,-2.4207,-2.3758,-2.3332,-2.3112,-2.3246,-2.3422,-2.3509,-2.3494,-2.3566,-2.3595,-2.3595,-2.3595,-2.3595,-2.3638,-2.4147,-2.441,-2.4482,-2.4967,-2.5265,-2.5301,-2.5701,-2.5982,-2.6023,-2.6279,-2.6452,-2.6046,-2.5779,-2.5626,-2.531,-2.5041,-2.4831,-2.4632,-2.4558,-2.442,-2.4162,-2.4328,-2.4574,-2.4574,-2.4942,-2.533,-2.5595,-2.5747,-2.5816,-2.5916,-2.5949,-2.6118,-2.6387,-2.6185,-2.5898,-2.5493,-2.5255,-2.4611,-2.3985,-2.3456,-2.322,-2.268,-2.2348,-2.2264,-2.2271,-2.2327,-2.2327,-2.2327,-2.2327,-2.2327,-2.2327,-2.2327,-2.2327,-2.2327,-2.2327,-2.2327,-2.2327,-2.2327,-2.2327,-2.2327,-2.2327,-2.2327,-2.2327,-2.2231,-2.2225,-2.2152,-2.2094,-2.1886,-2.9134,-2.9685,-2.9434,-2.8793,-2.8112,-2.6894,-2.6243,-2.6154,-2.5627,-2.5712,-2.6085,-2.6167,-2.6505,-2.7027,-2.7041,-2.7041,-2.7233,-2.7733,-2.8194,-2.8557,-2.8478,-2.87,-2.9504,-2.8582,-2.8085,-2.8088,-2.8161,-2.8434,-2.8685,-2.7814,-2.6872,-2.5923,-2.486,-2.3798,-2.3312,-2.3096,-2.3082,-2.3127,-2.3334,-2.3451,-2.3494,-2.3581,-2.3595,-2.3595,-2.3595,-2.3595,-2.3681,-2.4162,-2.4451,-2.4533,-2.5224,-2.5598,-2.5642,-2.6021,-2.6187,-2.6189,-2.6399,-2.631,-2.5954,-2.5572,-2.5192,-2.4934,-2.4558,-2.4131,-2.4124,-2.4197,-2.4124,-2.3882,-2.4009,-2.4067,-2.4135,-2.4451,-2.4776,-2.4907,-2.553,-2.605,-2.6505,-2.6537,-2.6537,-2.6521,-2.6504,-2.6234,-2.5614,-2.5497,-2.5078,-2.449,-2.3679,-2.3364,-2.2999,-2.2584,-2.217,-2.2157,-2.2254,-2.2254,-2.2254,-2.1961,-2.1991,-2.2282,-2.2254,-2.2225,-2.2198,-2.2192,-2.2057,-2.209,-2.2226,-2.226,-2.2158,-2.204,-2.204,-2.2006,-2.1984,-2.2039,-2.1991,-2.1886,-2.1631,-2.9697,-2.9448,-2.9323,-2.8682,-2.7615,-2.6708,-2.6046,-2.552,-2.5372,-2.5511,-2.5927,-2.5994,-2.6294,-2.6841,-2.687,-2.6884,-2.7001,-2.7525,-2.7875,-2.8021,-2.7933,-2.8272,-2.8889,-2.8583,-2.8121,-2.789,-2.8143,-2.8336,-2.8432,-2.7847,-2.7291,-2.6872,-2.5375,-2.433,-2.3702,-2.318,-2.2962,-2.2992,-2.3246,-2.3363,-2.3407,-2.3523,-2.3595,-2.3595,-2.3595,-2.3595,-2.3638,-2.4078,-2.4815,-2.5659,-2.5864,-2.5994,-2.5928,-2.5914,-2.5909,-2.6096,-2.6056,-2.5983,-2.586,-2.5551,-2.5214,-2.5036,-2.4482,-2.4181,-2.4067,-2.4067,-2.3982,-2.3882,-2.3925,-2.394,-2.3925,-2.4094,-2.4436,-2.4996,-2.5471,-2.6,-2.6419,-2.652,-2.6536,-2.6485,-2.6225,-2.5986,-2.5853,-2.5598,-2.5226,-2.462,-2.4078,-2.3636,-2.3142,-2.2609,-2.2118,-2.2074,-2.2152,-2.2152,-2.2077,-2.1768,-2.1738,-2.2152,-2.218,-2.2049,-2.1978,-2.1887,-2.1634,-2.1431,-2.182,-2.1938,-2.1617,-2.1353,-2.1465,-2.1837,-2.1866,-2.1957,-2.1781,-2.1661,-2.1355,-3.0344,-3.0021,-2.9508,-2.8617,-2.7399,-2.6391,-2.5819,-2.553,-2.4963,-2.4903,-2.5228,-2.5741,-2.58,-2.5724,-2.6414,-2.662,-2.6504,-2.7316,-2.7882,-2.8144,-2.8158,-2.8218,-2.8286,-2.8338,-2.8378,-2.8204,-2.824,-2.8432,-2.848,-2.7913,-2.7403,-2.694,-2.5923,-2.4854,-2.3985,-2.3557,-2.3149,-2.3006,-2.3142,-2.326,-2.3319,-2.348,-2.3551,-2.3595,-2.3595,-2.3681,-2.3952,-2.4219,-2.4726,-2.5442,-2.5654,-2.5733,-2.5856,-2.5556,-2.548,-2.5642,-2.5524,-2.5448,-2.5355,-2.5169,-2.4958,-2.4735,-2.4348,-2.4155,-2.3997,-2.3982,-2.3955,-2.3754,-2.3812,-2.3797,-2.3824,-2.3852,-2.4188,-2.4697,-2.5171,-2.5693,-2.6349,-2.6432,-2.6432,-2.6329,-2.617,-2.5937,-2.5954,-2.5701,-2.5378,-2.4851,-2.4084,-2.3624,-2.3144,-2.2557,-2.205,-2.1936,-2.1827,-2.1797,-2.1797,-2.154,-2.1432,-2.1781,-2.1974,-2.1886,-2.1831,-2.1714,-2.1437,-2.1285,-2.1515,-2.1481,-2.11,-2.11,-2.182,-2.2068,-2.1982,-2.1836,-2.1675,-2.154,-2.1182,-3.0831,-3.0761,-2.9651,-2.8566,-2.7405,-2.612,-2.5766,-2.5698,-2.4689,-2.4181,-2.4376,-2.5199,-2.5175,-2.4394,-2.606,-2.6422,-2.6039,-2.7215,-2.8013,-2.8419,-2.8577,-2.8444,-2.8121,-2.8188,-2.8364,-2.8494,-2.8352,-2.8448,-2.84,-2.7815,-2.727,-2.6789,-2.6135,-2.5287,-2.4455,-2.4054,-2.3688,-2.3354,-2.3406,-2.3466,-2.3452,-2.354,-2.3566,-2.3566,-2.3595,-2.3809,-2.412,-2.4261,-2.4421,-2.4823,-2.4894,-2.5162,-2.5349,-2.5045,-2.4918,-2.4958,-2.5036,-2.4934,-2.4751,-2.4751,-2.4589,-2.44,-2.4307,-2.407,-2.3855,-2.387,-2.3842,-2.3653,-2.3595,-2.3653,-2.3739,-2.3779,-2.3991,-2.4389,-2.4722,-2.5257,-2.5933,-2.622,-2.6272,-2.6189,-2.6134,-2.597,-2.5824,-2.5733,-2.5572,-2.4837,-2.4141,-2.3644,-2.3119,-2.2513,-2.1956,-2.1499,-2.1401,-2.1355,-2.1355,-2.1324,-2.1308,-2.1432,-2.1661,-2.1688,-2.1749,-2.1597,-2.1372,-2.1214,-2.0935,-2.0716,-2.048,-2.0928,-2.1894,-2.2068,-2.1826,-2.1694,-2.157,-2.1462,-2.1182,-3.0176,-2.8765,-2.8656,-2.8047,-2.7159,-2.6748,-2.6067,-2.5174,-2.4883,-2.4374,-2.4091,-2.4291,-2.4841,-2.5402,-2.583,-2.624,-2.6509,-2.7277,-2.8071,-2.8608,-2.8666,-2.8869,-2.8643,-2.8286,-2.781,-2.7959,-2.778,-2.7765,-2.773,-2.7494,-2.6994,-2.6774,-2.6273,-2.5614,-2.497,-2.4742,-2.4617,-2.4432,-2.4122,-2.3875,-2.3774,-2.3629,-2.3538,-2.3538,-2.3566,-2.3638,-2.3724,-2.3767,-2.3988,-2.4349,-2.4714,-2.4862,-2.4932,-2.4651,-2.4558,-2.4704,-2.4639,-2.4639,-2.4823,-2.4695,-2.467,-2.4614,-2.4276,-2.394,-2.3696,-2.3797,-2.3769,-2.3653,-2.3595,-2.3595,-2.3638,-2.3638,-2.3852,-2.4188,-2.4431,-2.4645,-2.5169,-2.5807,-2.601,-2.5758,-2.5551,-2.5262,-2.4989,-2.4871,-2.4735,-2.4511,-2.4177,-2.3701,-2.3095,-2.2433,-2.1866,-2.1247,-2.1039,-2.1007,-2.123,-2.1261,-2.1245,-2.1276,-2.1432,-2.1432,-2.15,-2.113,-2.0766,-2.0421,-2.008,-1.9946,-2.0066,-2.0985,-2.1984,-2.1827,-2.1703,-2.1637,-2.1546,-2.1397,-2.1197,-3.0633,-2.8925,-2.866,-2.7991,-2.7086,-2.641,-2.5862,-2.5392,-2.497,-2.4357,-2.3993,-2.4674,-2.4926,-2.4395,-2.5584,-2.625,-2.6208,-2.7194,-2.7897,-2.826,-2.8477,-2.882,-2.8899,-2.8527,-2.8144,-2.8303,-2.8426,-2.8158,-2.7652,-2.744,-2.7329,-2.6996,-2.66,-2.6205,-2.5698,-2.5447,-2.5159,-2.4781,-2.4429,-2.4139,-2.4036,-2.3733,-2.3538,-2.3538,-2.3566,-2.3595,-2.3595,-2.3595,-2.3728,-2.396,-2.4181,-2.4405,-2.4518,-2.42,-2.412,-2.4173,-2.423,-2.4188,-2.4338,-2.441,-2.4343,-2.4492,-2.4177,-2.3967,-2.3739,-2.3739,-2.3739,-2.3653,-2.3595,-2.3595,-2.3595,-2.3595,-2.3782,-2.3927,-2.421,-2.4395,-2.4701,-2.5363,-2.5806,-2.5582,-2.5663,-2.5438,-2.5107,-2.467,-2.4467,-2.4527,-2.4004,-2.3476,-2.2858,-2.2252,-2.1626,-2.1112,-2.0756,-2.0728,-2.1071,-2.1198,-2.1214,-2.1245,-2.1339,-2.1214,-2.1118,-2.0573,-1.9986,-1.9805,-1.975,-1.9824,-2.0077,-2.1088,-2.1709,-2.1613,-2.1541,-2.1573,-2.1562,-2.1493,-2.1241,-3.1156,-2.9576,-2.8839,-2.7966,-2.6908,-2.5868,-2.5584,-2.5637,-2.5264,-2.4521,-2.3948,-2.5721,-2.494,-2.3811,-2.5469,-2.5916,-2.5944,-2.6816,-2.7839,-2.8129,-2.8695,-2.9057,-2.9157,-2.9141,-2.898,-2.9249,-2.8906,-2.8337,-2.7825,-2.772,-2.7542,-2.7366,-2.7078,-2.6755,-2.6394,-2.6176,-2.5864,-2.5313,-2.4878,-2.4505,-2.4271,-2.391,-2.3703,-2.3566,-2.3523,-2.3566,-2.3566,-2.361,-2.3625,-2.3595,-2.3595,-2.3816,-2.3949,-2.3846,-2.3595,-2.3638,-2.3782,-2.3867,-2.3909,-2.3925,-2.3967,-2.394,-2.3925,-2.3882,-2.3782,-2.3739,-2.3696,-2.3638,-2.3595,-2.3595,-2.3595,-2.3595,-2.3595,-2.3683,-2.3993,-2.418,-2.4317,-2.4837,-2.5174,-2.5303,-2.5291,-2.5153,-2.5169,-2.495,-2.4735,-2.448,-2.3902,-2.3297,-2.2733,-2.2232,-2.1755,-2.1175,-2.084,-2.0942,-2.1293,-2.1293,-2.1276,-2.1308,-2.1339,-2.1103,-2.0942,-2.0747,-2.0326,-1.9725,-1.9637,-1.9766,-2.0091,-2.0838,-2.1251,-2.1265,-2.1589,-2.1838,-2.1802,-2.1587,-2.133,-2.9941,-2.8682,-2.8122,-2.7166,-2.6192,-2.6308,-2.5828,-2.517,-2.5431,-2.5286,-2.471,-2.5135,-2.5188,-2.4759,-2.5392,-2.6105,-2.6371,-2.7083,-2.7773,-2.8291,-2.8971,-2.9464,-2.9784,-2.9842,-2.9637,-2.8805,-2.8408,-2.7993,-2.7762,-2.7556,-2.7705,-2.7928,-2.7484,-2.7063,-2.6953,-2.6813,-2.6512,-2.6141,-2.5689,-2.5243,-2.4824,-2.432,-2.3852,-2.3598,-2.3494,-2.348,-2.3566,-2.3538,-2.3538,-2.3595,-2.3595,-2.364,-2.3728,-2.364,-2.361,-2.3595,-2.3696,-2.3754,-2.3696,-2.3754,-2.3739,-2.3696,-2.3696,-2.3696,-2.3638,-2.3638,-2.3638,-2.3595,-2.3595,-2.3595,-2.3595,-2.3595,-2.3595,-2.361,-2.3683,-2.3756,-2.3852,-2.4179,-2.4523,-2.4592,-2.4704,-2.4863,-2.4879,-2.4895,-2.4735,-2.4639,-2.4405,-2.3685,-2.2938,-2.2552,-2.2245,-2.1611,-2.0974,-2.1261,-2.1617,-2.1479,-2.1401,-2.1401,-2.1339,-2.1071,-2.0974,-2.1134,-2.0826,-2.0249,-1.9863,-1.989,-2.0279,-2.0768,-2.1044,-2.1275,-2.1725,-2.2186,-2.1859,-2.152,-2.1665,-2.9765,-2.8369,-2.7773,-2.6693,-2.5531,-2.5286,-2.4788,-2.4155,-2.494,-2.5015,-2.485,-2.5359,-2.5298,-2.4922,-2.5483,-2.5893,-2.5959,-2.6483,-2.6954,-2.7453,-2.8482,-2.9247,-2.9697,-2.9914,-2.974,-2.9029,-2.826,-2.7617,-2.7515,-2.7727,-2.7758,-2.7743,-2.7469,-2.7299,-2.7181,-2.7049,-2.6922,-2.6686,-2.6206,-2.5762,-2.534,-2.4666,-2.3953,-2.3555,-2.3466,-2.3451,-2.3494,-2.3566,-2.3566,-2.3595,-2.3566,-2.3553,-2.3553,-2.3581,-2.3566,-2.361,-2.3653,-2.3696,-2.3595,-2.3653,-2.3653,-2.3595,-2.3595,-2.3595,-2.3595,-2.3595,-2.3595,-2.3595,-2.3595,-2.3595,-2.3595,-2.3595,-2.3595,-2.3595,-2.3595,-2.3595,-2.3638,-2.3822,-2.3921,-2.4063,-2.4502,-2.4688,-2.4583,-2.4599,-2.4599,-2.4679,-2.4759,-2.4081,-2.3167,-2.2837,-2.2588,-2.194,-2.1324,-2.1509,-2.1797,-2.1721,-2.1601,-2.1601,-2.1493,-2.1198,-2.1039,-2.1197,-2.1117,-2.0733,-2.0457,-2.028,-2.0389,-2.0832,-2.1061,-2.1271,-2.1653,-2.1898,-2.1628,-2.1491,-2.1576,-2.979,-2.8242,-2.7674,-2.6467,-2.4983,-2.4192,-2.3636,-2.3405,-2.4264,-2.4383,-2.4072,-2.5265,-2.523,-2.4459,-2.4763,-2.5161,-2.4836,-2.545,-2.5896,-2.6565,-2.7596,-2.8338,-2.8826,-2.9087,-2.9261,-2.8811,-2.8286,-2.7657,-2.7676,-2.7674,-2.7728,-2.7721,-2.7528,-2.7299,-2.7144,-2.7093,-2.6974,-2.6761,-2.6418,-2.6097,-2.5631,-2.4732,-2.395,-2.3481,-2.3408,-2.3378,-2.3451,-2.3466,-2.348,-2.3523,-2.3523,-2.3524,-2.3495,-2.3524,-2.3538,-2.361,-2.3595,-2.3595,-2.3595,-2.3595,-2.3595,-2.3595,-2.3595,-2.3595,-2.3595,-2.3595,-2.3595,-2.3595,-2.3595,-2.3595,-2.3595,-2.3595,-2.3595,-2.3595,-2.3595,-2.3595,-2.3595,-2.3666,-2.3666,-2.3964,-2.443,-2.4608,-2.4583,-2.4704,-2.4784,-2.4958,-2.5059,-2.428,-2.3435,-2.306,-2.2705,-2.2162,-2.1768,-2.1827,-2.1961,-2.1945,-2.1857,-2.1827,-2.1721,-2.1509,-2.1355,-2.1308,-2.1195,-2.1176,-2.1028,-2.0882,-2.0908,-2.0888,-2.1094,-2.1339,-2.157,-2.1615,-2.146,-2.1357,-2.1352,-2.9366,-2.8242,-2.7674,-2.6434,-2.4843,-2.4148,-2.3593,-2.316,-2.3708,-2.378,-2.3365,-2.4091,-2.4128,-2.3669,-2.3906,-2.419,-2.4327,-2.4846,-2.5507,-2.6217,-2.6933,-2.7739,-2.8494,-2.8724,-2.8608,-2.8289,-2.7992,-2.8261,-2.81,-2.7568,-2.7556,-2.7779,-2.735,-2.7055,-2.7055,-2.6989,-2.6846,-2.6832,-2.6745,-2.6462,-2.5842,-2.4794,-2.4212,-2.3831,-2.3419,-2.3112,-2.3275,-2.329,-2.3275,-2.3377,-2.3436,-2.348,-2.3495,-2.3538,-2.3566,-2.3595,-2.3595,-2.3595,-2.3595,-2.3595,-2.3595,-2.3595,-2.3595,-2.3595,-2.3595,-2.3595,-2.3595,-2.3595,-2.3595,-2.3638,-2.3681,-2.3595,-2.3595,-2.3638,-2.3709,-2.3666,-2.3638,-2.3779,-2.3736,-2.3595,-2.4032,-2.4486,-2.4688,-2.4847,-2.5005,-2.5176,-2.5115,-2.4377,-2.361,-2.3162,-2.2747,-2.2153,-2.1873,-2.1932,-2.1991,-2.202,-2.1974,-2.1961,-2.1915,-2.1797,-2.1661,-2.157,-2.1708,-2.1639,-2.152,-2.1341,-2.1254,-2.1216,-2.1242,-2.1334,-2.149,-2.1486,-2.1368,-2.1245,-2.1071,-2.8779,-2.867,-2.7798,-2.6344,-2.4621,-2.4043,-2.3243,-2.2677,-2.2972,-2.3013,-2.2883,-2.3628,-2.371,-2.3217,-2.3178,-2.3029,-2.3296,-2.4053,-2.4731,-2.5584,-2.6244,-2.706,-2.7569,-2.7992,-2.8028,-2.8042,-2.769,-2.7559,-2.7783,-2.7627,-2.7388,-2.7506,-2.7306,-2.7093,-2.7003,-2.6937,-2.6884,-2.6846,-2.6721,-2.6483,-2.5835,-2.5034,-2.4349,-2.4002,-2.3373,-2.3141,-2.3171,-2.3246,-2.3231,-2.3304,-2.3363,-2.3378,-2.3437,-2.3466,-2.3538,-2.3523,-2.3551,-2.3595,-2.3595,-2.361,-2.3595,-2.3595,-2.3595,-2.3595,-2.3595,-2.3595,-2.3595,-2.3595,-2.3595,-2.3709,-2.3822,-2.3752,-2.3829,-2.3887,-2.3837,-2.3734,-2.3734,-2.396,-2.4002,-2.3779,-2.3638,-2.409,-2.4502,-2.4583,-2.4704,-2.4784,-2.4846,-2.4479,-2.3589,-2.2801,-2.2419,-2.2069,-2.1915,-2.1903,-2.1961,-2.202,-2.1915,-2.1932,-2.2152,-2.202,-2.1886,-2.1857,-2.1932,-2.202,-2.1965,-2.1797,-2.1597,-2.1545,-2.1616,-2.1503,-2.1387,-2.1334,-2.1214,-2.0811,-2.0662,-2.835,-2.8482,-2.7334,-2.5899,-2.4404,-2.3846,-2.2972,-2.2062,-2.2514,-2.2365,-2.2125,-2.2697,-2.3002,-2.2762,-2.2509,-2.2575,-2.2369,-2.3341,-2.3865,-2.458,-2.5472,-2.6315,-2.6791,-2.7178,-2.7723,-2.8216,-2.7326,-2.7181,-2.7254,-2.7214,-2.7041,-2.7063,-2.707,-2.7041,-2.6951,-2.6899,-2.6899,-2.6794,-2.6794,-2.6533,-2.6025,-2.5226,-2.4646,-2.4098,-2.3547,-2.3037,-2.3082,-2.3112,-2.3187,-2.3187,-2.3246,-2.3246,-2.3246,-2.3585,-2.3792,-2.3851,-2.3881,-2.391,-2.3864,-2.3774,-2.364,-2.3595,-2.3595,-2.3595,-2.3595,-2.3595,-2.3595,-2.3595,-2.3595,-2.3779,-2.3945,-2.3758,-2.3761,-2.3906,-2.3991,-2.383,-2.3743,-2.393,-2.396,-2.3736,-2.3638,-2.3724,-2.4063,-2.4245,-2.4343,-2.4451,-2.4469,-2.4423,-2.3716,-2.2784,-2.2351,-2.2115,-2.1986,-2.1927,-2.1844,-2.1873,-2.1827,-2.1932,-2.2152,-2.2209,-2.2049,-2.202,-2.2049,-2.2152,-2.2237,-2.2141,-2.1888,-2.1903,-2.1928,-2.1715,-2.1532,-2.1259,-2.1039,-2.0595,-2.0339,-2.8179,-2.7022,-2.5899,-2.4926,-2.4133,-2.3669,-2.2951,-2.2143,-2.2456,-2.1898,-2.1059,-2.131,-2.1518,-2.1562,-2.2251,-2.2477,-2.2143,-2.2862,-2.3382,-2.4079,-2.4778,-2.5313,-2.5771,-2.6304,-2.6818,-2.7002,-2.6756,-2.6837,-2.6866,-2.6977,-2.6884,-2.6846,-2.6884,-2.6832,-2.6846,-2.6846,-2.6846,-2.6794,-2.6794,-2.6721,-2.6213,-2.5517,-2.4728,-2.4457,-2.363,-2.2888,-2.2902,-2.3051,-2.3109,-2.3123,-2.333,-2.3405,-2.3582,-2.3819,-2.4072,-2.4223,-2.4075,-2.4134,-2.4104,-2.3834,-2.3625,-2.3595,-2.3595,-2.3595,-2.3595,-2.3595,-2.3595,-2.3595,-2.3595,-2.3681,-2.3701,-2.3644,-2.3709,-2.3857,-2.3933,-2.3746,-2.3673,-2.3819,-2.3822,-2.3666,-2.3638,-2.3681,-2.3767,-2.3952,-2.4219,-2.4328,-2.4222,-2.4207,-2.3803,-2.302,-2.2589,-2.2279,-2.2118,-2.1919,-2.1664,-2.1727,-2.2043,-2.2091,-2.2152,-2.2237,-2.2209,-2.218,-2.2123,-2.2123,-2.218,-2.218,-2.218,-2.2123,-2.202,-2.1857,-2.1631,-2.1198,-2.0877,-2.0478,-2.0323,-2.6119,-2.5477,-2.5178,-2.4644,-2.3985,-2.3576,-2.3179,-2.265,-2.1825,-2.1217,-2.0754,-2.0705,-2.0976,-2.151,-2.1829,-2.2194,-2.2176,-2.2708,-2.2946,-2.3096,-2.3511,-2.3907,-2.4422,-2.5092,-2.5632,-2.6065,-2.6379,-2.6727,-2.6808,-2.6779,-2.6779,-2.6794,-2.6779,-2.6794,-2.6794,-2.6779,-2.6779,-2.6794,-2.6736,-2.662,-2.601,-2.5371,-2.4612,-2.4181,-2.3499,-2.2931,-2.2946,-2.3308,-2.347,-2.3615,-2.397,-2.409,-2.4107,-2.4273,-2.4336,-2.443,-2.4238,-2.406,-2.4044,-2.3789,-2.361,-2.3595,-2.3595,-2.3595,-2.3595,-2.3595,-2.3595,-2.3595,-2.3595,-2.3653,-2.3975,-2.3812,-2.3701,-2.3861,-2.3834,-2.3646,-2.3661,-2.3764,-2.3752,-2.3638,-2.3595,-2.3638,-2.3681,-2.3724,-2.3994,-2.423,-2.4104,-2.3944,-2.3642,-2.3264,-2.2789,-2.2581,-2.2427,-2.2098,-2.1824,-2.2044,-2.2372,-2.2321,-2.2264,-2.2259,-2.2304,-2.2225,-2.2168,-2.214,-2.2077,-2.2003,-2.2049,-2.2152,-2.2094,-2.1886,-2.1479,-2.0942,-2.0613,-2.0342,-2.0289,-2.5039,-2.4761,-2.4902,-2.4554,-2.3927,-2.3608,-2.3445,-2.3071,-2.1594,-2.068,-2.0528,-2.0397,-2.0844,-2.1506,-2.1944,-2.2065,-2.2295,-2.2577,-2.2623,-2.2808,-2.3032,-2.316,-2.3489,-2.4131,-2.5039,-2.5508,-2.5906,-2.6258,-2.6621,-2.6659,-2.6712,-2.6712,-2.6712,-2.6712,-2.6712,-2.6712,-2.6712,-2.6712,-2.6736,-2.6431,-2.5821,-2.5183,-2.4544,-2.3963,-2.3281,-2.3105,-2.325,-2.3644,-2.3949,-2.4229,-2.4553,-2.4863,-2.4882,-2.4798,-2.469,-2.4517,-2.4267,-2.3985,-2.388,-2.3684,-2.3625,-2.3595,-2.3595,-2.3595,-2.3595,-2.3595,-2.3595,-2.3595,-2.3595,-2.3739,-2.4094,-2.3764,-2.3676,-2.3779,-2.3752,-2.3593,-2.3636,-2.3724,-2.3724,-2.3638,-2.361,-2.3566,-2.3595,-2.3681,-2.3767,-2.3952,-2.3884,-2.3887,-2.3951,-2.3475,-2.292,-2.2812,-2.2824,-2.2417,-2.2052,-2.267,-2.3102,-2.2722,-2.2639,-2.2399,-2.2377,-2.2274,-2.2161,-2.214,-2.202,-2.1869,-2.184,-2.1961,-2.1961,-2.1932,-2.1386,-2.0794,-2.0579,-2.0342,-2.022,-2.5472,-2.4994,-2.5033,-2.4546,-2.3783,-2.3884,-2.3742,-2.3305,-2.2048,-2.0952,-2.0266,-2.0564,-2.1061,-2.1572,-2.2007,-2.2116,-2.2177,-2.2408,-2.254,-2.2643,-2.289,-2.3334,-2.3748,-2.4213,-2.4777,-2.5273,-2.5687,-2.6042,-2.634,-2.6486,-2.6525,-2.651,-2.6525,-2.6472,-2.651,-2.651,-2.651,-2.6525,-2.6727,-2.6373,-2.5691,-2.511,-2.4544,-2.3905,-2.3267,-2.3105,-2.3804,-2.3978,-2.4326,-2.4776,-2.5068,-2.5199,-2.5014,-2.5394,-2.5316,-2.489,-2.4958,-2.4786,-2.4506,-2.3955,-2.3746,-2.364,-2.3595,-2.3638,-2.3638,-2.3638,-2.3681,-2.3767,-2.3696,-2.3638,-2.3638,-2.3595,-2.3623,-2.3623,-2.3595,-2.3595,-2.3638,-2.3581,-2.3538,-2.3538,-2.3538,-2.3494,-2.3566,-2.3595,-2.3595,-2.3638,-2.3595,-2.3719,-2.3943,-2.3717,-2.3108,-2.308,-2.3127,-2.2864,-2.2697,-2.3489,-2.38,-2.3343,-2.2895,-2.2573,-2.2344,-2.2188,-2.2118,-2.2158,-2.2265,-2.2335,-2.2021,-2.1721,-2.1524,-2.1308,-2.1135,-2.0712,-2.0545,-2.0435,-2.04,-2.5003,-2.5022,-2.5416,-2.4933,-2.3964,-2.3526,-2.3519,-2.3535,-2.257,-2.1551,-2.1027,-2.115,-2.1488,-2.1789,-2.1753,-2.1813,-2.1873,-2.1494,-2.1538,-2.228,-2.2528,-2.2959,-2.3437,-2.4083,-2.4667,-2.5204,-2.5577,-2.5879,-2.634,-2.6379,-2.6379,-2.6365,-2.6312,-2.6272,-2.6326,-2.6379,-2.6433,-2.6525,-2.6477,-2.6153,-2.5235,-2.495,-2.4588,-2.3949,-2.3293,-2.3496,-2.4413,-2.45,-2.482,-2.5386,-2.5646,-2.5785,-2.5444,-2.5646,-2.5107,-2.456,-2.4334,-2.4176,-2.4415,-2.4491,-2.4373,-2.3955,-2.3655,-2.3799,-2.3952,-2.4036,-2.4078,-2.3994,-2.3909,-2.3809,-2.3681,-2.3523,-2.3523,-2.3551,-2.3508,-2.3493,-2.3493,-2.3363,-2.3305,-2.3408,-2.3422,-2.3494,-2.3551,-2.3595,-2.3595,-2.3595,-2.3595,-2.3595,-2.3731,-2.3685,-2.3311,-2.3356,-2.3365,-2.3203,-2.3301,-2.4029,-2.3942,-2.3288,-2.2846,-2.2517,-2.229,-2.228,-2.2394,-2.2551,-2.2718,-2.2834,-2.2248,-2.1633,-2.0939,-2.0597,-2.078,-2.0727,-2.0408,-2.0564,-2.0813,-2.4309,-2.4729,-2.5241,-2.497,-2.416,-2.3642,-2.338,-2.3054,-2.2272,-2.1638,-2.121,-2.1284,-2.1416,-2.1536,-2.1512,-2.1404,-2.1463,-2.1255,-2.1605,-2.2255,-2.2344,-2.2961,-2.3585,-2.4035,-2.4512,-2.5065,-2.5481,-2.577,-2.6125,-2.6179,-2.6233,-2.6218,-2.6179,-2.6111,-2.6165,-2.6218,-2.6272,-2.6365,-2.6279,-2.604,-2.5409,-2.504,-2.4858,-2.437,-2.4051,-2.409,-2.4863,-2.5226,-2.5342,-2.5865,-2.6228,-2.6416,-2.5894,-2.5666,-2.5209,-2.4751,-2.4285,-2.4172,-2.4519,-2.5072,-2.4821,-2.4104,-2.3984,-2.3964,-2.407,-2.3952,-2.3967,-2.3967,-2.4078,-2.3867,-2.361,-2.3451,-2.3407,-2.3494,-2.3407,-2.3392,-2.3391,-2.3304,-2.326,-2.3334,-2.3363,-2.3451,-2.3551,-2.3595,-2.3595,-2.3595,-2.3595,-2.3595,-2.3595,-2.3593,-2.3634,-2.3732,-2.3866,-2.3897,-2.4011,-2.4452,-2.4131,-2.3296,-2.3038,-2.2932,-2.2764,-2.283,-2.2881,-2.2847,-2.274,-2.2547,-2.2165,-2.1604,-2.1244,-2.1075,-2.1126,-2.088,-2.0379,-2.0728,-2.1258,-2.3606,-2.4069,-2.4407,-2.4449,-2.4332,-2.3871,-2.2951,-2.1572,-2.1512,-2.1234,-2.0742,-2.1332,-2.1404,-2.0971,-2.1199,-2.1308,-2.1223,-2.1175,-2.1888,-2.2648,-2.284,-2.3457,-2.3992,-2.4346,-2.477,-2.4937,-2.5286,-2.5674,-2.5893,-2.6002,-2.6071,-2.6111,-2.6056,-2.6056,-2.6002,-2.6056,-2.6125,-2.6165,-2.6215,-2.595,-2.5494,-2.5459,-2.5271,-2.4916,-2.4747,-2.5038,-2.5487,-2.5647,-2.5705,-2.5981,-2.63,-2.6155,-2.6199,-2.651,-2.6238,-2.5722,-2.5003,-2.4749,-2.4591,-2.5099,-2.5133,-2.4537,-2.4582,-2.4268,-2.3964,-2.3909,-2.3967,-2.3967,-2.4051,-2.3754,-2.3494,-2.3422,-2.3393,-2.3349,-2.3275,-2.3319,-2.3348,-2.3334,-2.329,-2.3305,-2.3334,-2.3436,-2.3551,-2.3595,-2.3638,-2.3595,-2.3595,-2.3595,-2.3638,-2.3782,-2.3864,-2.4173,-2.4312,-2.4625,-2.4799,-2.4664,-2.4351,-2.3483,-2.3875,-2.383,-2.3619,-2.3298,-2.3359,-2.3215,-2.267,-2.2421,-2.2412,-2.22,-2.1881,-2.1759,-2.1599,-2.1409,-2.1024,-2.1431,-2.1853,-2.2924,-2.3472,-2.2937,-2.2939,-2.3173,-2.283,-2.2384,-2.1969,-2.1969,-2.1837,-2.174,-2.1885,-2.1704,-2.1728,-2.1127,-2.0911,-2.0694,-2.071,-2.1462,-2.2222,-2.3096,-2.4136,-2.4829,-2.5203,-2.5439,-2.5495,-2.5619,-2.5564,-2.5839,-2.5948,-2.5948,-2.5948,-2.6002,-2.5948,-2.5948,-2.5948,-2.5988,-2.6071,-2.6125,-2.5959,-2.5744,-2.5652,-2.5553,-2.551,-2.5125,-2.5487,-2.5995,-2.5517,-2.5575,-2.6271,-2.5705,-2.5299,-2.5197,-2.4921,-2.4437,-2.3876,-2.3926,-2.4239,-2.4391,-2.5246,-2.549,-2.4862,-2.4832,-2.4672,-2.4334,-2.4036,-2.4051,-2.4009,-2.4009,-2.3782,-2.3494,-2.3378,-2.3334,-2.329,-2.3216,-2.3187,-2.3231,-2.329,-2.3246,-2.3319,-2.3334,-2.3436,-2.3551,-2.3681,-2.3724,-2.3638,-2.3638,-2.3681,-2.3724,-2.3909,-2.3994,-2.4302,-2.4533,-2.4744,-2.4436,-2.423,-2.4076,-2.3886,-2.4233,-2.4295,-2.3763,-2.3544,-2.3746,-2.3545,-2.3064,-2.2939,-2.3002,-2.2714,-2.2315,-2.2114,-2.1979,-2.1834,-2.1794,-2.2194,-2.2475,-2.1733,-2.2207,-2.1768,-2.1695,-2.1958,-2.1583,-2.1391,-2.1487,-2.1728,-2.1885,-2.1873,-2.1849,-2.1765,-2.1416,-2.0875,-2.0514,-2.0249,-2.0137,-2.0921,-2.2596,-2.3073,-2.4311,-2.5301,-2.566,-2.5439,-2.555,-2.5564,-2.5397,-2.5619,-2.5839,-2.5893,-2.5893,-2.5893,-2.5893,-2.5823,-2.5723,-2.5723,-2.5903,-2.6014,-2.5937,-2.5912,-2.5859,-2.5977,-2.5973,-2.5517,-2.5792,-2.6155,-2.5313,-2.5342,-2.5742,-2.4852,-2.4897,-2.4889,-2.4687,-2.4221,-2.3876,-2.413,-2.4279,-2.4417,-2.5389,-2.5217,-2.4946,-2.498,-2.4807,-2.4324,-2.3882,-2.3882,-2.3824,-2.3867,-2.3824,-2.3581,-2.3334,-2.3275,-2.3216,-2.3127,-2.3038,-2.3127,-2.3172,-2.3246,-2.3319,-2.3406,-2.3523,-2.3653,-2.3782,-2.3909,-2.3979,-2.4131,-2.4297,-2.423,-2.4204,-2.4219,-2.4302,-2.4533,-2.4744,-2.4354,-2.4036,-2.4101,-2.4179,-2.4433,-2.4382,-2.3875,-2.3804,-2.398,-2.3788,-2.3442,-2.3422,-2.3386,-2.3076,-2.2724,-2.2619,-2.2604,-2.2607,-2.2679,-2.2858,-2.3038,-2.0269,-2.0815,-2.0668,-2.0765,-2.0839,-2.0449,-2.024,-2.0193,-2.0878,-2.1248,-2.1272,-2.1344,-2.1176,-2.0901,-2.0567,-2.0382,-2.0241,-2.0134,-2.1146,-2.3152,-2.3171,-2.4177,-2.5246,-2.5273,-2.5079,-2.4993,-2.4948,-2.4921,-2.5104,-2.5384,-2.5674,-2.5839,-2.5893,-2.5893,-2.5837,-2.5528,-2.5554,-2.5638,-2.5737,-2.5816,-2.6133,-2.6283,-2.6433,-2.6553,-2.6155,-2.5821,-2.5676,-2.5197,-2.4588,-2.4393,-2.4425,-2.4805,-2.484,-2.4974,-2.4539,-2.421,-2.4159,-2.4057,-2.4163,-2.4911,-2.4919,-2.4843,-2.5106,-2.4747,-2.4175,-2.3741,-2.3668,-2.3653,-2.3681,-2.3653,-2.3451,-2.3407,-2.3363,-2.3246,-2.3127,-2.3142,-2.3201,-2.329,-2.3377,-2.3406,-2.3465,-2.361,-2.3653,-2.3739,-2.3767,-2.4105,-2.4271,-2.442,-2.4639,-2.4451,-2.4426,-2.4343,-2.4451,-2.4558,-2.4271,-2.4063,-2.4313,-2.4461,-2.4679,-2.4808,-2.4524,-2.4362,-2.4188,-2.3967,-2.3788,-2.3743,-2.3628,-2.3335,-2.326,-2.3405,-2.3408,-2.3503,-2.3535,-2.3445,-2.3415,-1.9336,-1.976,-1.9939,-1.9908,-1.974,-2.0086,-1.9957,-1.9639,-1.979,-2.0086,-2.0511,-2.0914,-2.1057,-2.076,-2.0519,-2.039,-2.0582,-2.0449,-2.1583,-2.2644,-2.3125,-2.396,-2.5258,-2.4682,-2.4502,-2.4714,-2.458,-2.4226,-2.458,-2.4935,-2.5286,-2.5328,-2.5619,-2.5893,-2.5879,-2.5584,-2.55,-2.5458,-2.5385,-2.5678,-2.6082,-2.6165,-2.6258,-2.6299,-2.6029,-2.5749,-2.5568,-2.5197,-2.4863,-2.4679,-2.4689,-2.4525,-2.4187,-2.4317,-2.3927,-2.3366,-2.3426,-2.3397,-2.3632,-2.4087,-2.4148,-2.4068,-2.4193,-2.4178,-2.3983,-2.3657,-2.3494,-2.3523,-2.3611,-2.3583,-2.3451,-2.3451,-2.3422,-2.329,-2.3171,-2.3246,-2.3319,-2.3377,-2.348,-2.3508,-2.3551,-2.3595,-2.3653,-2.3681,-2.3724,-2.3767,-2.3767,-2.3964,-2.4477,-2.4533,-2.4533,-2.4508,-2.4385,-2.4328,-2.4147,-2.4214,-2.4542,-2.4664,-2.4784,-2.4942,-2.5098,-2.4902,-2.4639,-2.4328,-2.4147,-2.4078,-2.3937,-2.3721,-2.3706,-2.3852,-2.3852,-2.3782,-2.3638,-2.3535,-2.355,-1.8958,-1.9088,-1.9095,-1.894,-1.8788,-1.9111,-1.9121,-1.8899,-1.8908,-1.9072,-1.9387,-2.0016,-2.0499,-2.0641,-2.0487,-2.0379,-2.0615,-2.0612,-2.1459,-2.2425,-2.3019,-2.3744,-2.4008,-2.3933,-2.3553,-2.3612,-2.3519,-2.3463,-2.4134,-2.4765,-2.5118,-2.5314,-2.5701,-2.5893,-2.5865,-2.5683,-2.5514,-2.5402,-2.5121,-2.5371,-2.5915,-2.5926,-2.6048,-2.6088,-2.6021,-2.5741,-2.5438,-2.5127,-2.4838,-2.4737,-2.4776,-2.4214,-2.3782,-2.3569,-2.3385,-2.2999,-2.2828,-2.2682,-2.2987,-2.3339,-2.3589,-2.3536,-2.4,-2.4268,-2.4443,-2.416,-2.3932,-2.4033,-2.4732,-2.478,-2.3774,-2.3466,-2.3393,-2.3319,-2.3304,-2.3393,-2.3408,-2.3451,-2.3437,-2.3392,-2.3436,-2.348,-2.3566,-2.3824,-2.3894,-2.4105,-2.3979,-2.409,-2.4477,-2.4679,-2.4695,-2.4735,-2.4735,-2.4614,-2.4558,-2.4648,-2.4871,-2.4926,-2.4981,-2.502,-2.5137,-2.516,-2.5059,-2.4759,-2.4533,-2.441,-2.4271,-2.4021,-2.3809,-2.3809,-2.3867,-2.3909,-2.3739,-2.3595,-2.3551,-1.8679,-1.8625,-1.8313,-1.8096,-1.8084,-1.8096,-1.8173,-1.8162,-1.8271,-1.834,-1.8435,-1.9171,-1.9717,-2.0073,-2.0428,-2.0216,-2.027,-2.0706,-2.1549,-2.2247,-2.2374,-2.3294,-2.343,-2.295,-2.2508,-2.2197,-2.211,-2.2948,-2.3857,-2.4316,-2.4747,-2.548,-2.5797,-2.5893,-2.5739,-2.5514,-2.5331,-2.5374,-2.5289,-2.5289,-2.5413,-2.5494,-2.5891,-2.6036,-2.594,-2.5609,-2.5365,-2.5121,-2.4747,-2.4624,-2.4693,-2.4177,-2.3601,-2.3255,-2.2983,-2.2758,-2.2483,-2.2483,-2.2764,-2.3247,-2.3235,-2.3329,-2.4044,-2.4477,-2.4623,-2.4787,-2.4557,-2.4811,-2.5531,-2.5354,-2.4297,-2.3703,-2.3643,-2.3466,-2.3526,-2.3467,-2.3496,-2.3467,-2.3393,-2.3305,-2.3319,-2.3363,-2.3538,-2.3824,-2.4036,-2.4245,-2.4436,-2.4639,-2.4799,-2.4839,-2.4879,-2.5114,-2.5307,-2.5192,-2.4942,-2.4942,-2.5082,-2.5237,-2.5253,-2.5214,-2.5253,-2.546,-2.546,-2.5098,-2.4902,-2.4679,-2.4517,-2.4313,-2.4105,-2.3809,-2.3782,-2.3782,-2.3739,-2.3595,-2.3508,-1.8205,-1.8247,-1.8139,-1.8084,-1.8084,-1.8084,-1.8084,-1.8084,-1.815,-1.8357,-1.8596,-1.86,-1.8885,-1.9352,-1.9939,-2.0213,-2.0656,-2.0993,-2.1901,-2.2804,-2.2408,-2.3084,-2.3183,-2.2268,-2.1431,-2.112,-2.1047,-2.1297,-2.2842,-2.3375,-2.3692,-2.4327,-2.5604,-2.5879,-2.5879,-2.5669,-2.5528,-2.5458,-2.5289,-2.5233,-2.5317,-2.5511,-2.5875,-2.5909,-2.5688,-2.5526,-2.5406,-2.5451,-2.5013,-2.4712,-2.4468,-2.4168,-2.3531,-2.2974,-2.262,-2.2292,-2.2021,-2.2095,-2.239,-2.2815,-2.2793,-2.2929,-2.3628,-2.4238,-2.4701,-2.5621,-2.5515,-2.5561,-2.5925,-2.5604,-2.4843,-2.4629,-2.452,-2.4012,-2.3852,-2.3585,-2.3422,-2.3437,-2.3348,-2.3304,-2.3275,-2.3275,-2.3319,-2.3538,-2.3625,-2.3782,-2.3852,-2.4105,-2.4533,-2.4759,-2.4997,-2.5307,-2.5626,-2.5422,-2.5075,-2.5114,-2.5214,-2.5406,-2.5556,-2.5519,-2.5663,-2.597,-2.5844,-2.5253,-2.502,-2.4823,-2.4664,-2.4436,-2.4188,-2.3937,-2.3724,-2.3638,-2.3595,-2.3508,-2.3377]}]]